<?xml version="1.0" encoding="UTF-8" standalone="no" ?>
<gpx xmlns="http://www.topografix.com/GPX/1/1" xmlns:xsi="http://www.w3.org/2001/XMLSchema-instance" xsi:schemaLocation="http://www.topografix.com/GPX/1/1 http://www.topografix.com/GPX/1/1/gpx.xsd" version="1.1" creator="VisuGPX - https://www.visugpx.com">
  <metadata>
    <name>Col de Tepey</name>
    <desc><![CDATA[Sortie Lyonnel & MH, neige bien transformée. Montée par le chemin "classique", descente dans les vallons un peu plus expo nord. Sortie TOP]]></desc>
  </metadata>
  <trk>
    <name><![CDATA[2019-03-28 13:19:28]]></name>
    <trkseg>
      <trkpt lat="45.28377" lon="6.21053">
        <ele>1148.91</ele>
        <time>2019-03-28T06:24:00Z</time>
      </trkpt>
      <trkpt lat="45.28377" lon="6.21053">
        <ele>1148.91</ele>
        <time>2019-03-28T06:24:01Z</time>
      </trkpt>
      <trkpt lat="45.28377" lon="6.21053">
        <ele>1155.64</ele>
        <time>2019-03-28T06:24:02Z</time>
      </trkpt>
      <trkpt lat="45.28377" lon="6.21053">
        <ele>1155.64</ele>
        <time>2019-03-28T06:24:03Z</time>
      </trkpt>
      <trkpt lat="45.28377" lon="6.21053">
        <ele>1159.97</ele>
        <time>2019-03-28T06:24:05Z</time>
      </trkpt>
      <trkpt lat="45.28377" lon="6.21053">
        <ele>1163.81</ele>
        <time>2019-03-28T06:24:07Z</time>
      </trkpt>
      <trkpt lat="45.28377" lon="6.21052">
        <ele>1165.74</ele>
        <time>2019-03-28T06:24:09Z</time>
      </trkpt>
      <trkpt lat="45.28377" lon="6.21053">
        <ele>1169.58</ele>
        <time>2019-03-28T06:24:10Z</time>
      </trkpt>
      <trkpt lat="45.28376" lon="6.21052">
        <ele>1172.95</ele>
        <time>2019-03-28T06:24:12Z</time>
      </trkpt>
      <trkpt lat="45.28376" lon="6.21053">
        <ele>1175.83</ele>
        <time>2019-03-28T06:24:14Z</time>
      </trkpt>
      <trkpt lat="45.28375" lon="6.21054">
        <ele>1180.64</ele>
        <time>2019-03-28T06:24:16Z</time>
      </trkpt>
      <trkpt lat="45.28375" lon="6.21054">
        <ele>1180.64</ele>
        <time>2019-03-28T06:24:17Z</time>
      </trkpt>
      <trkpt lat="45.28375" lon="6.21054">
        <ele>1183.04</ele>
        <time>2019-03-28T06:24:19Z</time>
      </trkpt>
      <trkpt lat="45.28375" lon="6.21055">
        <ele>1186.4</ele>
        <time>2019-03-28T06:24:22Z</time>
      </trkpt>
      <trkpt lat="45.28376" lon="6.21054">
        <ele>1190.25</ele>
        <time>2019-03-28T06:24:26Z</time>
      </trkpt>
      <trkpt lat="45.28376" lon="6.21054">
        <ele>1193.61</ele>
        <time>2019-03-28T06:24:29Z</time>
      </trkpt>
      <trkpt lat="45.28377" lon="6.21053">
        <ele>1196.98</ele>
        <time>2019-03-28T06:24:33Z</time>
      </trkpt>
      <trkpt lat="45.28377" lon="6.21054">
        <ele>1199.86</ele>
        <time>2019-03-28T06:24:38Z</time>
      </trkpt>
      <trkpt lat="45.28377" lon="6.21054">
        <ele>1201.3</ele>
        <time>2019-03-28T06:24:40Z</time>
      </trkpt>
      <trkpt lat="45.28378" lon="6.21054">
        <ele>1202.75</ele>
        <time>2019-03-28T06:24:42Z</time>
      </trkpt>
      <trkpt lat="45.28378" lon="6.21054">
        <ele>1206.11</ele>
        <time>2019-03-28T06:24:48Z</time>
      </trkpt>
      <trkpt lat="45.28379" lon="6.21056">
        <ele>1209.48</ele>
        <time>2019-03-28T06:24:55Z</time>
      </trkpt>
      <trkpt lat="45.28379" lon="6.21056">
        <ele>1209.96</ele>
        <time>2019-03-28T06:24:57Z</time>
      </trkpt>
      <trkpt lat="45.28378" lon="6.21055">
        <ele>1211.4</ele>
        <time>2019-03-28T06:25:05Z</time>
      </trkpt>
      <trkpt lat="45.28382" lon="6.21053">
        <ele>1214.76</ele>
        <time>2019-03-28T06:25:15Z</time>
      </trkpt>
      <trkpt lat="45.28383" lon="6.21052">
        <ele>1214.28</ele>
        <time>2019-03-28T06:25:16Z</time>
      </trkpt>
      <trkpt lat="45.2838" lon="6.21054">
        <ele>1216.21</ele>
        <time>2019-03-28T06:25:41Z</time>
      </trkpt>
      <trkpt lat="45.28386" lon="6.21052">
        <ele>1216.21</ele>
        <time>2019-03-28T06:26:15Z</time>
      </trkpt>
      <trkpt lat="45.28379" lon="6.21058">
        <ele>1216.69</ele>
        <time>2019-03-28T06:26:47Z</time>
      </trkpt>
      <trkpt lat="45.28376" lon="6.21058">
        <ele>1216.21</ele>
        <time>2019-03-28T06:27:15Z</time>
      </trkpt>
      <trkpt lat="45.28374" lon="6.21057">
        <ele>1216.69</ele>
        <time>2019-03-28T06:27:56Z</time>
      </trkpt>
      <trkpt lat="45.28379" lon="6.21051">
        <ele>1216.69</ele>
        <time>2019-03-28T06:28:13Z</time>
      </trkpt>
      <trkpt lat="45.2838" lon="6.21055">
        <ele>1216.69</ele>
        <time>2019-03-28T06:28:30Z</time>
      </trkpt>
      <trkpt lat="45.2838" lon="6.21054">
        <ele>1218.13</ele>
        <time>2019-03-28T06:28:45Z</time>
      </trkpt>
      <trkpt lat="45.28378" lon="6.21054">
        <ele>1217.17</ele>
        <time>2019-03-28T06:29:04Z</time>
      </trkpt>
      <trkpt lat="45.28379" lon="6.2105">
        <ele>1217.17</ele>
        <time>2019-03-28T06:29:29Z</time>
      </trkpt>
      <trkpt lat="45.28374" lon="6.21052">
        <ele>1217.17</ele>
        <time>2019-03-28T06:29:55Z</time>
      </trkpt>
      <trkpt lat="45.28376" lon="6.21055">
        <ele>1217.65</ele>
        <time>2019-03-28T06:30:23Z</time>
      </trkpt>
      <trkpt lat="45.28374" lon="6.21056">
        <ele>1217.65</ele>
        <time>2019-03-28T06:30:51Z</time>
      </trkpt>
      <trkpt lat="45.28375" lon="6.2106">
        <ele>1217.65</ele>
        <time>2019-03-28T06:31:18Z</time>
      </trkpt>
      <trkpt lat="45.28373" lon="6.21058">
        <ele>1217.65</ele>
        <time>2019-03-28T06:31:33Z</time>
      </trkpt>
      <trkpt lat="45.2838" lon="6.21048">
        <ele>1218.13</ele>
        <time>2019-03-28T06:31:58Z</time>
      </trkpt>
      <trkpt lat="45.28379" lon="6.21056">
        <ele>1218.13</ele>
        <time>2019-03-28T06:32:19Z</time>
      </trkpt>
      <trkpt lat="45.28378" lon="6.21055">
        <ele>1218.61</ele>
        <time>2019-03-28T06:32:40Z</time>
      </trkpt>
      <trkpt lat="45.28377" lon="6.2105">
        <ele>1218.61</ele>
        <time>2019-03-28T06:32:55Z</time>
      </trkpt>
      <trkpt lat="45.28378" lon="6.21049">
        <ele>1218.61</ele>
        <time>2019-03-28T06:33:08Z</time>
      </trkpt>
      <trkpt lat="45.2838" lon="6.2105">
        <ele>1218.61</ele>
        <time>2019-03-28T06:33:23Z</time>
      </trkpt>
      <trkpt lat="45.28393" lon="6.21057">
        <ele>1218.13</ele>
        <time>2019-03-28T06:33:38Z</time>
      </trkpt>
      <trkpt lat="45.28396" lon="6.21059">
        <ele>1218.13</ele>
        <time>2019-03-28T06:33:41Z</time>
      </trkpt>
      <trkpt lat="45.28404" lon="6.21052">
        <ele>1220.05</ele>
        <time>2019-03-28T06:33:54Z</time>
      </trkpt>
      <trkpt lat="45.28403" lon="6.21051">
        <ele>1220.53</ele>
        <time>2019-03-28T06:33:55Z</time>
      </trkpt>
      <trkpt lat="45.28404" lon="6.21044">
        <ele>1221.49</ele>
        <time>2019-03-28T06:34:00Z</time>
      </trkpt>
      <trkpt lat="45.28402" lon="6.21028">
        <ele>1223.42</ele>
        <time>2019-03-28T06:34:11Z</time>
      </trkpt>
      <trkpt lat="45.284" lon="6.21007">
        <ele>1225.34</ele>
        <time>2019-03-28T06:34:26Z</time>
      </trkpt>
      <trkpt lat="45.28395" lon="6.20994">
        <ele>1226.3</ele>
        <time>2019-03-28T06:34:38Z</time>
      </trkpt>
      <trkpt lat="45.28385" lon="6.2098">
        <ele>1227.74</ele>
        <time>2019-03-28T06:34:51Z</time>
      </trkpt>
      <trkpt lat="45.28384" lon="6.20973">
        <ele>1229.18</ele>
        <time>2019-03-28T06:34:58Z</time>
      </trkpt>
      <trkpt lat="45.2838" lon="6.20954">
        <ele>1231.59</ele>
        <time>2019-03-28T06:35:13Z</time>
      </trkpt>
      <trkpt lat="45.2838" lon="6.20953">
        <ele>1231.11</ele>
        <time>2019-03-28T06:35:14Z</time>
      </trkpt>
      <trkpt lat="45.28379" lon="6.2095">
        <ele>1231.59</ele>
        <time>2019-03-28T06:35:17Z</time>
      </trkpt>
      <trkpt lat="45.28377" lon="6.20936">
        <ele>1233.03</ele>
        <time>2019-03-28T06:35:29Z</time>
      </trkpt>
      <trkpt lat="45.28375" lon="6.2093">
        <ele>1233.99</ele>
        <time>2019-03-28T06:35:34Z</time>
      </trkpt>
      <trkpt lat="45.28372" lon="6.20924">
        <ele>1234.47</ele>
        <time>2019-03-28T06:35:39Z</time>
      </trkpt>
      <trkpt lat="45.28367" lon="6.20918">
        <ele>1234.95</ele>
        <time>2019-03-28T06:35:44Z</time>
      </trkpt>
      <trkpt lat="45.2836" lon="6.20904">
        <ele>1236.87</ele>
        <time>2019-03-28T06:35:58Z</time>
      </trkpt>
      <trkpt lat="45.28354" lon="6.20888">
        <ele>1239.76</ele>
        <time>2019-03-28T06:36:13Z</time>
      </trkpt>
      <trkpt lat="45.2835" lon="6.20875">
        <ele>1242.64</ele>
        <time>2019-03-28T06:36:28Z</time>
      </trkpt>
      <trkpt lat="45.28349" lon="6.20859">
        <ele>1244.56</ele>
        <time>2019-03-28T06:36:42Z</time>
      </trkpt>
      <trkpt lat="45.28344" lon="6.20844">
        <ele>1247.45</ele>
        <time>2019-03-28T06:36:57Z</time>
      </trkpt>
      <trkpt lat="45.2834" lon="6.2083">
        <ele>1249.37</ele>
        <time>2019-03-28T06:37:11Z</time>
      </trkpt>
      <trkpt lat="45.28335" lon="6.20814">
        <ele>1251.77</ele>
        <time>2019-03-28T06:37:26Z</time>
      </trkpt>
      <trkpt lat="45.28331" lon="6.20801">
        <ele>1254.66</ele>
        <time>2019-03-28T06:37:42Z</time>
      </trkpt>
      <trkpt lat="45.28329" lon="6.20787">
        <ele>1257.06</ele>
        <time>2019-03-28T06:37:57Z</time>
      </trkpt>
      <trkpt lat="45.28327" lon="6.20773">
        <ele>1259.94</ele>
        <time>2019-03-28T06:38:12Z</time>
      </trkpt>
      <trkpt lat="45.28325" lon="6.2076">
        <ele>1262.35</ele>
        <time>2019-03-28T06:38:27Z</time>
      </trkpt>
      <trkpt lat="45.28325" lon="6.20757">
        <ele>1265.23</ele>
        <time>2019-03-28T06:38:41Z</time>
      </trkpt>
      <trkpt lat="45.28324" lon="6.20742">
        <ele>1267.64</ele>
        <time>2019-03-28T06:38:55Z</time>
      </trkpt>
      <trkpt lat="45.28321" lon="6.2073">
        <ele>1270.04</ele>
        <time>2019-03-28T06:39:07Z</time>
      </trkpt>
      <trkpt lat="45.28321" lon="6.20724">
        <ele>1272.44</ele>
        <time>2019-03-28T06:39:19Z</time>
      </trkpt>
      <trkpt lat="45.28327" lon="6.20727">
        <ele>1274.36</ele>
        <time>2019-03-28T06:39:32Z</time>
      </trkpt>
      <trkpt lat="45.28338" lon="6.20726">
        <ele>1276.77</ele>
        <time>2019-03-28T06:39:47Z</time>
      </trkpt>
      <trkpt lat="45.28347" lon="6.20725">
        <ele>1278.69</ele>
        <time>2019-03-28T06:40:01Z</time>
      </trkpt>
      <trkpt lat="45.28349" lon="6.20711">
        <ele>1281.57</ele>
        <time>2019-03-28T06:40:16Z</time>
      </trkpt>
      <trkpt lat="45.28348" lon="6.20704">
        <ele>1282.54</ele>
        <time>2019-03-28T06:40:22Z</time>
      </trkpt>
      <trkpt lat="45.28343" lon="6.20691">
        <ele>1284.46</ele>
        <time>2019-03-28T06:40:35Z</time>
      </trkpt>
      <trkpt lat="45.2834" lon="6.20683">
        <ele>1285.42</ele>
        <time>2019-03-28T06:40:42Z</time>
      </trkpt>
      <trkpt lat="45.28335" lon="6.20666">
        <ele>1287.34</ele>
        <time>2019-03-28T06:40:57Z</time>
      </trkpt>
      <trkpt lat="45.28337" lon="6.20651">
        <ele>1289.27</ele>
        <time>2019-03-28T06:41:10Z</time>
      </trkpt>
      <trkpt lat="45.2834" lon="6.2064">
        <ele>1292.15</ele>
        <time>2019-03-28T06:41:26Z</time>
      </trkpt>
      <trkpt lat="45.28343" lon="6.2065">
        <ele>1294.55</ele>
        <time>2019-03-28T06:41:40Z</time>
      </trkpt>
      <trkpt lat="45.2835" lon="6.2065">
        <ele>1296.96</ele>
        <time>2019-03-28T06:41:53Z</time>
      </trkpt>
      <trkpt lat="45.28356" lon="6.20638">
        <ele>1299.84</ele>
        <time>2019-03-28T06:42:08Z</time>
      </trkpt>
      <trkpt lat="45.28357" lon="6.20619">
        <ele>1302.24</ele>
        <time>2019-03-28T06:42:25Z</time>
      </trkpt>
      <trkpt lat="45.28356" lon="6.2061">
        <ele>1304.17</ele>
        <time>2019-03-28T06:42:38Z</time>
      </trkpt>
      <trkpt lat="45.28353" lon="6.20603">
        <ele>1305.61</ele>
        <time>2019-03-28T06:42:49Z</time>
      </trkpt>
      <trkpt lat="45.28349" lon="6.20578">
        <ele>1306.09</ele>
        <time>2019-03-28T06:43:04Z</time>
      </trkpt>
      <trkpt lat="45.28347" lon="6.2057">
        <ele>1306.57</ele>
        <time>2019-03-28T06:43:09Z</time>
      </trkpt>
      <trkpt lat="45.28347" lon="6.20567">
        <ele>1307.05</ele>
        <time>2019-03-28T06:43:11Z</time>
      </trkpt>
      <trkpt lat="45.28338" lon="6.20542">
        <ele>1308.49</ele>
        <time>2019-03-28T06:43:27Z</time>
      </trkpt>
      <trkpt lat="45.28336" lon="6.20516">
        <ele>1311.86</ele>
        <time>2019-03-28T06:43:45Z</time>
      </trkpt>
      <trkpt lat="45.28336" lon="6.2051">
        <ele>1312.34</ele>
        <time>2019-03-28T06:43:50Z</time>
      </trkpt>
      <trkpt lat="45.28332" lon="6.20496">
        <ele>1314.26</ele>
        <time>2019-03-28T06:44:01Z</time>
      </trkpt>
      <trkpt lat="45.28332" lon="6.20493">
        <ele>1314.74</ele>
        <time>2019-03-28T06:44:03Z</time>
      </trkpt>
      <trkpt lat="45.28331" lon="6.20486">
        <ele>1315.7</ele>
        <time>2019-03-28T06:44:09Z</time>
      </trkpt>
      <trkpt lat="45.28325" lon="6.20469">
        <ele>1318.59</ele>
        <time>2019-03-28T06:44:25Z</time>
      </trkpt>
      <trkpt lat="45.28323" lon="6.20453">
        <ele>1320.99</ele>
        <time>2019-03-28T06:44:41Z</time>
      </trkpt>
      <trkpt lat="45.28319" lon="6.20435">
        <ele>1322.43</ele>
        <time>2019-03-28T06:44:54Z</time>
      </trkpt>
      <trkpt lat="45.28314" lon="6.20422">
        <ele>1324.35</ele>
        <time>2019-03-28T06:45:07Z</time>
      </trkpt>
      <trkpt lat="45.28314" lon="6.2042">
        <ele>1324.35</ele>
        <time>2019-03-28T06:45:08Z</time>
      </trkpt>
      <trkpt lat="45.28308" lon="6.20404">
        <ele>1326.28</ele>
        <time>2019-03-28T06:45:22Z</time>
      </trkpt>
      <trkpt lat="45.28308" lon="6.20393">
        <ele>1329.16</ele>
        <time>2019-03-28T06:45:38Z</time>
      </trkpt>
      <trkpt lat="45.28315" lon="6.20384">
        <ele>1331.56</ele>
        <time>2019-03-28T06:45:53Z</time>
      </trkpt>
      <trkpt lat="45.28316" lon="6.20381">
        <ele>1332.04</ele>
        <time>2019-03-28T06:45:56Z</time>
      </trkpt>
      <trkpt lat="45.28317" lon="6.20363">
        <ele>1333.49</ele>
        <time>2019-03-28T06:46:12Z</time>
      </trkpt>
      <trkpt lat="45.28317" lon="6.20362">
        <ele>1333.49</ele>
        <time>2019-03-28T06:46:14Z</time>
      </trkpt>
      <trkpt lat="45.2831" lon="6.20355">
        <ele>1333.49</ele>
        <time>2019-03-28T06:46:28Z</time>
      </trkpt>
      <trkpt lat="45.28301" lon="6.20357">
        <ele>1335.41</ele>
        <time>2019-03-28T06:46:42Z</time>
      </trkpt>
      <trkpt lat="45.2829" lon="6.20353">
        <ele>1337.33</ele>
        <time>2019-03-28T06:46:56Z</time>
      </trkpt>
      <trkpt lat="45.28283" lon="6.20335">
        <ele>1340.22</ele>
        <time>2019-03-28T06:47:11Z</time>
      </trkpt>
      <trkpt lat="45.28282" lon="6.20323">
        <ele>1340.22</ele>
        <time>2019-03-28T06:47:19Z</time>
      </trkpt>
      <trkpt lat="45.28273" lon="6.20316">
        <ele>1341.18</ele>
        <time>2019-03-28T06:47:36Z</time>
      </trkpt>
      <trkpt lat="45.28263" lon="6.20315">
        <ele>1342.62</ele>
        <time>2019-03-28T06:47:50Z</time>
      </trkpt>
      <trkpt lat="45.28255" lon="6.20303">
        <ele>1344.54</ele>
        <time>2019-03-28T06:48:04Z</time>
      </trkpt>
      <trkpt lat="45.28248" lon="6.20289">
        <ele>1346.46</ele>
        <time>2019-03-28T06:48:17Z</time>
      </trkpt>
      <trkpt lat="45.28244" lon="6.20275">
        <ele>1349.35</ele>
        <time>2019-03-28T06:48:32Z</time>
      </trkpt>
      <trkpt lat="45.2824" lon="6.20264">
        <ele>1351.27</ele>
        <time>2019-03-28T06:48:45Z</time>
      </trkpt>
      <trkpt lat="45.28237" lon="6.20249">
        <ele>1353.67</ele>
        <time>2019-03-28T06:48:59Z</time>
      </trkpt>
      <trkpt lat="45.28233" lon="6.20233">
        <ele>1355.12</ele>
        <time>2019-03-28T06:49:13Z</time>
      </trkpt>
      <trkpt lat="45.28226" lon="6.20213">
        <ele>1357.04</ele>
        <time>2019-03-28T06:49:29Z</time>
      </trkpt>
      <trkpt lat="45.28219" lon="6.20198">
        <ele>1359.44</ele>
        <time>2019-03-28T06:49:46Z</time>
      </trkpt>
      <trkpt lat="45.28214" lon="6.20186">
        <ele>1361.36</ele>
        <time>2019-03-28T06:49:58Z</time>
      </trkpt>
      <trkpt lat="45.28211" lon="6.20177">
        <ele>1363.29</ele>
        <time>2019-03-28T06:50:10Z</time>
      </trkpt>
      <trkpt lat="45.28207" lon="6.20161">
        <ele>1365.69</ele>
        <time>2019-03-28T06:50:26Z</time>
      </trkpt>
      <trkpt lat="45.28206" lon="6.20157">
        <ele>1366.17</ele>
        <time>2019-03-28T06:50:29Z</time>
      </trkpt>
      <trkpt lat="45.28197" lon="6.2014">
        <ele>1369.05</ele>
        <time>2019-03-28T06:50:48Z</time>
      </trkpt>
      <trkpt lat="45.28192" lon="6.20132">
        <ele>1370.5</ele>
        <time>2019-03-28T06:51:01Z</time>
      </trkpt>
      <trkpt lat="45.28185" lon="6.20127">
        <ele>1372.42</ele>
        <time>2019-03-28T06:51:13Z</time>
      </trkpt>
      <trkpt lat="45.28177" lon="6.20122">
        <ele>1374.34</ele>
        <time>2019-03-28T06:51:28Z</time>
      </trkpt>
      <trkpt lat="45.28169" lon="6.20115">
        <ele>1375.78</ele>
        <time>2019-03-28T06:51:42Z</time>
      </trkpt>
      <trkpt lat="45.28161" lon="6.20102">
        <ele>1377.71</ele>
        <time>2019-03-28T06:51:56Z</time>
      </trkpt>
      <trkpt lat="45.28156" lon="6.20092">
        <ele>1379.63</ele>
        <time>2019-03-28T06:52:09Z</time>
      </trkpt>
      <trkpt lat="45.28152" lon="6.20087">
        <ele>1381.07</ele>
        <time>2019-03-28T06:52:18Z</time>
      </trkpt>
      <trkpt lat="45.28146" lon="6.20077">
        <ele>1382.99</ele>
        <time>2019-03-28T06:52:31Z</time>
      </trkpt>
      <trkpt lat="45.28146" lon="6.20073">
        <ele>1383.47</ele>
        <time>2019-03-28T06:52:35Z</time>
      </trkpt>
      <trkpt lat="45.28142" lon="6.20063">
        <ele>1385.4</ele>
        <time>2019-03-28T06:52:48Z</time>
      </trkpt>
      <trkpt lat="45.28135" lon="6.20052">
        <ele>1387.32</ele>
        <time>2019-03-28T06:53:04Z</time>
      </trkpt>
      <trkpt lat="45.28133" lon="6.20044">
        <ele>1388.28</ele>
        <time>2019-03-28T06:53:17Z</time>
      </trkpt>
      <trkpt lat="45.2813" lon="6.20039">
        <ele>1389.72</ele>
        <time>2019-03-28T06:53:25Z</time>
      </trkpt>
      <trkpt lat="45.28123" lon="6.20024">
        <ele>1390.2</ele>
        <time>2019-03-28T06:53:41Z</time>
      </trkpt>
      <trkpt lat="45.28119" lon="6.2001">
        <ele>1392.61</ele>
        <time>2019-03-28T06:53:55Z</time>
      </trkpt>
      <trkpt lat="45.28116" lon="6.19998">
        <ele>1394.53</ele>
        <time>2019-03-28T06:54:09Z</time>
      </trkpt>
      <trkpt lat="45.28112" lon="6.19984">
        <ele>1395.97</ele>
        <time>2019-03-28T06:54:24Z</time>
      </trkpt>
      <trkpt lat="45.28108" lon="6.19968">
        <ele>1397.89</ele>
        <time>2019-03-28T06:54:41Z</time>
      </trkpt>
      <trkpt lat="45.28105" lon="6.19958">
        <ele>1398.37</ele>
        <time>2019-03-28T06:54:56Z</time>
      </trkpt>
      <trkpt lat="45.281" lon="6.19939">
        <ele>1400.3</ele>
        <time>2019-03-28T06:55:13Z</time>
      </trkpt>
      <trkpt lat="45.28096" lon="6.1992">
        <ele>1402.7</ele>
        <time>2019-03-28T06:55:29Z</time>
      </trkpt>
      <trkpt lat="45.28104" lon="6.19913">
        <ele>1405.58</ele>
        <time>2019-03-28T06:55:43Z</time>
      </trkpt>
      <trkpt lat="45.28108" lon="6.19905">
        <ele>1407.03</ele>
        <time>2019-03-28T06:55:51Z</time>
      </trkpt>
      <trkpt lat="45.28114" lon="6.1989">
        <ele>1408.47</ele>
        <time>2019-03-28T06:56:05Z</time>
      </trkpt>
      <trkpt lat="45.28118" lon="6.19879">
        <ele>1410.39</ele>
        <time>2019-03-28T06:56:21Z</time>
      </trkpt>
      <trkpt lat="45.2812" lon="6.19874">
        <ele>1411.83</ele>
        <time>2019-03-28T06:56:33Z</time>
      </trkpt>
      <trkpt lat="45.28119" lon="6.19866">
        <ele>1411.83</ele>
        <time>2019-03-28T06:56:44Z</time>
      </trkpt>
      <trkpt lat="45.28111" lon="6.1986">
        <ele>1413.28</ele>
        <time>2019-03-28T06:56:59Z</time>
      </trkpt>
      <trkpt lat="45.28109" lon="6.19858">
        <ele>1413.76</ele>
        <time>2019-03-28T06:57:03Z</time>
      </trkpt>
      <trkpt lat="45.28107" lon="6.19856">
        <ele>1413.76</ele>
        <time>2019-03-28T06:57:05Z</time>
      </trkpt>
      <trkpt lat="45.28103" lon="6.19844">
        <ele>1414.24</ele>
        <time>2019-03-28T06:57:14Z</time>
      </trkpt>
      <trkpt lat="45.28094" lon="6.1982">
        <ele>1414.24</ele>
        <time>2019-03-28T06:57:31Z</time>
      </trkpt>
      <trkpt lat="45.28091" lon="6.19804">
        <ele>1414.72</ele>
        <time>2019-03-28T06:57:46Z</time>
      </trkpt>
      <trkpt lat="45.28089" lon="6.19791">
        <ele>1414.72</ele>
        <time>2019-03-28T06:58:00Z</time>
      </trkpt>
      <trkpt lat="45.2809" lon="6.19786">
        <ele>1415.2</ele>
        <time>2019-03-28T06:58:14Z</time>
      </trkpt>
      <trkpt lat="45.28091" lon="6.19784">
        <ele>1414.24</ele>
        <time>2019-03-28T06:58:25Z</time>
      </trkpt>
      <trkpt lat="45.28092" lon="6.19782">
        <ele>1413.76</ele>
        <time>2019-03-28T06:59:09Z</time>
      </trkpt>
      <trkpt lat="45.28092" lon="6.19784">
        <ele>1411.83</ele>
        <time>2019-03-28T06:59:42Z</time>
      </trkpt>
      <trkpt lat="45.28092" lon="6.19784">
        <ele>1416.64</ele>
        <time>2019-03-28T06:59:43Z</time>
      </trkpt>
      <trkpt lat="45.28093" lon="6.19783">
        <ele>1413.28</ele>
        <time>2019-03-28T07:00:20Z</time>
      </trkpt>
      <trkpt lat="45.2809" lon="6.19784">
        <ele>1413.76</ele>
        <time>2019-03-28T07:00:41Z</time>
      </trkpt>
      <trkpt lat="45.2809" lon="6.19792">
        <ele>1414.72</ele>
        <time>2019-03-28T07:00:55Z</time>
      </trkpt>
      <trkpt lat="45.28089" lon="6.19793">
        <ele>1414.24</ele>
        <time>2019-03-28T07:01:15Z</time>
      </trkpt>
      <trkpt lat="45.2809" lon="6.19785">
        <ele>1414.72</ele>
        <time>2019-03-28T07:01:30Z</time>
      </trkpt>
      <trkpt lat="45.28091" lon="6.19783">
        <ele>1414.72</ele>
        <time>2019-03-28T07:01:41Z</time>
      </trkpt>
      <trkpt lat="45.28092" lon="6.19783">
        <ele>1414.72</ele>
        <time>2019-03-28T07:02:01Z</time>
      </trkpt>
      <trkpt lat="45.28092" lon="6.19784">
        <ele>1414.24</ele>
        <time>2019-03-28T07:02:21Z</time>
      </trkpt>
      <trkpt lat="45.28093" lon="6.19785">
        <ele>1414.24</ele>
        <time>2019-03-28T07:02:46Z</time>
      </trkpt>
      <trkpt lat="45.28091" lon="6.19782">
        <ele>1414.24</ele>
        <time>2019-03-28T07:03:10Z</time>
      </trkpt>
      <trkpt lat="45.28091" lon="6.19784">
        <ele>1414.24</ele>
        <time>2019-03-28T07:03:24Z</time>
      </trkpt>
      <trkpt lat="45.28092" lon="6.19777">
        <ele>1414.24</ele>
        <time>2019-03-28T07:03:39Z</time>
      </trkpt>
      <trkpt lat="45.2809" lon="6.19769">
        <ele>1414.24</ele>
        <time>2019-03-28T07:03:44Z</time>
      </trkpt>
      <trkpt lat="45.2809" lon="6.19759">
        <ele>1414.24</ele>
        <time>2019-03-28T07:03:50Z</time>
      </trkpt>
      <trkpt lat="45.28089" lon="6.19756">
        <ele>1414.72</ele>
        <time>2019-03-28T07:03:52Z</time>
      </trkpt>
      <trkpt lat="45.28087" lon="6.19751">
        <ele>1414.24</ele>
        <time>2019-03-28T07:03:57Z</time>
      </trkpt>
      <trkpt lat="45.28086" lon="6.19748">
        <ele>1414.24</ele>
        <time>2019-03-28T07:03:59Z</time>
      </trkpt>
      <trkpt lat="45.2808" lon="6.19731">
        <ele>1415.2</ele>
        <time>2019-03-28T07:04:13Z</time>
      </trkpt>
      <trkpt lat="45.28073" lon="6.19714">
        <ele>1416.64</ele>
        <time>2019-03-28T07:04:28Z</time>
      </trkpt>
      <trkpt lat="45.28066" lon="6.19701">
        <ele>1418.08</ele>
        <time>2019-03-28T07:04:41Z</time>
      </trkpt>
      <trkpt lat="45.28061" lon="6.1969">
        <ele>1419.04</ele>
        <time>2019-03-28T07:04:50Z</time>
      </trkpt>
      <trkpt lat="45.28057" lon="6.19681">
        <ele>1419.04</ele>
        <time>2019-03-28T07:04:57Z</time>
      </trkpt>
      <trkpt lat="45.28053" lon="6.19671">
        <ele>1419.04</ele>
        <time>2019-03-28T07:05:06Z</time>
      </trkpt>
      <trkpt lat="45.28047" lon="6.19656">
        <ele>1420</ele>
        <time>2019-03-28T07:05:20Z</time>
      </trkpt>
      <trkpt lat="45.28047" lon="6.19653">
        <ele>1420.49</ele>
        <time>2019-03-28T07:05:22Z</time>
      </trkpt>
      <trkpt lat="45.28046" lon="6.19649">
        <ele>1420.49</ele>
        <time>2019-03-28T07:05:25Z</time>
      </trkpt>
      <trkpt lat="45.28043" lon="6.19636">
        <ele>1422.89</ele>
        <time>2019-03-28T07:05:39Z</time>
      </trkpt>
      <trkpt lat="45.28042" lon="6.19633">
        <ele>1423.85</ele>
        <time>2019-03-28T07:05:42Z</time>
      </trkpt>
      <trkpt lat="45.28033" lon="6.19617">
        <ele>1424.81</ele>
        <time>2019-03-28T07:05:57Z</time>
      </trkpt>
      <trkpt lat="45.28024" lon="6.19604">
        <ele>1426.25</ele>
        <time>2019-03-28T07:06:12Z</time>
      </trkpt>
      <trkpt lat="45.28019" lon="6.19593">
        <ele>1427.21</ele>
        <time>2019-03-28T07:06:25Z</time>
      </trkpt>
      <trkpt lat="45.28021" lon="6.19588">
        <ele>1428.18</ele>
        <time>2019-03-28T07:06:37Z</time>
      </trkpt>
      <trkpt lat="45.28023" lon="6.19579">
        <ele>1430.1</ele>
        <time>2019-03-28T07:06:49Z</time>
      </trkpt>
      <trkpt lat="45.2802" lon="6.19571">
        <ele>1431.54</ele>
        <time>2019-03-28T07:06:59Z</time>
      </trkpt>
      <trkpt lat="45.28021" lon="6.1957">
        <ele>1433.46</ele>
        <time>2019-03-28T07:07:09Z</time>
      </trkpt>
      <trkpt lat="45.28024" lon="6.19562">
        <ele>1434.91</ele>
        <time>2019-03-28T07:07:18Z</time>
      </trkpt>
      <trkpt lat="45.28021" lon="6.19559">
        <ele>1436.35</ele>
        <time>2019-03-28T07:07:30Z</time>
      </trkpt>
      <trkpt lat="45.28016" lon="6.19556">
        <ele>1436.83</ele>
        <time>2019-03-28T07:07:41Z</time>
      </trkpt>
      <trkpt lat="45.28012" lon="6.19549">
        <ele>1437.79</ele>
        <time>2019-03-28T07:07:50Z</time>
      </trkpt>
      <trkpt lat="45.28006" lon="6.1954">
        <ele>1438.27</ele>
        <time>2019-03-28T07:08:02Z</time>
      </trkpt>
      <trkpt lat="45.27999" lon="6.19526">
        <ele>1438.75</ele>
        <time>2019-03-28T07:08:16Z</time>
      </trkpt>
      <trkpt lat="45.27995" lon="6.19516">
        <ele>1439.23</ele>
        <time>2019-03-28T07:08:27Z</time>
      </trkpt>
      <trkpt lat="45.27991" lon="6.19501">
        <ele>1439.71</ele>
        <time>2019-03-28T07:08:39Z</time>
      </trkpt>
      <trkpt lat="45.2799" lon="6.19499">
        <ele>1439.71</ele>
        <time>2019-03-28T07:08:41Z</time>
      </trkpt>
      <trkpt lat="45.27987" lon="6.19482">
        <ele>1440.19</ele>
        <time>2019-03-28T07:08:55Z</time>
      </trkpt>
      <trkpt lat="45.27985" lon="6.19472">
        <ele>1440.67</ele>
        <time>2019-03-28T07:09:03Z</time>
      </trkpt>
      <trkpt lat="45.27981" lon="6.1945">
        <ele>1442.11</ele>
        <time>2019-03-28T07:09:19Z</time>
      </trkpt>
      <trkpt lat="45.27976" lon="6.19431">
        <ele>1443.08</ele>
        <time>2019-03-28T07:09:33Z</time>
      </trkpt>
      <trkpt lat="45.27973" lon="6.19414">
        <ele>1445.48</ele>
        <time>2019-03-28T07:09:48Z</time>
      </trkpt>
      <trkpt lat="45.2797" lon="6.194">
        <ele>1447.4</ele>
        <time>2019-03-28T07:10:01Z</time>
      </trkpt>
      <trkpt lat="45.27964" lon="6.19386">
        <ele>1449.32</ele>
        <time>2019-03-28T07:10:14Z</time>
      </trkpt>
      <trkpt lat="45.27962" lon="6.19373">
        <ele>1451.73</ele>
        <time>2019-03-28T07:10:28Z</time>
      </trkpt>
      <trkpt lat="45.2796" lon="6.1936">
        <ele>1454.13</ele>
        <time>2019-03-28T07:10:43Z</time>
      </trkpt>
      <trkpt lat="45.27953" lon="6.19342">
        <ele>1456.05</ele>
        <time>2019-03-28T07:10:59Z</time>
      </trkpt>
      <trkpt lat="45.27951" lon="6.19327">
        <ele>1457.98</ele>
        <time>2019-03-28T07:11:13Z</time>
      </trkpt>
      <trkpt lat="45.27944" lon="6.19312">
        <ele>1459.42</ele>
        <time>2019-03-28T07:11:27Z</time>
      </trkpt>
      <trkpt lat="45.27939" lon="6.19298">
        <ele>1461.34</ele>
        <time>2019-03-28T07:11:41Z</time>
      </trkpt>
      <trkpt lat="45.27934" lon="6.19288">
        <ele>1463.26</ele>
        <time>2019-03-28T07:11:54Z</time>
      </trkpt>
      <trkpt lat="45.27928" lon="6.19275">
        <ele>1465.19</ele>
        <time>2019-03-28T07:12:09Z</time>
      </trkpt>
      <trkpt lat="45.27926" lon="6.19263">
        <ele>1467.11</ele>
        <time>2019-03-28T07:12:21Z</time>
      </trkpt>
      <trkpt lat="45.27925" lon="6.19261">
        <ele>1467.11</ele>
        <time>2019-03-28T07:12:23Z</time>
      </trkpt>
      <trkpt lat="45.27923" lon="6.19246">
        <ele>1469.99</ele>
        <time>2019-03-28T07:12:39Z</time>
      </trkpt>
      <trkpt lat="45.27923" lon="6.19242">
        <ele>1470.47</ele>
        <time>2019-03-28T07:12:43Z</time>
      </trkpt>
      <trkpt lat="45.2792" lon="6.19222">
        <ele>1472.88</ele>
        <time>2019-03-28T07:13:01Z</time>
      </trkpt>
      <trkpt lat="45.27918" lon="6.19205">
        <ele>1474.32</ele>
        <time>2019-03-28T07:13:15Z</time>
      </trkpt>
      <trkpt lat="45.27918" lon="6.19204">
        <ele>1474.8</ele>
        <time>2019-03-28T07:13:16Z</time>
      </trkpt>
      <trkpt lat="45.27914" lon="6.19187">
        <ele>1476.24</ele>
        <time>2019-03-28T07:13:31Z</time>
      </trkpt>
      <trkpt lat="45.27911" lon="6.19174">
        <ele>1478.65</ele>
        <time>2019-03-28T07:13:45Z</time>
      </trkpt>
      <trkpt lat="45.27908" lon="6.19161">
        <ele>1480.57</ele>
        <time>2019-03-28T07:14:00Z</time>
      </trkpt>
      <trkpt lat="45.27909" lon="6.19158">
        <ele>1480.57</ele>
        <time>2019-03-28T07:14:04Z</time>
      </trkpt>
      <trkpt lat="45.27911" lon="6.19148">
        <ele>1480.09</ele>
        <time>2019-03-28T07:14:11Z</time>
      </trkpt>
      <trkpt lat="45.27911" lon="6.19133">
        <ele>1482.97</ele>
        <time>2019-03-28T07:14:26Z</time>
      </trkpt>
      <trkpt lat="45.27911" lon="6.19119">
        <ele>1483.93</ele>
        <time>2019-03-28T07:14:39Z</time>
      </trkpt>
      <trkpt lat="45.27904" lon="6.19114">
        <ele>1485.37</ele>
        <time>2019-03-28T07:14:51Z</time>
      </trkpt>
      <trkpt lat="45.27901" lon="6.19113">
        <ele>1486.34</ele>
        <time>2019-03-28T07:15:04Z</time>
      </trkpt>
      <trkpt lat="45.27895" lon="6.1911">
        <ele>1486.82</ele>
        <time>2019-03-28T07:15:15Z</time>
      </trkpt>
      <trkpt lat="45.27898" lon="6.191">
        <ele>1489.22</ele>
        <time>2019-03-28T07:15:27Z</time>
      </trkpt>
      <trkpt lat="45.27896" lon="6.19093">
        <ele>1490.18</ele>
        <time>2019-03-28T07:15:35Z</time>
      </trkpt>
      <trkpt lat="45.27897" lon="6.19079">
        <ele>1492.58</ele>
        <time>2019-03-28T07:15:51Z</time>
      </trkpt>
      <trkpt lat="45.27894" lon="6.19064">
        <ele>1494.03</ele>
        <time>2019-03-28T07:16:04Z</time>
      </trkpt>
      <trkpt lat="45.27891" lon="6.19052">
        <ele>1495.95</ele>
        <time>2019-03-28T07:16:15Z</time>
      </trkpt>
      <trkpt lat="45.27888" lon="6.19035">
        <ele>1497.87</ele>
        <time>2019-03-28T07:16:32Z</time>
      </trkpt>
      <trkpt lat="45.27888" lon="6.19024">
        <ele>1498.83</ele>
        <time>2019-03-28T07:16:44Z</time>
      </trkpt>
      <trkpt lat="45.27887" lon="6.19009">
        <ele>1501.24</ele>
        <time>2019-03-28T07:16:59Z</time>
      </trkpt>
      <trkpt lat="45.27885" lon="6.18991">
        <ele>1502.68</ele>
        <time>2019-03-28T07:17:15Z</time>
      </trkpt>
      <trkpt lat="45.27884" lon="6.18987">
        <ele>1503.16</ele>
        <time>2019-03-28T07:17:19Z</time>
      </trkpt>
      <trkpt lat="45.27888" lon="6.18971">
        <ele>1504.6</ele>
        <time>2019-03-28T07:17:35Z</time>
      </trkpt>
      <trkpt lat="45.27891" lon="6.18952">
        <ele>1505.56</ele>
        <time>2019-03-28T07:17:51Z</time>
      </trkpt>
      <trkpt lat="45.27893" lon="6.18944">
        <ele>1507</ele>
        <time>2019-03-28T07:18:03Z</time>
      </trkpt>
      <trkpt lat="45.27894" lon="6.18942">
        <ele>1507.48</ele>
        <time>2019-03-28T07:18:16Z</time>
      </trkpt>
      <trkpt lat="45.27894" lon="6.18941">
        <ele>1507</ele>
        <time>2019-03-28T07:18:34Z</time>
      </trkpt>
      <trkpt lat="45.27894" lon="6.18944">
        <ele>1507</ele>
        <time>2019-03-28T07:18:49Z</time>
      </trkpt>
      <trkpt lat="45.27895" lon="6.18942">
        <ele>1507</ele>
        <time>2019-03-28T07:19:04Z</time>
      </trkpt>
      <trkpt lat="45.27895" lon="6.18941">
        <ele>1507</ele>
        <time>2019-03-28T07:19:05Z</time>
      </trkpt>
      <trkpt lat="45.27891" lon="6.18931">
        <ele>1507.48</ele>
        <time>2019-03-28T07:19:17Z</time>
      </trkpt>
      <trkpt lat="45.27893" lon="6.1893">
        <ele>1507.48</ele>
        <time>2019-03-28T07:19:31Z</time>
      </trkpt>
      <trkpt lat="45.27893" lon="6.18931">
        <ele>1507.48</ele>
        <time>2019-03-28T07:19:56Z</time>
      </trkpt>
      <trkpt lat="45.27891" lon="6.18931">
        <ele>1507.48</ele>
        <time>2019-03-28T07:20:11Z</time>
      </trkpt>
      <trkpt lat="45.2789" lon="6.18929">
        <ele>1507.97</ele>
        <time>2019-03-28T07:20:26Z</time>
      </trkpt>
      <trkpt lat="45.27889" lon="6.18928">
        <ele>1507.48</ele>
        <time>2019-03-28T07:20:42Z</time>
      </trkpt>
      <trkpt lat="45.27885" lon="6.18921">
        <ele>1508.93</ele>
        <time>2019-03-28T07:20:54Z</time>
      </trkpt>
      <trkpt lat="45.27885" lon="6.18919">
        <ele>1509.41</ele>
        <time>2019-03-28T07:20:56Z</time>
      </trkpt>
      <trkpt lat="45.27884" lon="6.189">
        <ele>1509.89</ele>
        <time>2019-03-28T07:21:10Z</time>
      </trkpt>
      <trkpt lat="45.27888" lon="6.18881">
        <ele>1511.81</ele>
        <time>2019-03-28T07:21:26Z</time>
      </trkpt>
      <trkpt lat="45.27894" lon="6.18863">
        <ele>1513.25</ele>
        <time>2019-03-28T07:21:41Z</time>
      </trkpt>
      <trkpt lat="45.279" lon="6.18851">
        <ele>1514.69</ele>
        <time>2019-03-28T07:21:54Z</time>
      </trkpt>
      <trkpt lat="45.27908" lon="6.18835">
        <ele>1515.66</ele>
        <time>2019-03-28T07:22:08Z</time>
      </trkpt>
      <trkpt lat="45.27915" lon="6.18821">
        <ele>1516.62</ele>
        <time>2019-03-28T07:22:21Z</time>
      </trkpt>
      <trkpt lat="45.2792" lon="6.18808">
        <ele>1517.1</ele>
        <time>2019-03-28T07:22:31Z</time>
      </trkpt>
      <trkpt lat="45.27921" lon="6.18803">
        <ele>1517.58</ele>
        <time>2019-03-28T07:22:34Z</time>
      </trkpt>
      <trkpt lat="45.27923" lon="6.1878">
        <ele>1517.58</ele>
        <time>2019-03-28T07:22:48Z</time>
      </trkpt>
      <trkpt lat="45.27923" lon="6.18757">
        <ele>1518.06</ele>
        <time>2019-03-28T07:23:03Z</time>
      </trkpt>
      <trkpt lat="45.27923" lon="6.18756">
        <ele>1518.54</ele>
        <time>2019-03-28T07:23:04Z</time>
      </trkpt>
      <trkpt lat="45.27922" lon="6.18752">
        <ele>1518.54</ele>
        <time>2019-03-28T07:23:06Z</time>
      </trkpt>
      <trkpt lat="45.27921" lon="6.18742">
        <ele>1518.54</ele>
        <time>2019-03-28T07:23:13Z</time>
      </trkpt>
      <trkpt lat="45.27916" lon="6.18734">
        <ele>1519.5</ele>
        <time>2019-03-28T07:23:20Z</time>
      </trkpt>
      <trkpt lat="45.27914" lon="6.18727">
        <ele>1519.98</ele>
        <time>2019-03-28T07:23:25Z</time>
      </trkpt>
      <trkpt lat="45.27914" lon="6.18723">
        <ele>1519.5</ele>
        <time>2019-03-28T07:23:29Z</time>
      </trkpt>
      <trkpt lat="45.27912" lon="6.18703">
        <ele>1520.94</ele>
        <time>2019-03-28T07:23:45Z</time>
      </trkpt>
      <trkpt lat="45.27909" lon="6.18686">
        <ele>1521.9</ele>
        <time>2019-03-28T07:23:58Z</time>
      </trkpt>
      <trkpt lat="45.27909" lon="6.18668">
        <ele>1522.87</ele>
        <time>2019-03-28T07:24:11Z</time>
      </trkpt>
      <trkpt lat="45.27908" lon="6.18655">
        <ele>1523.83</ele>
        <time>2019-03-28T07:24:21Z</time>
      </trkpt>
      <trkpt lat="45.27907" lon="6.18648">
        <ele>1523.83</ele>
        <time>2019-03-28T07:24:26Z</time>
      </trkpt>
      <trkpt lat="45.27908" lon="6.18633">
        <ele>1525.75</ele>
        <time>2019-03-28T07:24:40Z</time>
      </trkpt>
      <trkpt lat="45.2791" lon="6.1862">
        <ele>1527.67</ele>
        <time>2019-03-28T07:24:53Z</time>
      </trkpt>
      <trkpt lat="45.2791" lon="6.18619">
        <ele>1528.15</ele>
        <time>2019-03-28T07:24:54Z</time>
      </trkpt>
      <trkpt lat="45.27908" lon="6.18608">
        <ele>1528.63</ele>
        <time>2019-03-28T07:25:02Z</time>
      </trkpt>
      <trkpt lat="45.27907" lon="6.1859">
        <ele>1529.59</ele>
        <time>2019-03-28T07:25:16Z</time>
      </trkpt>
      <trkpt lat="45.27906" lon="6.18575">
        <ele>1531.52</ele>
        <time>2019-03-28T07:25:30Z</time>
      </trkpt>
      <trkpt lat="45.27907" lon="6.1856">
        <ele>1533.92</ele>
        <time>2019-03-28T07:25:45Z</time>
      </trkpt>
      <trkpt lat="45.27906" lon="6.18554">
        <ele>1532.48</ele>
        <time>2019-03-28T07:25:59Z</time>
      </trkpt>
      <trkpt lat="45.27905" lon="6.18555">
        <ele>1533.92</ele>
        <time>2019-03-28T07:26:12Z</time>
      </trkpt>
      <trkpt lat="45.27904" lon="6.18552">
        <ele>1534.4</ele>
        <time>2019-03-28T07:26:23Z</time>
      </trkpt>
      <trkpt lat="45.27901" lon="6.1855">
        <ele>1535.84</ele>
        <time>2019-03-28T07:26:36Z</time>
      </trkpt>
      <trkpt lat="45.279" lon="6.1854">
        <ele>1537.77</ele>
        <time>2019-03-28T07:26:50Z</time>
      </trkpt>
      <trkpt lat="45.27898" lon="6.1853">
        <ele>1539.69</ele>
        <time>2019-03-28T07:27:03Z</time>
      </trkpt>
      <trkpt lat="45.27894" lon="6.18518">
        <ele>1541.61</ele>
        <time>2019-03-28T07:27:16Z</time>
      </trkpt>
      <trkpt lat="45.27893" lon="6.18502">
        <ele>1543.53</ele>
        <time>2019-03-28T07:27:30Z</time>
      </trkpt>
      <trkpt lat="45.27891" lon="6.18489">
        <ele>1544.98</ele>
        <time>2019-03-28T07:27:43Z</time>
      </trkpt>
      <trkpt lat="45.27888" lon="6.18474">
        <ele>1547.38</ele>
        <time>2019-03-28T07:27:57Z</time>
      </trkpt>
      <trkpt lat="45.27889" lon="6.1846">
        <ele>1548.34</ele>
        <time>2019-03-28T07:28:11Z</time>
      </trkpt>
      <trkpt lat="45.27892" lon="6.18453">
        <ele>1550.26</ele>
        <time>2019-03-28T07:28:25Z</time>
      </trkpt>
      <trkpt lat="45.27901" lon="6.18455">
        <ele>1552.67</ele>
        <time>2019-03-28T07:28:40Z</time>
      </trkpt>
      <trkpt lat="45.2791" lon="6.18457">
        <ele>1554.59</ele>
        <time>2019-03-28T07:28:54Z</time>
      </trkpt>
      <trkpt lat="45.27911" lon="6.18448">
        <ele>1556.03</ele>
        <time>2019-03-28T07:29:06Z</time>
      </trkpt>
      <trkpt lat="45.2791" lon="6.18444">
        <ele>1557.47</ele>
        <time>2019-03-28T07:29:13Z</time>
      </trkpt>
      <trkpt lat="45.27904" lon="6.18428">
        <ele>1558.92</ele>
        <time>2019-03-28T07:29:27Z</time>
      </trkpt>
      <trkpt lat="45.27905" lon="6.18422">
        <ele>1561.32</ele>
        <time>2019-03-28T07:29:39Z</time>
      </trkpt>
      <trkpt lat="45.27906" lon="6.18415">
        <ele>1562.76</ele>
        <time>2019-03-28T07:29:45Z</time>
      </trkpt>
      <trkpt lat="45.27908" lon="6.1841">
        <ele>1564.2</ele>
        <time>2019-03-28T07:29:59Z</time>
      </trkpt>
      <trkpt lat="45.27913" lon="6.18414">
        <ele>1566.12</ele>
        <time>2019-03-28T07:30:11Z</time>
      </trkpt>
      <trkpt lat="45.27919" lon="6.18416">
        <ele>1568.05</ele>
        <time>2019-03-28T07:30:23Z</time>
      </trkpt>
      <trkpt lat="45.27924" lon="6.18415">
        <ele>1569.97</ele>
        <time>2019-03-28T07:30:34Z</time>
      </trkpt>
      <trkpt lat="45.27928" lon="6.18413">
        <ele>1571.41</ele>
        <time>2019-03-28T07:30:46Z</time>
      </trkpt>
      <trkpt lat="45.2793" lon="6.1841">
        <ele>1571.89</ele>
        <time>2019-03-28T07:30:49Z</time>
      </trkpt>
      <trkpt lat="45.27935" lon="6.18395">
        <ele>1572.85</ele>
        <time>2019-03-28T07:31:03Z</time>
      </trkpt>
      <trkpt lat="45.27939" lon="6.18385">
        <ele>1574.78</ele>
        <time>2019-03-28T07:31:16Z</time>
      </trkpt>
      <trkpt lat="45.27946" lon="6.18389">
        <ele>1576.7</ele>
        <time>2019-03-28T07:31:28Z</time>
      </trkpt>
      <trkpt lat="45.2795" lon="6.18382">
        <ele>1578.62</ele>
        <time>2019-03-28T07:31:41Z</time>
      </trkpt>
      <trkpt lat="45.27953" lon="6.18369">
        <ele>1580.54</ele>
        <time>2019-03-28T07:31:55Z</time>
      </trkpt>
      <trkpt lat="45.27955" lon="6.18362">
        <ele>1582.95</ele>
        <time>2019-03-28T07:32:07Z</time>
      </trkpt>
      <trkpt lat="45.2796" lon="6.18349">
        <ele>1584.39</ele>
        <time>2019-03-28T07:32:18Z</time>
      </trkpt>
      <trkpt lat="45.27964" lon="6.18336">
        <ele>1584.87</ele>
        <time>2019-03-28T07:32:31Z</time>
      </trkpt>
      <trkpt lat="45.27968" lon="6.18332">
        <ele>1584.39</ele>
        <time>2019-03-28T07:33:01Z</time>
      </trkpt>
      <trkpt lat="45.27967" lon="6.18337">
        <ele>1584.39</ele>
        <time>2019-03-28T07:33:35Z</time>
      </trkpt>
      <trkpt lat="45.27969" lon="6.18322">
        <ele>1585.83</ele>
        <time>2019-03-28T07:34:00Z</time>
      </trkpt>
      <trkpt lat="45.27972" lon="6.18314">
        <ele>1586.31</ele>
        <time>2019-03-28T07:34:13Z</time>
      </trkpt>
      <trkpt lat="45.27976" lon="6.18311">
        <ele>1586.79</ele>
        <time>2019-03-28T07:34:28Z</time>
      </trkpt>
      <trkpt lat="45.27977" lon="6.1831">
        <ele>1586.79</ele>
        <time>2019-03-28T07:34:56Z</time>
      </trkpt>
      <trkpt lat="45.27976" lon="6.18309">
        <ele>1586.31</ele>
        <time>2019-03-28T07:35:22Z</time>
      </trkpt>
      <trkpt lat="45.27977" lon="6.18308">
        <ele>1586.31</ele>
        <time>2019-03-28T07:35:47Z</time>
      </trkpt>
      <trkpt lat="45.2798" lon="6.18307">
        <ele>1586.31</ele>
        <time>2019-03-28T07:36:15Z</time>
      </trkpt>
      <trkpt lat="45.27981" lon="6.18307">
        <ele>1586.31</ele>
        <time>2019-03-28T07:36:38Z</time>
      </trkpt>
      <trkpt lat="45.27983" lon="6.18298">
        <ele>1587.27</ele>
        <time>2019-03-28T07:36:53Z</time>
      </trkpt>
      <trkpt lat="45.27986" lon="6.18292">
        <ele>1587.75</ele>
        <time>2019-03-28T07:37:02Z</time>
      </trkpt>
      <trkpt lat="45.2799" lon="6.18283">
        <ele>1587.27</ele>
        <time>2019-03-28T07:37:18Z</time>
      </trkpt>
      <trkpt lat="45.27998" lon="6.18264">
        <ele>1586.79</ele>
        <time>2019-03-28T07:37:32Z</time>
      </trkpt>
      <trkpt lat="45.28003" lon="6.18248">
        <ele>1588.72</ele>
        <time>2019-03-28T07:37:45Z</time>
      </trkpt>
      <trkpt lat="45.28005" lon="6.18239">
        <ele>1589.68</ele>
        <time>2019-03-28T07:37:57Z</time>
      </trkpt>
      <trkpt lat="45.28004" lon="6.18231">
        <ele>1591.6</ele>
        <time>2019-03-28T07:38:10Z</time>
      </trkpt>
      <trkpt lat="45.28004" lon="6.18227">
        <ele>1592.08</ele>
        <time>2019-03-28T07:38:16Z</time>
      </trkpt>
      <trkpt lat="45.28001" lon="6.18217">
        <ele>1592.56</ele>
        <time>2019-03-28T07:38:25Z</time>
      </trkpt>
      <trkpt lat="45.27996" lon="6.18208">
        <ele>1594</ele>
        <time>2019-03-28T07:38:39Z</time>
      </trkpt>
      <trkpt lat="45.27989" lon="6.18194">
        <ele>1595.93</ele>
        <time>2019-03-28T07:38:53Z</time>
      </trkpt>
      <trkpt lat="45.27987" lon="6.18184">
        <ele>1596.89</ele>
        <time>2019-03-28T07:39:03Z</time>
      </trkpt>
      <trkpt lat="45.27985" lon="6.18169">
        <ele>1599.29</ele>
        <time>2019-03-28T07:39:17Z</time>
      </trkpt>
      <trkpt lat="45.27985" lon="6.18155">
        <ele>1600.73</ele>
        <time>2019-03-28T07:39:30Z</time>
      </trkpt>
      <trkpt lat="45.27986" lon="6.18147">
        <ele>1601.21</ele>
        <time>2019-03-28T07:39:38Z</time>
      </trkpt>
      <trkpt lat="45.27988" lon="6.1813">
        <ele>1602.66</ele>
        <time>2019-03-28T07:39:50Z</time>
      </trkpt>
      <trkpt lat="45.2799" lon="6.18115">
        <ele>1603.14</ele>
        <time>2019-03-28T07:40:02Z</time>
      </trkpt>
      <trkpt lat="45.27989" lon="6.18099">
        <ele>1604.58</ele>
        <time>2019-03-28T07:40:16Z</time>
      </trkpt>
      <trkpt lat="45.27989" lon="6.18098">
        <ele>1605.06</ele>
        <time>2019-03-28T07:40:17Z</time>
      </trkpt>
      <trkpt lat="45.27987" lon="6.18084">
        <ele>1607.46</ele>
        <time>2019-03-28T07:40:31Z</time>
      </trkpt>
      <trkpt lat="45.27987" lon="6.18069">
        <ele>1608.42</ele>
        <time>2019-03-28T07:40:44Z</time>
      </trkpt>
      <trkpt lat="45.27985" lon="6.18055">
        <ele>1610.83</ele>
        <time>2019-03-28T07:40:58Z</time>
      </trkpt>
      <trkpt lat="45.27983" lon="6.1804">
        <ele>1612.75</ele>
        <time>2019-03-28T07:41:12Z</time>
      </trkpt>
      <trkpt lat="45.27982" lon="6.18025">
        <ele>1614.19</ele>
        <time>2019-03-28T07:41:26Z</time>
      </trkpt>
      <trkpt lat="45.2798" lon="6.1801">
        <ele>1616.11</ele>
        <time>2019-03-28T07:41:39Z</time>
      </trkpt>
      <trkpt lat="45.27979" lon="6.17997">
        <ele>1617.56</ele>
        <time>2019-03-28T07:41:51Z</time>
      </trkpt>
      <trkpt lat="45.27978" lon="6.17982">
        <ele>1619</ele>
        <time>2019-03-28T07:42:04Z</time>
      </trkpt>
      <trkpt lat="45.27979" lon="6.17965">
        <ele>1621.4</ele>
        <time>2019-03-28T07:42:18Z</time>
      </trkpt>
      <trkpt lat="45.2798" lon="6.17949">
        <ele>1621.88</ele>
        <time>2019-03-28T07:42:31Z</time>
      </trkpt>
      <trkpt lat="45.2798" lon="6.17943">
        <ele>1622.84</ele>
        <time>2019-03-28T07:42:38Z</time>
      </trkpt>
      <trkpt lat="45.2798" lon="6.17923">
        <ele>1625.25</ele>
        <time>2019-03-28T07:42:54Z</time>
      </trkpt>
      <trkpt lat="45.27982" lon="6.17907">
        <ele>1626.69</ele>
        <time>2019-03-28T07:43:08Z</time>
      </trkpt>
      <trkpt lat="45.27983" lon="6.1789">
        <ele>1628.13</ele>
        <time>2019-03-28T07:43:21Z</time>
      </trkpt>
      <trkpt lat="45.27985" lon="6.17871">
        <ele>1629.09</ele>
        <time>2019-03-28T07:43:36Z</time>
      </trkpt>
      <trkpt lat="45.27986" lon="6.17855">
        <ele>1630.53</ele>
        <time>2019-03-28T07:43:49Z</time>
      </trkpt>
      <trkpt lat="45.27987" lon="6.17836">
        <ele>1631.49</ele>
        <time>2019-03-28T07:44:03Z</time>
      </trkpt>
      <trkpt lat="45.27988" lon="6.17832">
        <ele>1631.49</ele>
        <time>2019-03-28T07:44:06Z</time>
      </trkpt>
      <trkpt lat="45.27988" lon="6.17812">
        <ele>1633.9</ele>
        <time>2019-03-28T07:44:22Z</time>
      </trkpt>
      <trkpt lat="45.27988" lon="6.17797">
        <ele>1635.82</ele>
        <time>2019-03-28T07:44:35Z</time>
      </trkpt>
      <trkpt lat="45.27989" lon="6.1778">
        <ele>1637.74</ele>
        <time>2019-03-28T07:44:47Z</time>
      </trkpt>
      <trkpt lat="45.27991" lon="6.17766">
        <ele>1639.19</ele>
        <time>2019-03-28T07:45:00Z</time>
      </trkpt>
      <trkpt lat="45.27992" lon="6.17749">
        <ele>1641.11</ele>
        <time>2019-03-28T07:45:14Z</time>
      </trkpt>
      <trkpt lat="45.27993" lon="6.17735">
        <ele>1643.51</ele>
        <time>2019-03-28T07:45:27Z</time>
      </trkpt>
      <trkpt lat="45.27993" lon="6.1772">
        <ele>1645.91</ele>
        <time>2019-03-28T07:45:41Z</time>
      </trkpt>
      <trkpt lat="45.27997" lon="6.17716">
        <ele>1647.36</ele>
        <time>2019-03-28T07:45:49Z</time>
      </trkpt>
      <trkpt lat="45.28007" lon="6.1771">
        <ele>1649.76</ele>
        <time>2019-03-28T07:46:05Z</time>
      </trkpt>
      <trkpt lat="45.28008" lon="6.17708">
        <ele>1650.72</ele>
        <time>2019-03-28T07:46:08Z</time>
      </trkpt>
      <trkpt lat="45.28008" lon="6.17694">
        <ele>1652.16</ele>
        <time>2019-03-28T07:46:22Z</time>
      </trkpt>
      <trkpt lat="45.28013" lon="6.1768">
        <ele>1654.09</ele>
        <time>2019-03-28T07:46:37Z</time>
      </trkpt>
      <trkpt lat="45.28015" lon="6.17667">
        <ele>1656.49</ele>
        <time>2019-03-28T07:46:51Z</time>
      </trkpt>
      <trkpt lat="45.28015" lon="6.17654">
        <ele>1658.89</ele>
        <time>2019-03-28T07:47:06Z</time>
      </trkpt>
      <trkpt lat="45.28018" lon="6.17643">
        <ele>1660.81</ele>
        <time>2019-03-28T07:47:19Z</time>
      </trkpt>
      <trkpt lat="45.2802" lon="6.17633">
        <ele>1662.26</ele>
        <time>2019-03-28T07:47:30Z</time>
      </trkpt>
      <trkpt lat="45.28023" lon="6.17622">
        <ele>1663.7</ele>
        <time>2019-03-28T07:47:43Z</time>
      </trkpt>
      <trkpt lat="45.28022" lon="6.17603">
        <ele>1665.14</ele>
        <time>2019-03-28T07:47:57Z</time>
      </trkpt>
      <trkpt lat="45.28025" lon="6.1758">
        <ele>1666.1</ele>
        <time>2019-03-28T07:48:14Z</time>
      </trkpt>
      <trkpt lat="45.28027" lon="6.17563">
        <ele>1667.54</ele>
        <time>2019-03-28T07:48:28Z</time>
      </trkpt>
      <trkpt lat="45.28028" lon="6.17548">
        <ele>1668.51</ele>
        <time>2019-03-28T07:48:40Z</time>
      </trkpt>
      <trkpt lat="45.2803" lon="6.17535">
        <ele>1670.91</ele>
        <time>2019-03-28T07:48:53Z</time>
      </trkpt>
      <trkpt lat="45.2803" lon="6.17521">
        <ele>1672.83</ele>
        <time>2019-03-28T07:49:06Z</time>
      </trkpt>
      <trkpt lat="45.28029" lon="6.17508">
        <ele>1674.27</ele>
        <time>2019-03-28T07:49:19Z</time>
      </trkpt>
      <trkpt lat="45.28029" lon="6.17506">
        <ele>1674.75</ele>
        <time>2019-03-28T07:49:21Z</time>
      </trkpt>
      <trkpt lat="45.2803" lon="6.1749">
        <ele>1675.72</ele>
        <time>2019-03-28T07:49:34Z</time>
      </trkpt>
      <trkpt lat="45.28031" lon="6.17481">
        <ele>1676.68</ele>
        <time>2019-03-28T07:49:49Z</time>
      </trkpt>
      <trkpt lat="45.28028" lon="6.17471">
        <ele>1678.12</ele>
        <time>2019-03-28T07:50:02Z</time>
      </trkpt>
      <trkpt lat="45.28028" lon="6.17456">
        <ele>1679.08</ele>
        <time>2019-03-28T07:50:14Z</time>
      </trkpt>
      <trkpt lat="45.28027" lon="6.17438">
        <ele>1680.52</ele>
        <time>2019-03-28T07:50:29Z</time>
      </trkpt>
      <trkpt lat="45.28027" lon="6.17437">
        <ele>1680.52</ele>
        <time>2019-03-28T07:50:30Z</time>
      </trkpt>
      <trkpt lat="45.28024" lon="6.17418">
        <ele>1681.96</ele>
        <time>2019-03-28T07:50:45Z</time>
      </trkpt>
      <trkpt lat="45.28018" lon="6.17401">
        <ele>1683.89</ele>
        <time>2019-03-28T07:51:01Z</time>
      </trkpt>
      <trkpt lat="45.28016" lon="6.17384">
        <ele>1686.77</ele>
        <time>2019-03-28T07:51:17Z</time>
      </trkpt>
      <trkpt lat="45.28013" lon="6.1737">
        <ele>1689.17</ele>
        <time>2019-03-28T07:51:32Z</time>
      </trkpt>
      <trkpt lat="45.2801" lon="6.17352">
        <ele>1692.06</ele>
        <time>2019-03-28T07:51:49Z</time>
      </trkpt>
      <trkpt lat="45.28007" lon="6.17335">
        <ele>1693.98</ele>
        <time>2019-03-28T07:52:03Z</time>
      </trkpt>
      <trkpt lat="45.28009" lon="6.17321">
        <ele>1695.9</ele>
        <time>2019-03-28T07:52:16Z</time>
      </trkpt>
      <trkpt lat="45.28009" lon="6.17304">
        <ele>1698.31</ele>
        <time>2019-03-28T07:52:32Z</time>
      </trkpt>
      <trkpt lat="45.28009" lon="6.17291">
        <ele>1700.71</ele>
        <time>2019-03-28T07:52:47Z</time>
      </trkpt>
      <trkpt lat="45.2801" lon="6.17277">
        <ele>1702.15</ele>
        <time>2019-03-28T07:53:00Z</time>
      </trkpt>
      <trkpt lat="45.28011" lon="6.17261">
        <ele>1704.07</ele>
        <time>2019-03-28T07:53:14Z</time>
      </trkpt>
      <trkpt lat="45.2801" lon="6.17246">
        <ele>1706.48</ele>
        <time>2019-03-28T07:53:29Z</time>
      </trkpt>
      <trkpt lat="45.28012" lon="6.17234">
        <ele>1707.44</ele>
        <time>2019-03-28T07:53:42Z</time>
      </trkpt>
      <trkpt lat="45.28012" lon="6.1723">
        <ele>1707.44</ele>
        <time>2019-03-28T07:54:03Z</time>
      </trkpt>
      <trkpt lat="45.28012" lon="6.17213">
        <ele>1708.4</ele>
        <time>2019-03-28T07:54:16Z</time>
      </trkpt>
      <trkpt lat="45.28015" lon="6.17195">
        <ele>1709.36</ele>
        <time>2019-03-28T07:54:30Z</time>
      </trkpt>
      <trkpt lat="45.28016" lon="6.17188">
        <ele>1710.32</ele>
        <time>2019-03-28T07:54:36Z</time>
      </trkpt>
      <trkpt lat="45.28018" lon="6.17168">
        <ele>1712.25</ele>
        <time>2019-03-28T07:54:51Z</time>
      </trkpt>
      <trkpt lat="45.28019" lon="6.17158">
        <ele>1713.21</ele>
        <time>2019-03-28T07:54:58Z</time>
      </trkpt>
      <trkpt lat="45.28021" lon="6.17142">
        <ele>1714.17</ele>
        <time>2019-03-28T07:55:11Z</time>
      </trkpt>
      <trkpt lat="45.28026" lon="6.17127">
        <ele>1715.13</ele>
        <time>2019-03-28T07:55:23Z</time>
      </trkpt>
      <trkpt lat="45.28027" lon="6.17111">
        <ele>1716.09</ele>
        <time>2019-03-28T07:55:35Z</time>
      </trkpt>
      <trkpt lat="45.28027" lon="6.17092">
        <ele>1717.05</ele>
        <time>2019-03-28T07:55:50Z</time>
      </trkpt>
      <trkpt lat="45.28025" lon="6.17076">
        <ele>1718.49</ele>
        <time>2019-03-28T07:56:03Z</time>
      </trkpt>
      <trkpt lat="45.28024" lon="6.17067">
        <ele>1718.49</ele>
        <time>2019-03-28T07:56:10Z</time>
      </trkpt>
      <trkpt lat="45.28021" lon="6.17049">
        <ele>1720.42</ele>
        <time>2019-03-28T07:56:26Z</time>
      </trkpt>
      <trkpt lat="45.28021" lon="6.17032">
        <ele>1721.86</ele>
        <time>2019-03-28T07:56:41Z</time>
      </trkpt>
      <trkpt lat="45.2802" lon="6.17027">
        <ele>1721.86</ele>
        <time>2019-03-28T07:56:45Z</time>
      </trkpt>
      <trkpt lat="45.28019" lon="6.17024">
        <ele>1722.34</ele>
        <time>2019-03-28T07:56:48Z</time>
      </trkpt>
      <trkpt lat="45.28015" lon="6.17001">
        <ele>1723.3</ele>
        <time>2019-03-28T07:57:05Z</time>
      </trkpt>
      <trkpt lat="45.28012" lon="6.16983">
        <ele>1725.22</ele>
        <time>2019-03-28T07:57:20Z</time>
      </trkpt>
      <trkpt lat="45.28008" lon="6.16967">
        <ele>1725.7</ele>
        <time>2019-03-28T07:57:33Z</time>
      </trkpt>
      <trkpt lat="45.28006" lon="6.16953">
        <ele>1726.18</ele>
        <time>2019-03-28T07:57:45Z</time>
      </trkpt>
      <trkpt lat="45.28005" lon="6.16947">
        <ele>1726.67</ele>
        <time>2019-03-28T07:57:49Z</time>
      </trkpt>
      <trkpt lat="45.28002" lon="6.16924">
        <ele>1728.11</ele>
        <time>2019-03-28T07:58:07Z</time>
      </trkpt>
      <trkpt lat="45.28" lon="6.16904">
        <ele>1728.59</ele>
        <time>2019-03-28T07:58:20Z</time>
      </trkpt>
      <trkpt lat="45.28" lon="6.16885">
        <ele>1729.07</ele>
        <time>2019-03-28T07:58:33Z</time>
      </trkpt>
      <trkpt lat="45.28002" lon="6.16867">
        <ele>1730.03</ele>
        <time>2019-03-28T07:58:46Z</time>
      </trkpt>
      <trkpt lat="45.28002" lon="6.16848">
        <ele>1730.99</ele>
        <time>2019-03-28T07:59:00Z</time>
      </trkpt>
      <trkpt lat="45.28002" lon="6.16841">
        <ele>1731.47</ele>
        <time>2019-03-28T07:59:05Z</time>
      </trkpt>
      <trkpt lat="45.28002" lon="6.16822">
        <ele>1731.47</ele>
        <time>2019-03-28T07:59:18Z</time>
      </trkpt>
      <trkpt lat="45.28" lon="6.16803">
        <ele>1730.99</ele>
        <time>2019-03-28T07:59:31Z</time>
      </trkpt>
      <trkpt lat="45.28" lon="6.168">
        <ele>1730.99</ele>
        <time>2019-03-28T07:59:34Z</time>
      </trkpt>
      <trkpt lat="45.27998" lon="6.16789">
        <ele>1731.47</ele>
        <time>2019-03-28T07:59:41Z</time>
      </trkpt>
      <trkpt lat="45.27997" lon="6.16774">
        <ele>1732.91</ele>
        <time>2019-03-28T07:59:55Z</time>
      </trkpt>
      <trkpt lat="45.27995" lon="6.1676">
        <ele>1734.84</ele>
        <time>2019-03-28T08:00:08Z</time>
      </trkpt>
      <trkpt lat="45.27988" lon="6.16744">
        <ele>1735.32</ele>
        <time>2019-03-28T08:00:23Z</time>
      </trkpt>
      <trkpt lat="45.27983" lon="6.1673">
        <ele>1737.24</ele>
        <time>2019-03-28T08:00:37Z</time>
      </trkpt>
      <trkpt lat="45.2798" lon="6.16716">
        <ele>1739.16</ele>
        <time>2019-03-28T08:00:51Z</time>
      </trkpt>
      <trkpt lat="45.27976" lon="6.16701">
        <ele>1741.08</ele>
        <time>2019-03-28T08:01:05Z</time>
      </trkpt>
      <trkpt lat="45.27973" lon="6.16687">
        <ele>1743.01</ele>
        <time>2019-03-28T08:01:19Z</time>
      </trkpt>
      <trkpt lat="45.27967" lon="6.16676">
        <ele>1745.41</ele>
        <time>2019-03-28T08:01:34Z</time>
      </trkpt>
      <trkpt lat="45.27966" lon="6.1666">
        <ele>1747.81</ele>
        <time>2019-03-28T08:01:50Z</time>
      </trkpt>
      <trkpt lat="45.27968" lon="6.16646">
        <ele>1750.22</ele>
        <time>2019-03-28T08:02:04Z</time>
      </trkpt>
      <trkpt lat="45.27969" lon="6.16643">
        <ele>1750.7</ele>
        <time>2019-03-28T08:02:07Z</time>
      </trkpt>
      <trkpt lat="45.27971" lon="6.1663">
        <ele>1752.62</ele>
        <time>2019-03-28T08:02:21Z</time>
      </trkpt>
      <trkpt lat="45.27977" lon="6.16617">
        <ele>1753.58</ele>
        <time>2019-03-28T08:02:35Z</time>
      </trkpt>
      <trkpt lat="45.2798" lon="6.16604">
        <ele>1755.5</ele>
        <time>2019-03-28T08:02:49Z</time>
      </trkpt>
      <trkpt lat="45.27986" lon="6.16594">
        <ele>1756.95</ele>
        <time>2019-03-28T08:03:03Z</time>
      </trkpt>
      <trkpt lat="45.27983" lon="6.16578">
        <ele>1758.87</ele>
        <time>2019-03-28T08:03:18Z</time>
      </trkpt>
      <trkpt lat="45.27981" lon="6.16563">
        <ele>1760.31</ele>
        <time>2019-03-28T08:03:33Z</time>
      </trkpt>
      <trkpt lat="45.27981" lon="6.16549">
        <ele>1761.75</ele>
        <time>2019-03-28T08:03:45Z</time>
      </trkpt>
      <trkpt lat="45.2798" lon="6.16543">
        <ele>1763.2</ele>
        <time>2019-03-28T08:03:58Z</time>
      </trkpt>
      <trkpt lat="45.27981" lon="6.16543">
        <ele>1763.2</ele>
        <time>2019-03-28T08:04:23Z</time>
      </trkpt>
      <trkpt lat="45.27976" lon="6.16541">
        <ele>1761.75</ele>
        <time>2019-03-28T08:04:44Z</time>
      </trkpt>
      <trkpt lat="45.2798" lon="6.16541">
        <ele>1761.75</ele>
        <time>2019-03-28T08:05:14Z</time>
      </trkpt>
      <trkpt lat="45.27979" lon="6.16536">
        <ele>1761.75</ele>
        <time>2019-03-28T08:05:43Z</time>
      </trkpt>
      <trkpt lat="45.27978" lon="6.16538">
        <ele>1761.75</ele>
        <time>2019-03-28T08:06:19Z</time>
      </trkpt>
      <trkpt lat="45.27978" lon="6.16539">
        <ele>1761.75</ele>
        <time>2019-03-28T08:06:59Z</time>
      </trkpt>
      <trkpt lat="45.2798" lon="6.1654">
        <ele>1761.75</ele>
        <time>2019-03-28T08:07:24Z</time>
      </trkpt>
      <trkpt lat="45.27981" lon="6.1654">
        <ele>1761.75</ele>
        <time>2019-03-28T08:07:59Z</time>
      </trkpt>
      <trkpt lat="45.27985" lon="6.1654">
        <ele>1761.75</ele>
        <time>2019-03-28T08:08:40Z</time>
      </trkpt>
      <trkpt lat="45.27984" lon="6.16543">
        <ele>1758.39</ele>
        <time>2019-03-28T08:09:03Z</time>
      </trkpt>
      <trkpt lat="45.27984" lon="6.16544">
        <ele>1761.75</ele>
        <time>2019-03-28T08:09:05Z</time>
      </trkpt>
      <trkpt lat="45.27982" lon="6.16544">
        <ele>1762.71</ele>
        <time>2019-03-28T08:09:21Z</time>
      </trkpt>
      <trkpt lat="45.2798" lon="6.16547">
        <ele>1762.71</ele>
        <time>2019-03-28T08:09:42Z</time>
      </trkpt>
      <trkpt lat="45.27978" lon="6.16546">
        <ele>1762.71</ele>
        <time>2019-03-28T08:10:09Z</time>
      </trkpt>
      <trkpt lat="45.27978" lon="6.16548">
        <ele>1762.71</ele>
        <time>2019-03-28T08:10:24Z</time>
      </trkpt>
      <trkpt lat="45.27979" lon="6.16532">
        <ele>1764.16</ele>
        <time>2019-03-28T08:10:38Z</time>
      </trkpt>
      <trkpt lat="45.27977" lon="6.1652">
        <ele>1765.6</ele>
        <time>2019-03-28T08:10:52Z</time>
      </trkpt>
      <trkpt lat="45.27976" lon="6.16516">
        <ele>1766.56</ele>
        <time>2019-03-28T08:10:57Z</time>
      </trkpt>
      <trkpt lat="45.27973" lon="6.16502">
        <ele>1768</ele>
        <time>2019-03-28T08:11:12Z</time>
      </trkpt>
      <trkpt lat="45.27967" lon="6.16484">
        <ele>1769.44</ele>
        <time>2019-03-28T08:11:26Z</time>
      </trkpt>
      <trkpt lat="45.27957" lon="6.1647">
        <ele>1770.41</ele>
        <time>2019-03-28T08:11:39Z</time>
      </trkpt>
      <trkpt lat="45.2795" lon="6.16458">
        <ele>1771.37</ele>
        <time>2019-03-28T08:11:51Z</time>
      </trkpt>
      <trkpt lat="45.27938" lon="6.16445">
        <ele>1771.85</ele>
        <time>2019-03-28T08:12:05Z</time>
      </trkpt>
      <trkpt lat="45.2793" lon="6.16432">
        <ele>1772.81</ele>
        <time>2019-03-28T08:12:19Z</time>
      </trkpt>
      <trkpt lat="45.27922" lon="6.16417">
        <ele>1773.29</ele>
        <time>2019-03-28T08:12:34Z</time>
      </trkpt>
      <trkpt lat="45.27919" lon="6.16413">
        <ele>1774.25</ele>
        <time>2019-03-28T08:12:40Z</time>
      </trkpt>
      <trkpt lat="45.27911" lon="6.16394">
        <ele>1775.21</ele>
        <time>2019-03-28T08:12:55Z</time>
      </trkpt>
      <trkpt lat="45.27906" lon="6.1638">
        <ele>1776.65</ele>
        <time>2019-03-28T08:13:08Z</time>
      </trkpt>
      <trkpt lat="45.27906" lon="6.1637">
        <ele>1777.61</ele>
        <time>2019-03-28T08:13:21Z</time>
      </trkpt>
      <trkpt lat="45.27896" lon="6.16358">
        <ele>1779.06</ele>
        <time>2019-03-28T08:13:34Z</time>
      </trkpt>
      <trkpt lat="45.27891" lon="6.16346">
        <ele>1780.5</ele>
        <time>2019-03-28T08:13:48Z</time>
      </trkpt>
      <trkpt lat="45.27892" lon="6.16328">
        <ele>1782.42</ele>
        <time>2019-03-28T08:14:04Z</time>
      </trkpt>
      <trkpt lat="45.27892" lon="6.16315">
        <ele>1783.38</ele>
        <time>2019-03-28T08:14:15Z</time>
      </trkpt>
      <trkpt lat="45.27891" lon="6.16302">
        <ele>1786.27</ele>
        <time>2019-03-28T08:14:30Z</time>
      </trkpt>
      <trkpt lat="45.27884" lon="6.16292">
        <ele>1786.75</ele>
        <time>2019-03-28T08:14:44Z</time>
      </trkpt>
      <trkpt lat="45.27881" lon="6.16291">
        <ele>1787.23</ele>
        <time>2019-03-28T08:14:57Z</time>
      </trkpt>
      <trkpt lat="45.27875" lon="6.16288">
        <ele>1787.71</ele>
        <time>2019-03-28T08:15:10Z</time>
      </trkpt>
      <trkpt lat="45.27867" lon="6.16281">
        <ele>1789.63</ele>
        <time>2019-03-28T08:15:24Z</time>
      </trkpt>
      <trkpt lat="45.27859" lon="6.16272">
        <ele>1792.52</ele>
        <time>2019-03-28T08:15:40Z</time>
      </trkpt>
      <trkpt lat="45.27851" lon="6.16269">
        <ele>1794.92</ele>
        <time>2019-03-28T08:15:56Z</time>
      </trkpt>
      <trkpt lat="45.27841" lon="6.16265">
        <ele>1797.8</ele>
        <time>2019-03-28T08:16:11Z</time>
      </trkpt>
      <trkpt lat="45.27835" lon="6.16266">
        <ele>1799.73</ele>
        <time>2019-03-28T08:16:23Z</time>
      </trkpt>
      <trkpt lat="45.27833" lon="6.16257">
        <ele>1801.65</ele>
        <time>2019-03-28T08:16:38Z</time>
      </trkpt>
      <trkpt lat="45.27833" lon="6.16244">
        <ele>1804.05</ele>
        <time>2019-03-28T08:16:52Z</time>
      </trkpt>
      <trkpt lat="45.27825" lon="6.1624">
        <ele>1806.45</ele>
        <time>2019-03-28T08:17:05Z</time>
      </trkpt>
      <trkpt lat="45.27814" lon="6.16244">
        <ele>1809.34</ele>
        <time>2019-03-28T08:17:19Z</time>
      </trkpt>
      <trkpt lat="45.27808" lon="6.16246">
        <ele>1811.74</ele>
        <time>2019-03-28T08:17:33Z</time>
      </trkpt>
      <trkpt lat="45.2781" lon="6.16237">
        <ele>1813.66</ele>
        <time>2019-03-28T08:17:46Z</time>
      </trkpt>
      <trkpt lat="45.27809" lon="6.16225">
        <ele>1815.59</ele>
        <time>2019-03-28T08:17:58Z</time>
      </trkpt>
      <trkpt lat="45.2781" lon="6.16214">
        <ele>1817.99</ele>
        <time>2019-03-28T08:18:12Z</time>
      </trkpt>
      <trkpt lat="45.27813" lon="6.16198">
        <ele>1820.39</ele>
        <time>2019-03-28T08:18:29Z</time>
      </trkpt>
      <trkpt lat="45.27818" lon="6.16183">
        <ele>1822.8</ele>
        <time>2019-03-28T08:18:45Z</time>
      </trkpt>
      <trkpt lat="45.27815" lon="6.16169">
        <ele>1825.68</ele>
        <time>2019-03-28T08:19:00Z</time>
      </trkpt>
      <trkpt lat="45.27811" lon="6.16166">
        <ele>1826.16</ele>
        <time>2019-03-28T08:19:06Z</time>
      </trkpt>
      <trkpt lat="45.27801" lon="6.16162">
        <ele>1828.56</ele>
        <time>2019-03-28T08:19:19Z</time>
      </trkpt>
      <trkpt lat="45.27792" lon="6.16161">
        <ele>1830.97</ele>
        <time>2019-03-28T08:19:34Z</time>
      </trkpt>
      <trkpt lat="45.27782" lon="6.1616">
        <ele>1832.89</ele>
        <time>2019-03-28T08:19:47Z</time>
      </trkpt>
      <trkpt lat="45.27785" lon="6.1615">
        <ele>1834.81</ele>
        <time>2019-03-28T08:20:01Z</time>
      </trkpt>
      <trkpt lat="45.27785" lon="6.16133">
        <ele>1837.7</ele>
        <time>2019-03-28T08:20:16Z</time>
      </trkpt>
      <trkpt lat="45.27789" lon="6.16122">
        <ele>1840.58</ele>
        <time>2019-03-28T08:20:33Z</time>
      </trkpt>
      <trkpt lat="45.27786" lon="6.1611">
        <ele>1843.47</ele>
        <time>2019-03-28T08:20:49Z</time>
      </trkpt>
      <trkpt lat="45.27778" lon="6.16106">
        <ele>1845.39</ele>
        <time>2019-03-28T08:21:03Z</time>
      </trkpt>
      <trkpt lat="45.27774" lon="6.16098">
        <ele>1847.79</ele>
        <time>2019-03-28T08:21:16Z</time>
      </trkpt>
      <trkpt lat="45.27778" lon="6.1609">
        <ele>1850.19</ele>
        <time>2019-03-28T08:21:31Z</time>
      </trkpt>
      <trkpt lat="45.27784" lon="6.16083">
        <ele>1853.08</ele>
        <time>2019-03-28T08:21:47Z</time>
      </trkpt>
      <trkpt lat="45.2779" lon="6.1608">
        <ele>1855.48</ele>
        <time>2019-03-28T08:22:02Z</time>
      </trkpt>
      <trkpt lat="45.27796" lon="6.16079">
        <ele>1857.89</ele>
        <time>2019-03-28T08:22:15Z</time>
      </trkpt>
      <trkpt lat="45.27805" lon="6.16076">
        <ele>1860.77</ele>
        <time>2019-03-28T08:22:31Z</time>
      </trkpt>
      <trkpt lat="45.27812" lon="6.16072">
        <ele>1863.17</ele>
        <time>2019-03-28T08:22:47Z</time>
      </trkpt>
      <trkpt lat="45.27821" lon="6.16063">
        <ele>1866.06</ele>
        <time>2019-03-28T08:23:04Z</time>
      </trkpt>
      <trkpt lat="45.27823" lon="6.16053">
        <ele>1868.94</ele>
        <time>2019-03-28T08:23:18Z</time>
      </trkpt>
      <trkpt lat="45.27826" lon="6.16041">
        <ele>1871.82</ele>
        <time>2019-03-28T08:23:35Z</time>
      </trkpt>
      <trkpt lat="45.27827" lon="6.16031">
        <ele>1873.75</ele>
        <time>2019-03-28T08:23:51Z</time>
      </trkpt>
      <trkpt lat="45.27828" lon="6.16022">
        <ele>1874.23</ele>
        <time>2019-03-28T08:24:08Z</time>
      </trkpt>
      <trkpt lat="45.27832" lon="6.16013">
        <ele>1875.19</ele>
        <time>2019-03-28T08:24:31Z</time>
      </trkpt>
      <trkpt lat="45.27836" lon="6.15999">
        <ele>1878.07</ele>
        <time>2019-03-28T08:24:48Z</time>
      </trkpt>
      <trkpt lat="45.27837" lon="6.15986">
        <ele>1880.48</ele>
        <time>2019-03-28T08:25:03Z</time>
      </trkpt>
      <trkpt lat="45.27827" lon="6.15978">
        <ele>1882.88</ele>
        <time>2019-03-28T08:25:18Z</time>
      </trkpt>
      <trkpt lat="45.27817" lon="6.15975">
        <ele>1884.8</ele>
        <time>2019-03-28T08:25:32Z</time>
      </trkpt>
      <trkpt lat="45.27807" lon="6.15969">
        <ele>1887.21</ele>
        <time>2019-03-28T08:25:47Z</time>
      </trkpt>
      <trkpt lat="45.27799" lon="6.15966">
        <ele>1890.09</ele>
        <time>2019-03-28T08:26:03Z</time>
      </trkpt>
      <trkpt lat="45.27789" lon="6.1596">
        <ele>1892.49</ele>
        <time>2019-03-28T08:26:19Z</time>
      </trkpt>
      <trkpt lat="45.27782" lon="6.15958">
        <ele>1895.38</ele>
        <time>2019-03-28T08:26:36Z</time>
      </trkpt>
      <trkpt lat="45.27778" lon="6.15952">
        <ele>1897.78</ele>
        <time>2019-03-28T08:26:50Z</time>
      </trkpt>
      <trkpt lat="45.27777" lon="6.15942">
        <ele>1900.18</ele>
        <time>2019-03-28T08:27:06Z</time>
      </trkpt>
      <trkpt lat="45.27776" lon="6.1593">
        <ele>1902.59</ele>
        <time>2019-03-28T08:27:20Z</time>
      </trkpt>
      <trkpt lat="45.27777" lon="6.15918">
        <ele>1904.99</ele>
        <time>2019-03-28T08:27:34Z</time>
      </trkpt>
      <trkpt lat="45.27771" lon="6.15907">
        <ele>1907.87</ele>
        <time>2019-03-28T08:27:50Z</time>
      </trkpt>
      <trkpt lat="45.27764" lon="6.15899">
        <ele>1909.32</ele>
        <time>2019-03-28T08:28:04Z</time>
      </trkpt>
      <trkpt lat="45.27754" lon="6.15895">
        <ele>1912.2</ele>
        <time>2019-03-28T08:28:19Z</time>
      </trkpt>
      <trkpt lat="45.27753" lon="6.15887">
        <ele>1915.08</ele>
        <time>2019-03-28T08:28:35Z</time>
      </trkpt>
      <trkpt lat="45.27758" lon="6.15879">
        <ele>1917.01</ele>
        <time>2019-03-28T08:28:50Z</time>
      </trkpt>
      <trkpt lat="45.27764" lon="6.15869">
        <ele>1919.89</ele>
        <time>2019-03-28T08:29:06Z</time>
      </trkpt>
      <trkpt lat="45.2777" lon="6.15859">
        <ele>1922.77</ele>
        <time>2019-03-28T08:29:21Z</time>
      </trkpt>
      <trkpt lat="45.27761" lon="6.1585">
        <ele>1925.18</ele>
        <time>2019-03-28T08:29:38Z</time>
      </trkpt>
      <trkpt lat="45.27751" lon="6.15845">
        <ele>1928.54</ele>
        <time>2019-03-28T08:29:55Z</time>
      </trkpt>
      <trkpt lat="45.27742" lon="6.1584">
        <ele>1930.95</ele>
        <time>2019-03-28T08:30:12Z</time>
      </trkpt>
      <trkpt lat="45.27732" lon="6.15835">
        <ele>1933.83</ele>
        <time>2019-03-28T08:30:28Z</time>
      </trkpt>
      <trkpt lat="45.27724" lon="6.15832">
        <ele>1936.23</ele>
        <time>2019-03-28T08:30:44Z</time>
      </trkpt>
      <trkpt lat="45.27717" lon="6.1583">
        <ele>1938.64</ele>
        <time>2019-03-28T08:30:59Z</time>
      </trkpt>
      <trkpt lat="45.27721" lon="6.1582">
        <ele>1942</ele>
        <time>2019-03-28T08:31:16Z</time>
      </trkpt>
      <trkpt lat="45.27726" lon="6.15809">
        <ele>1944.4</ele>
        <time>2019-03-28T08:31:33Z</time>
      </trkpt>
      <trkpt lat="45.27729" lon="6.15794">
        <ele>1947.29</ele>
        <time>2019-03-28T08:31:50Z</time>
      </trkpt>
      <trkpt lat="45.27726" lon="6.15789">
        <ele>1949.69</ele>
        <time>2019-03-28T08:32:04Z</time>
      </trkpt>
      <trkpt lat="45.27719" lon="6.15785">
        <ele>1952.57</ele>
        <time>2019-03-28T08:32:21Z</time>
      </trkpt>
      <trkpt lat="45.27708" lon="6.15784">
        <ele>1955.46</ele>
        <time>2019-03-28T08:32:36Z</time>
      </trkpt>
      <trkpt lat="45.277" lon="6.15784">
        <ele>1957.86</ele>
        <time>2019-03-28T08:32:50Z</time>
      </trkpt>
      <trkpt lat="45.277" lon="6.15775">
        <ele>1960.75</ele>
        <time>2019-03-28T08:33:05Z</time>
      </trkpt>
      <trkpt lat="45.27702" lon="6.15763">
        <ele>1963.15</ele>
        <time>2019-03-28T08:33:20Z</time>
      </trkpt>
      <trkpt lat="45.27705" lon="6.15753">
        <ele>1965.55</ele>
        <time>2019-03-28T08:33:34Z</time>
      </trkpt>
      <trkpt lat="45.2771" lon="6.15742">
        <ele>1968.44</ele>
        <time>2019-03-28T08:33:50Z</time>
      </trkpt>
      <trkpt lat="45.27705" lon="6.15734">
        <ele>1970.84</ele>
        <time>2019-03-28T08:34:04Z</time>
      </trkpt>
      <trkpt lat="45.27698" lon="6.15732">
        <ele>1973.24</ele>
        <time>2019-03-28T08:34:20Z</time>
      </trkpt>
      <trkpt lat="45.27687" lon="6.15728">
        <ele>1976.61</ele>
        <time>2019-03-28T08:34:37Z</time>
      </trkpt>
      <trkpt lat="45.27679" lon="6.15723">
        <ele>1979.01</ele>
        <time>2019-03-28T08:34:51Z</time>
      </trkpt>
      <trkpt lat="45.27681" lon="6.15712">
        <ele>1981.41</ele>
        <time>2019-03-28T08:35:05Z</time>
      </trkpt>
      <trkpt lat="45.27685" lon="6.15703">
        <ele>1983.82</ele>
        <time>2019-03-28T08:35:22Z</time>
      </trkpt>
      <trkpt lat="45.27691" lon="6.1569">
        <ele>1986.7</ele>
        <time>2019-03-28T08:35:39Z</time>
      </trkpt>
      <trkpt lat="45.27688" lon="6.15681">
        <ele>1988.62</ele>
        <time>2019-03-28T08:35:51Z</time>
      </trkpt>
      <trkpt lat="45.27681" lon="6.15672">
        <ele>1991.51</ele>
        <time>2019-03-28T08:36:08Z</time>
      </trkpt>
      <trkpt lat="45.27673" lon="6.15669">
        <ele>1993.91</ele>
        <time>2019-03-28T08:36:23Z</time>
      </trkpt>
      <trkpt lat="45.27667" lon="6.15665">
        <ele>1996.32</ele>
        <time>2019-03-28T08:36:36Z</time>
      </trkpt>
      <trkpt lat="45.27668" lon="6.15654">
        <ele>1998.72</ele>
        <time>2019-03-28T08:36:51Z</time>
      </trkpt>
      <trkpt lat="45.2767" lon="6.15641">
        <ele>2001.12</ele>
        <time>2019-03-28T08:37:07Z</time>
      </trkpt>
      <trkpt lat="45.27675" lon="6.15631">
        <ele>2003.52</ele>
        <time>2019-03-28T08:37:21Z</time>
      </trkpt>
      <trkpt lat="45.27668" lon="6.15619">
        <ele>2006.41</ele>
        <time>2019-03-28T08:37:39Z</time>
      </trkpt>
      <trkpt lat="45.27662" lon="6.15615">
        <ele>2008.81</ele>
        <time>2019-03-28T08:37:54Z</time>
      </trkpt>
      <trkpt lat="45.2766" lon="6.1561">
        <ele>2009.77</ele>
        <time>2019-03-28T08:38:07Z</time>
      </trkpt>
      <trkpt lat="45.27662" lon="6.156">
        <ele>2012.66</ele>
        <time>2019-03-28T08:38:21Z</time>
      </trkpt>
      <trkpt lat="45.2767" lon="6.15592">
        <ele>2015.54</ele>
        <time>2019-03-28T08:38:37Z</time>
      </trkpt>
      <trkpt lat="45.27669" lon="6.15585">
        <ele>2017.46</ele>
        <time>2019-03-28T08:38:47Z</time>
      </trkpt>
      <trkpt lat="45.27664" lon="6.15575">
        <ele>2019.39</ele>
        <time>2019-03-28T08:39:04Z</time>
      </trkpt>
      <trkpt lat="45.27657" lon="6.15564">
        <ele>2021.79</ele>
        <time>2019-03-28T08:39:18Z</time>
      </trkpt>
      <trkpt lat="45.27654" lon="6.15556">
        <ele>2024.19</ele>
        <time>2019-03-28T08:39:33Z</time>
      </trkpt>
      <trkpt lat="45.27651" lon="6.15546">
        <ele>2027.08</ele>
        <time>2019-03-28T08:39:48Z</time>
      </trkpt>
      <trkpt lat="45.27649" lon="6.15534">
        <ele>2029.48</ele>
        <time>2019-03-28T08:40:04Z</time>
      </trkpt>
      <trkpt lat="45.27648" lon="6.15521">
        <ele>2031.88</ele>
        <time>2019-03-28T08:40:20Z</time>
      </trkpt>
      <trkpt lat="45.27648" lon="6.15508">
        <ele>2034.29</ele>
        <time>2019-03-28T08:40:36Z</time>
      </trkpt>
      <trkpt lat="45.27646" lon="6.15496">
        <ele>2037.17</ele>
        <time>2019-03-28T08:40:51Z</time>
      </trkpt>
      <trkpt lat="45.27644" lon="6.15481">
        <ele>2039.57</ele>
        <time>2019-03-28T08:41:09Z</time>
      </trkpt>
      <trkpt lat="45.27642" lon="6.15469">
        <ele>2041.98</ele>
        <time>2019-03-28T08:41:26Z</time>
      </trkpt>
      <trkpt lat="45.2764" lon="6.15453">
        <ele>2044.86</ele>
        <time>2019-03-28T08:41:44Z</time>
      </trkpt>
      <trkpt lat="45.27638" lon="6.15441">
        <ele>2046.78</ele>
        <time>2019-03-28T08:42:00Z</time>
      </trkpt>
      <trkpt lat="45.27637" lon="6.15424">
        <ele>2049.19</ele>
        <time>2019-03-28T08:42:18Z</time>
      </trkpt>
      <trkpt lat="45.27636" lon="6.15411">
        <ele>2051.11</ele>
        <time>2019-03-28T08:42:34Z</time>
      </trkpt>
      <trkpt lat="45.27635" lon="6.15399">
        <ele>2053.51</ele>
        <time>2019-03-28T08:42:48Z</time>
      </trkpt>
      <trkpt lat="45.27634" lon="6.15385">
        <ele>2056.4</ele>
        <time>2019-03-28T08:43:07Z</time>
      </trkpt>
      <trkpt lat="45.27634" lon="6.15374">
        <ele>2059.28</ele>
        <time>2019-03-28T08:43:24Z</time>
      </trkpt>
      <trkpt lat="45.27631" lon="6.15365">
        <ele>2060.24</ele>
        <time>2019-03-28T08:43:44Z</time>
      </trkpt>
      <trkpt lat="45.2763" lon="6.15355">
        <ele>2063.13</ele>
        <time>2019-03-28T08:43:59Z</time>
      </trkpt>
      <trkpt lat="45.27629" lon="6.15352">
        <ele>2066.01</ele>
        <time>2019-03-28T08:44:14Z</time>
      </trkpt>
      <trkpt lat="45.27631" lon="6.15342">
        <ele>2068.41</ele>
        <time>2019-03-28T08:44:30Z</time>
      </trkpt>
      <trkpt lat="45.27632" lon="6.15331">
        <ele>2070.34</ele>
        <time>2019-03-28T08:44:44Z</time>
      </trkpt>
      <trkpt lat="45.27629" lon="6.15325">
        <ele>2073.22</ele>
        <time>2019-03-28T08:45:00Z</time>
      </trkpt>
      <trkpt lat="45.27627" lon="6.15319">
        <ele>2075.62</ele>
        <time>2019-03-28T08:45:14Z</time>
      </trkpt>
      <trkpt lat="45.27629" lon="6.15311">
        <ele>2077.55</ele>
        <time>2019-03-28T08:45:29Z</time>
      </trkpt>
      <trkpt lat="45.27629" lon="6.15303">
        <ele>2079.47</ele>
        <time>2019-03-28T08:45:41Z</time>
      </trkpt>
      <trkpt lat="45.27626" lon="6.15294">
        <ele>2082.35</ele>
        <time>2019-03-28T08:45:57Z</time>
      </trkpt>
      <trkpt lat="45.27625" lon="6.15292">
        <ele>2083.31</ele>
        <time>2019-03-28T08:46:13Z</time>
      </trkpt>
      <trkpt lat="45.27625" lon="6.15281">
        <ele>2085.72</ele>
        <time>2019-03-28T08:46:29Z</time>
      </trkpt>
      <trkpt lat="45.27622" lon="6.15271">
        <ele>2088.6</ele>
        <time>2019-03-28T08:46:44Z</time>
      </trkpt>
      <trkpt lat="45.27622" lon="6.15262">
        <ele>2091</ele>
        <time>2019-03-28T08:47:00Z</time>
      </trkpt>
      <trkpt lat="45.27622" lon="6.1525">
        <ele>2093.41</ele>
        <time>2019-03-28T08:47:15Z</time>
      </trkpt>
      <trkpt lat="45.2762" lon="6.15244">
        <ele>2095.81</ele>
        <time>2019-03-28T08:47:29Z</time>
      </trkpt>
      <trkpt lat="45.27621" lon="6.15238">
        <ele>2098.21</ele>
        <time>2019-03-28T08:47:46Z</time>
      </trkpt>
      <trkpt lat="45.27621" lon="6.15227">
        <ele>2100.62</ele>
        <time>2019-03-28T08:48:00Z</time>
      </trkpt>
      <trkpt lat="45.27619" lon="6.15213">
        <ele>2102.54</ele>
        <time>2019-03-28T08:48:17Z</time>
      </trkpt>
      <trkpt lat="45.27618" lon="6.15201">
        <ele>2105.42</ele>
        <time>2019-03-28T08:48:34Z</time>
      </trkpt>
      <trkpt lat="45.27622" lon="6.15189">
        <ele>2107.83</ele>
        <time>2019-03-28T08:48:49Z</time>
      </trkpt>
      <trkpt lat="45.27619" lon="6.15176">
        <ele>2109.75</ele>
        <time>2019-03-28T08:49:05Z</time>
      </trkpt>
      <trkpt lat="45.27615" lon="6.15168">
        <ele>2111.67</ele>
        <time>2019-03-28T08:49:19Z</time>
      </trkpt>
      <trkpt lat="45.27614" lon="6.15161">
        <ele>2114.56</ele>
        <time>2019-03-28T08:49:33Z</time>
      </trkpt>
      <trkpt lat="45.27617" lon="6.15152">
        <ele>2116.48</ele>
        <time>2019-03-28T08:49:48Z</time>
      </trkpt>
      <trkpt lat="45.27618" lon="6.15146">
        <ele>2117.44</ele>
        <time>2019-03-28T08:50:06Z</time>
      </trkpt>
      <trkpt lat="45.27609" lon="6.15135">
        <ele>2119.84</ele>
        <time>2019-03-28T08:50:21Z</time>
      </trkpt>
      <trkpt lat="45.27608" lon="6.15127">
        <ele>2122.25</ele>
        <time>2019-03-28T08:50:36Z</time>
      </trkpt>
      <trkpt lat="45.27608" lon="6.15115">
        <ele>2124.65</ele>
        <time>2019-03-28T08:50:52Z</time>
      </trkpt>
      <trkpt lat="45.27606" lon="6.15102">
        <ele>2128.02</ele>
        <time>2019-03-28T08:51:11Z</time>
      </trkpt>
      <trkpt lat="45.27609" lon="6.15096">
        <ele>2128.98</ele>
        <time>2019-03-28T08:51:22Z</time>
      </trkpt>
      <trkpt lat="45.27609" lon="6.15082">
        <ele>2131.38</ele>
        <time>2019-03-28T08:51:37Z</time>
      </trkpt>
      <trkpt lat="45.27605" lon="6.15075">
        <ele>2132.82</ele>
        <time>2019-03-28T08:51:50Z</time>
      </trkpt>
      <trkpt lat="45.27608" lon="6.15068">
        <ele>2135.23</ele>
        <time>2019-03-28T08:52:04Z</time>
      </trkpt>
      <trkpt lat="45.27608" lon="6.15061">
        <ele>2138.11</ele>
        <time>2019-03-28T08:52:22Z</time>
      </trkpt>
      <trkpt lat="45.27604" lon="6.15056">
        <ele>2140.03</ele>
        <time>2019-03-28T08:52:35Z</time>
      </trkpt>
      <trkpt lat="45.27602" lon="6.15052">
        <ele>2140.99</ele>
        <time>2019-03-28T08:52:46Z</time>
      </trkpt>
      <trkpt lat="45.27604" lon="6.15048">
        <ele>2143.4</ele>
        <time>2019-03-28T08:52:59Z</time>
      </trkpt>
      <trkpt lat="45.27605" lon="6.1504">
        <ele>2146.28</ele>
        <time>2019-03-28T08:53:13Z</time>
      </trkpt>
      <trkpt lat="45.27601" lon="6.15027">
        <ele>2148.2</ele>
        <time>2019-03-28T08:53:28Z</time>
      </trkpt>
      <trkpt lat="45.27599" lon="6.15016">
        <ele>2150.61</ele>
        <time>2019-03-28T08:53:45Z</time>
      </trkpt>
      <trkpt lat="45.27598" lon="6.15003">
        <ele>2153.49</ele>
        <time>2019-03-28T08:54:03Z</time>
      </trkpt>
      <trkpt lat="45.27597" lon="6.14989">
        <ele>2155.89</ele>
        <time>2019-03-28T08:54:19Z</time>
      </trkpt>
      <trkpt lat="45.27599" lon="6.14975">
        <ele>2158.3</ele>
        <time>2019-03-28T08:54:37Z</time>
      </trkpt>
      <trkpt lat="45.276" lon="6.14966">
        <ele>2161.18</ele>
        <time>2019-03-28T08:54:54Z</time>
      </trkpt>
      <trkpt lat="45.27604" lon="6.14961">
        <ele>2163.58</ele>
        <time>2019-03-28T08:55:09Z</time>
      </trkpt>
      <trkpt lat="45.27607" lon="6.14959">
        <ele>2164.55</ele>
        <time>2019-03-28T08:55:22Z</time>
      </trkpt>
      <trkpt lat="45.27608" lon="6.14952">
        <ele>2165.51</ele>
        <time>2019-03-28T08:55:33Z</time>
      </trkpt>
      <trkpt lat="45.27603" lon="6.14943">
        <ele>2167.91</ele>
        <time>2019-03-28T08:55:49Z</time>
      </trkpt>
      <trkpt lat="45.27598" lon="6.14939">
        <ele>2168.87</ele>
        <time>2019-03-28T08:56:04Z</time>
      </trkpt>
      <trkpt lat="45.2759" lon="6.14937">
        <ele>2171.27</ele>
        <time>2019-03-28T08:56:17Z</time>
      </trkpt>
      <trkpt lat="45.27589" lon="6.1493">
        <ele>2173.2</ele>
        <time>2019-03-28T08:56:31Z</time>
      </trkpt>
      <trkpt lat="45.27588" lon="6.14915">
        <ele>2175.6</ele>
        <time>2019-03-28T08:56:48Z</time>
      </trkpt>
      <trkpt lat="45.27587" lon="6.14903">
        <ele>2177.52</ele>
        <time>2019-03-28T08:57:01Z</time>
      </trkpt>
      <trkpt lat="45.27587" lon="6.14892">
        <ele>2178.97</ele>
        <time>2019-03-28T08:57:15Z</time>
      </trkpt>
      <trkpt lat="45.27585" lon="6.14877">
        <ele>2180.41</ele>
        <time>2019-03-28T08:57:30Z</time>
      </trkpt>
      <trkpt lat="45.27584" lon="6.14864">
        <ele>2182.33</ele>
        <time>2019-03-28T08:57:44Z</time>
      </trkpt>
      <trkpt lat="45.27584" lon="6.1486">
        <ele>2183.29</ele>
        <time>2019-03-28T08:57:57Z</time>
      </trkpt>
      <trkpt lat="45.27584" lon="6.14856">
        <ele>2183.29</ele>
        <time>2019-03-28T08:58:04Z</time>
      </trkpt>
      <trkpt lat="45.27582" lon="6.14842">
        <ele>2185.69</ele>
        <time>2019-03-28T08:58:20Z</time>
      </trkpt>
      <trkpt lat="45.27583" lon="6.14832">
        <ele>2187.62</ele>
        <time>2019-03-28T08:58:34Z</time>
      </trkpt>
      <trkpt lat="45.27584" lon="6.1482">
        <ele>2190.02</ele>
        <time>2019-03-28T08:58:49Z</time>
      </trkpt>
      <trkpt lat="45.27587" lon="6.14802">
        <ele>2192.42</ele>
        <time>2019-03-28T08:59:07Z</time>
      </trkpt>
      <trkpt lat="45.27587" lon="6.14795">
        <ele>2193.39</ele>
        <time>2019-03-28T08:59:21Z</time>
      </trkpt>
      <trkpt lat="45.27587" lon="6.14785">
        <ele>2195.31</ele>
        <time>2019-03-28T08:59:34Z</time>
      </trkpt>
      <trkpt lat="45.27593" lon="6.14784">
        <ele>2197.23</ele>
        <time>2019-03-28T08:59:46Z</time>
      </trkpt>
      <trkpt lat="45.27594" lon="6.14774">
        <ele>2198.67</ele>
        <time>2019-03-28T09:00:00Z</time>
      </trkpt>
      <trkpt lat="45.27595" lon="6.14767">
        <ele>2201.56</ele>
        <time>2019-03-28T09:00:14Z</time>
      </trkpt>
      <trkpt lat="45.27596" lon="6.14759">
        <ele>2203.48</ele>
        <time>2019-03-28T09:00:29Z</time>
      </trkpt>
      <trkpt lat="45.27599" lon="6.14749">
        <ele>2205.4</ele>
        <time>2019-03-28T09:00:43Z</time>
      </trkpt>
      <trkpt lat="45.27599" lon="6.1474">
        <ele>2206.84</ele>
        <time>2019-03-28T09:00:54Z</time>
      </trkpt>
      <trkpt lat="45.27603" lon="6.14729">
        <ele>2208.77</ele>
        <time>2019-03-28T09:01:09Z</time>
      </trkpt>
      <trkpt lat="45.27606" lon="6.14719">
        <ele>2210.69</ele>
        <time>2019-03-28T09:01:23Z</time>
      </trkpt>
      <trkpt lat="45.27607" lon="6.14712">
        <ele>2212.61</ele>
        <time>2019-03-28T09:01:36Z</time>
      </trkpt>
      <trkpt lat="45.27605" lon="6.14701">
        <ele>2214.53</ele>
        <time>2019-03-28T09:01:49Z</time>
      </trkpt>
      <trkpt lat="45.27604" lon="6.14698">
        <ele>2215.5</ele>
        <time>2019-03-28T09:02:01Z</time>
      </trkpt>
      <trkpt lat="45.27603" lon="6.14695">
        <ele>2216.94</ele>
        <time>2019-03-28T09:02:11Z</time>
      </trkpt>
      <trkpt lat="45.27602" lon="6.14697">
        <ele>2216.94</ele>
        <time>2019-03-28T09:02:24Z</time>
      </trkpt>
      <trkpt lat="45.27606" lon="6.14697">
        <ele>2218.38</ele>
        <time>2019-03-28T09:02:36Z</time>
      </trkpt>
      <trkpt lat="45.27609" lon="6.14691">
        <ele>2220.3</ele>
        <time>2019-03-28T09:02:48Z</time>
      </trkpt>
      <trkpt lat="45.27608" lon="6.14677">
        <ele>2223.19</ele>
        <time>2019-03-28T09:03:07Z</time>
      </trkpt>
      <trkpt lat="45.27611" lon="6.14674">
        <ele>2225.11</ele>
        <time>2019-03-28T09:03:18Z</time>
      </trkpt>
      <trkpt lat="45.27613" lon="6.14674">
        <ele>2226.07</ele>
        <time>2019-03-28T09:03:31Z</time>
      </trkpt>
      <trkpt lat="45.27613" lon="6.14662">
        <ele>2227.99</ele>
        <time>2019-03-28T09:03:44Z</time>
      </trkpt>
      <trkpt lat="45.27611" lon="6.14649">
        <ele>2229.92</ele>
        <time>2019-03-28T09:04:01Z</time>
      </trkpt>
      <trkpt lat="45.27609" lon="6.1464">
        <ele>2231.84</ele>
        <time>2019-03-28T09:04:14Z</time>
      </trkpt>
      <trkpt lat="45.2761" lon="6.14637">
        <ele>2233.28</ele>
        <time>2019-03-28T09:04:24Z</time>
      </trkpt>
      <trkpt lat="45.27611" lon="6.14632">
        <ele>2234.24</ele>
        <time>2019-03-28T09:04:38Z</time>
      </trkpt>
      <trkpt lat="45.27613" lon="6.14617">
        <ele>2236.64</ele>
        <time>2019-03-28T09:04:51Z</time>
      </trkpt>
      <trkpt lat="45.27613" lon="6.14619">
        <ele>2236.64</ele>
        <time>2019-03-28T09:05:09Z</time>
      </trkpt>
      <trkpt lat="45.27614" lon="6.14619">
        <ele>2236.64</ele>
        <time>2019-03-28T09:05:31Z</time>
      </trkpt>
      <trkpt lat="45.27615" lon="6.14617">
        <ele>2235.68</ele>
        <time>2019-03-28T09:05:45Z</time>
      </trkpt>
      <trkpt lat="45.27614" lon="6.14613">
        <ele>2235.68</ele>
        <time>2019-03-28T09:06:20Z</time>
      </trkpt>
      <trkpt lat="45.27615" lon="6.14611">
        <ele>2235.68</ele>
        <time>2019-03-28T09:07:02Z</time>
      </trkpt>
      <trkpt lat="45.27616" lon="6.14613">
        <ele>2235.68</ele>
        <time>2019-03-28T09:07:39Z</time>
      </trkpt>
      <trkpt lat="45.27615" lon="6.14612">
        <ele>2235.68</ele>
        <time>2019-03-28T09:08:14Z</time>
      </trkpt>
      <trkpt lat="45.27615" lon="6.14613">
        <ele>2235.68</ele>
        <time>2019-03-28T09:08:55Z</time>
      </trkpt>
      <trkpt lat="45.27615" lon="6.14618">
        <ele>2235.68</ele>
        <time>2019-03-28T09:09:24Z</time>
      </trkpt>
      <trkpt lat="45.27608" lon="6.14615">
        <ele>2235.68</ele>
        <time>2019-03-28T09:10:04Z</time>
      </trkpt>
      <trkpt lat="45.27612" lon="6.14614">
        <ele>2235.68</ele>
        <time>2019-03-28T09:10:40Z</time>
      </trkpt>
      <trkpt lat="45.27611" lon="6.14615">
        <ele>2235.2</ele>
        <time>2019-03-28T09:11:16Z</time>
      </trkpt>
      <trkpt lat="45.27616" lon="6.14613">
        <ele>2235.2</ele>
        <time>2019-03-28T09:11:56Z</time>
      </trkpt>
      <trkpt lat="45.27623" lon="6.14611">
        <ele>2235.2</ele>
        <time>2019-03-28T09:12:35Z</time>
      </trkpt>
      <trkpt lat="45.27624" lon="6.14611">
        <ele>2235.2</ele>
        <time>2019-03-28T09:13:08Z</time>
      </trkpt>
      <trkpt lat="45.27618" lon="6.14611">
        <ele>2235.2</ele>
        <time>2019-03-28T09:13:38Z</time>
      </trkpt>
      <trkpt lat="45.27613" lon="6.14613">
        <ele>2235.2</ele>
        <time>2019-03-28T09:14:14Z</time>
      </trkpt>
      <trkpt lat="45.27615" lon="6.14613">
        <ele>2234.72</ele>
        <time>2019-03-28T09:14:48Z</time>
      </trkpt>
      <trkpt lat="45.27611" lon="6.14613">
        <ele>2235.68</ele>
        <time>2019-03-28T09:15:12Z</time>
      </trkpt>
      <trkpt lat="45.27611" lon="6.14615">
        <ele>2235.68</ele>
        <time>2019-03-28T09:15:42Z</time>
      </trkpt>
      <trkpt lat="45.27615" lon="6.14612">
        <ele>2236.64</ele>
        <time>2019-03-28T09:15:58Z</time>
      </trkpt>
      <trkpt lat="45.27615" lon="6.14601">
        <ele>2238.57</ele>
        <time>2019-03-28T09:16:10Z</time>
      </trkpt>
      <trkpt lat="45.27615" lon="6.14594">
        <ele>2240.49</ele>
        <time>2019-03-28T09:16:22Z</time>
      </trkpt>
      <trkpt lat="45.27615" lon="6.14582">
        <ele>2242.41</ele>
        <time>2019-03-28T09:16:36Z</time>
      </trkpt>
      <trkpt lat="45.27614" lon="6.14569">
        <ele>2245.3</ele>
        <time>2019-03-28T09:16:51Z</time>
      </trkpt>
      <trkpt lat="45.27615" lon="6.14557">
        <ele>2247.22</ele>
        <time>2019-03-28T09:17:07Z</time>
      </trkpt>
      <trkpt lat="45.27614" lon="6.14544">
        <ele>2249.14</ele>
        <time>2019-03-28T09:17:21Z</time>
      </trkpt>
      <trkpt lat="45.27613" lon="6.14534">
        <ele>2251.54</ele>
        <time>2019-03-28T09:17:37Z</time>
      </trkpt>
      <trkpt lat="45.27613" lon="6.14525">
        <ele>2253.47</ele>
        <time>2019-03-28T09:17:51Z</time>
      </trkpt>
      <trkpt lat="45.27612" lon="6.14516">
        <ele>2255.39</ele>
        <time>2019-03-28T09:18:05Z</time>
      </trkpt>
      <trkpt lat="45.27613" lon="6.14507">
        <ele>2257.31</ele>
        <time>2019-03-28T09:18:20Z</time>
      </trkpt>
      <trkpt lat="45.27615" lon="6.14496">
        <ele>2259.24</ele>
        <time>2019-03-28T09:18:36Z</time>
      </trkpt>
      <trkpt lat="45.27616" lon="6.1449">
        <ele>2261.64</ele>
        <time>2019-03-28T09:18:49Z</time>
      </trkpt>
      <trkpt lat="45.27619" lon="6.14478">
        <ele>2264.04</ele>
        <time>2019-03-28T09:19:06Z</time>
      </trkpt>
      <trkpt lat="45.27619" lon="6.14469">
        <ele>2265.96</ele>
        <time>2019-03-28T09:19:21Z</time>
      </trkpt>
      <trkpt lat="45.27621" lon="6.1446">
        <ele>2267.89</ele>
        <time>2019-03-28T09:19:36Z</time>
      </trkpt>
      <trkpt lat="45.27623" lon="6.14453">
        <ele>2270.29</ele>
        <time>2019-03-28T09:19:51Z</time>
      </trkpt>
      <trkpt lat="45.27627" lon="6.14447">
        <ele>2273.17</ele>
        <time>2019-03-28T09:20:06Z</time>
      </trkpt>
      <trkpt lat="45.27631" lon="6.14441">
        <ele>2275.1</ele>
        <time>2019-03-28T09:20:22Z</time>
      </trkpt>
      <trkpt lat="45.27637" lon="6.14431">
        <ele>2277.5</ele>
        <time>2019-03-28T09:20:39Z</time>
      </trkpt>
      <trkpt lat="45.27644" lon="6.14421">
        <ele>2279.42</ele>
        <time>2019-03-28T09:20:59Z</time>
      </trkpt>
      <trkpt lat="45.27651" lon="6.14412">
        <ele>2281.35</ele>
        <time>2019-03-28T09:21:15Z</time>
      </trkpt>
      <trkpt lat="45.27656" lon="6.14406">
        <ele>2283.27</ele>
        <time>2019-03-28T09:21:31Z</time>
      </trkpt>
      <trkpt lat="45.27663" lon="6.14404">
        <ele>2284.71</ele>
        <time>2019-03-28T09:21:47Z</time>
      </trkpt>
      <trkpt lat="45.27671" lon="6.14401">
        <ele>2286.63</ele>
        <time>2019-03-28T09:22:04Z</time>
      </trkpt>
      <trkpt lat="45.27677" lon="6.14398">
        <ele>2288.56</ele>
        <time>2019-03-28T09:22:21Z</time>
      </trkpt>
      <trkpt lat="45.27685" lon="6.14389">
        <ele>2290.48</ele>
        <time>2019-03-28T09:22:38Z</time>
      </trkpt>
      <trkpt lat="45.27689" lon="6.1438">
        <ele>2292.88</ele>
        <time>2019-03-28T09:22:55Z</time>
      </trkpt>
      <trkpt lat="45.27691" lon="6.14369">
        <ele>2294.8</ele>
        <time>2019-03-28T09:23:08Z</time>
      </trkpt>
      <trkpt lat="45.2769" lon="6.14357">
        <ele>2296.73</ele>
        <time>2019-03-28T09:23:23Z</time>
      </trkpt>
      <trkpt lat="45.2769" lon="6.1435">
        <ele>2298.65</ele>
        <time>2019-03-28T09:23:38Z</time>
      </trkpt>
      <trkpt lat="45.27692" lon="6.14341">
        <ele>2300.57</ele>
        <time>2019-03-28T09:23:52Z</time>
      </trkpt>
      <trkpt lat="45.27692" lon="6.1434">
        <ele>2302.01</ele>
        <time>2019-03-28T09:24:06Z</time>
      </trkpt>
      <trkpt lat="45.27696" lon="6.14344">
        <ele>2304.42</ele>
        <time>2019-03-28T09:24:21Z</time>
      </trkpt>
      <trkpt lat="45.277" lon="6.14349">
        <ele>2306.34</ele>
        <time>2019-03-28T09:24:35Z</time>
      </trkpt>
      <trkpt lat="45.27702" lon="6.14352">
        <ele>2306.82</ele>
        <time>2019-03-28T09:24:49Z</time>
      </trkpt>
      <trkpt lat="45.27705" lon="6.14344">
        <ele>2308.74</ele>
        <time>2019-03-28T09:25:02Z</time>
      </trkpt>
      <trkpt lat="45.27707" lon="6.14338">
        <ele>2311.15</ele>
        <time>2019-03-28T09:25:16Z</time>
      </trkpt>
      <trkpt lat="45.27707" lon="6.1433">
        <ele>2313.07</ele>
        <time>2019-03-28T09:25:32Z</time>
      </trkpt>
      <trkpt lat="45.27707" lon="6.1432">
        <ele>2315.47</ele>
        <time>2019-03-28T09:25:45Z</time>
      </trkpt>
      <trkpt lat="45.27708" lon="6.14319">
        <ele>2315.47</ele>
        <time>2019-03-28T09:25:57Z</time>
      </trkpt>
      <trkpt lat="45.27711" lon="6.1432">
        <ele>2317.4</ele>
        <time>2019-03-28T09:26:13Z</time>
      </trkpt>
      <trkpt lat="45.27714" lon="6.14322">
        <ele>2319.8</ele>
        <time>2019-03-28T09:26:26Z</time>
      </trkpt>
      <trkpt lat="45.27718" lon="6.1433">
        <ele>2321.72</ele>
        <time>2019-03-28T09:26:40Z</time>
      </trkpt>
      <trkpt lat="45.27719" lon="6.14332">
        <ele>2322.2</ele>
        <time>2019-03-28T09:26:43Z</time>
      </trkpt>
      <trkpt lat="45.27723" lon="6.14336">
        <ele>2323.16</ele>
        <time>2019-03-28T09:26:57Z</time>
      </trkpt>
      <trkpt lat="45.27727" lon="6.14333">
        <ele>2324.12</ele>
        <time>2019-03-28T09:27:09Z</time>
      </trkpt>
      <trkpt lat="45.27728" lon="6.14325">
        <ele>2326.53</ele>
        <time>2019-03-28T09:27:24Z</time>
      </trkpt>
      <trkpt lat="45.27729" lon="6.14315">
        <ele>2328.93</ele>
        <time>2019-03-28T09:27:38Z</time>
      </trkpt>
      <trkpt lat="45.27728" lon="6.14307">
        <ele>2330.37</ele>
        <time>2019-03-28T09:27:50Z</time>
      </trkpt>
      <trkpt lat="45.27726" lon="6.14299">
        <ele>2332.78</ele>
        <time>2019-03-28T09:28:05Z</time>
      </trkpt>
      <trkpt lat="45.27729" lon="6.143">
        <ele>2333.26</ele>
        <time>2019-03-28T09:28:22Z</time>
      </trkpt>
      <trkpt lat="45.27731" lon="6.14303">
        <ele>2334.7</ele>
        <time>2019-03-28T09:28:32Z</time>
      </trkpt>
      <trkpt lat="45.27732" lon="6.14308">
        <ele>2336.14</ele>
        <time>2019-03-28T09:28:46Z</time>
      </trkpt>
      <trkpt lat="45.27738" lon="6.14314">
        <ele>2337.58</ele>
        <time>2019-03-28T09:28:59Z</time>
      </trkpt>
      <trkpt lat="45.27742" lon="6.1432">
        <ele>2339.02</ele>
        <time>2019-03-28T09:29:11Z</time>
      </trkpt>
      <trkpt lat="45.27744" lon="6.14324">
        <ele>2340.47</ele>
        <time>2019-03-28T09:29:23Z</time>
      </trkpt>
      <trkpt lat="45.27746" lon="6.14327">
        <ele>2341.43</ele>
        <time>2019-03-28T09:29:37Z</time>
      </trkpt>
      <trkpt lat="45.27748" lon="6.14321">
        <ele>2342.87</ele>
        <time>2019-03-28T09:29:51Z</time>
      </trkpt>
      <trkpt lat="45.27749" lon="6.14314">
        <ele>2345.27</ele>
        <time>2019-03-28T09:30:07Z</time>
      </trkpt>
      <trkpt lat="45.27748" lon="6.14313">
        <ele>2345.75</ele>
        <time>2019-03-28T09:30:21Z</time>
      </trkpt>
      <trkpt lat="45.27749" lon="6.14314">
        <ele>2346.23</ele>
        <time>2019-03-28T09:30:41Z</time>
      </trkpt>
      <trkpt lat="45.27751" lon="6.14316">
        <ele>2348.16</ele>
        <time>2019-03-28T09:30:55Z</time>
      </trkpt>
      <trkpt lat="45.27753" lon="6.14321">
        <ele>2350.08</ele>
        <time>2019-03-28T09:31:08Z</time>
      </trkpt>
      <trkpt lat="45.27757" lon="6.14323">
        <ele>2350.08</ele>
        <time>2019-03-28T09:31:25Z</time>
      </trkpt>
      <trkpt lat="45.27758" lon="6.14318">
        <ele>2351.52</ele>
        <time>2019-03-28T09:31:36Z</time>
      </trkpt>
      <trkpt lat="45.2776" lon="6.14308">
        <ele>2353.93</ele>
        <time>2019-03-28T09:31:52Z</time>
      </trkpt>
      <trkpt lat="45.27758" lon="6.14305">
        <ele>2354.41</ele>
        <time>2019-03-28T09:32:06Z</time>
      </trkpt>
      <trkpt lat="45.2776" lon="6.14306">
        <ele>2355.37</ele>
        <time>2019-03-28T09:32:22Z</time>
      </trkpt>
      <trkpt lat="45.27764" lon="6.14313">
        <ele>2356.81</ele>
        <time>2019-03-28T09:32:34Z</time>
      </trkpt>
      <trkpt lat="45.27767" lon="6.14318">
        <ele>2358.73</ele>
        <time>2019-03-28T09:32:47Z</time>
      </trkpt>
      <trkpt lat="45.27769" lon="6.14317">
        <ele>2359.69</ele>
        <time>2019-03-28T09:33:02Z</time>
      </trkpt>
      <trkpt lat="45.2777" lon="6.14308">
        <ele>2362.1</ele>
        <time>2019-03-28T09:33:16Z</time>
      </trkpt>
      <trkpt lat="45.27769" lon="6.14306">
        <ele>2362.58</ele>
        <time>2019-03-28T09:33:28Z</time>
      </trkpt>
      <trkpt lat="45.27769" lon="6.14308">
        <ele>2363.06</ele>
        <time>2019-03-28T09:33:44Z</time>
      </trkpt>
      <trkpt lat="45.27773" lon="6.14311">
        <ele>2364.98</ele>
        <time>2019-03-28T09:33:59Z</time>
      </trkpt>
      <trkpt lat="45.27775" lon="6.14314">
        <ele>2366.9</ele>
        <time>2019-03-28T09:34:11Z</time>
      </trkpt>
      <trkpt lat="45.27777" lon="6.14317">
        <ele>2366.9</ele>
        <time>2019-03-28T09:34:28Z</time>
      </trkpt>
      <trkpt lat="45.2778" lon="6.1431">
        <ele>2369.31</ele>
        <time>2019-03-28T09:34:45Z</time>
      </trkpt>
      <trkpt lat="45.2778" lon="6.14301">
        <ele>2371.71</ele>
        <time>2019-03-28T09:34:59Z</time>
      </trkpt>
      <trkpt lat="45.27777" lon="6.14298">
        <ele>2372.19</ele>
        <time>2019-03-28T09:35:14Z</time>
      </trkpt>
      <trkpt lat="45.27778" lon="6.14299">
        <ele>2373.63</ele>
        <time>2019-03-28T09:35:27Z</time>
      </trkpt>
      <trkpt lat="45.27785" lon="6.14305">
        <ele>2375.55</ele>
        <time>2019-03-28T09:35:41Z</time>
      </trkpt>
      <trkpt lat="45.2779" lon="6.1431">
        <ele>2377.96</ele>
        <time>2019-03-28T09:35:56Z</time>
      </trkpt>
      <trkpt lat="45.2779" lon="6.14314">
        <ele>2379.4</ele>
        <time>2019-03-28T09:36:10Z</time>
      </trkpt>
      <trkpt lat="45.27793" lon="6.14318">
        <ele>2381.8</ele>
        <time>2019-03-28T09:36:23Z</time>
      </trkpt>
      <trkpt lat="45.27803" lon="6.1432">
        <ele>2383.73</ele>
        <time>2019-03-28T09:36:36Z</time>
      </trkpt>
      <trkpt lat="45.2781" lon="6.1432">
        <ele>2386.13</ele>
        <time>2019-03-28T09:36:54Z</time>
      </trkpt>
      <trkpt lat="45.27819" lon="6.14321">
        <ele>2388.53</ele>
        <time>2019-03-28T09:37:10Z</time>
      </trkpt>
      <trkpt lat="45.27825" lon="6.14324">
        <ele>2390.46</ele>
        <time>2019-03-28T09:37:24Z</time>
      </trkpt>
      <trkpt lat="45.27829" lon="6.14329">
        <ele>2392.38</ele>
        <time>2019-03-28T09:37:38Z</time>
      </trkpt>
      <trkpt lat="45.27834" lon="6.14334">
        <ele>2394.3</ele>
        <time>2019-03-28T09:37:53Z</time>
      </trkpt>
      <trkpt lat="45.27841" lon="6.14339">
        <ele>2396.22</ele>
        <time>2019-03-28T09:38:06Z</time>
      </trkpt>
      <trkpt lat="45.27844" lon="6.14345">
        <ele>2398.63</ele>
        <time>2019-03-28T09:38:23Z</time>
      </trkpt>
      <trkpt lat="45.27848" lon="6.1434">
        <ele>2400.55</ele>
        <time>2019-03-28T09:38:38Z</time>
      </trkpt>
      <trkpt lat="45.27848" lon="6.1433">
        <ele>2402.47</ele>
        <time>2019-03-28T09:38:53Z</time>
      </trkpt>
      <trkpt lat="45.27849" lon="6.14319">
        <ele>2405.36</ele>
        <time>2019-03-28T09:39:09Z</time>
      </trkpt>
      <trkpt lat="45.27852" lon="6.14309">
        <ele>2406.8</ele>
        <time>2019-03-28T09:39:22Z</time>
      </trkpt>
      <trkpt lat="45.27859" lon="6.14301">
        <ele>2409.2</ele>
        <time>2019-03-28T09:39:40Z</time>
      </trkpt>
      <trkpt lat="45.27865" lon="6.14297">
        <ele>2411.12</ele>
        <time>2019-03-28T09:39:55Z</time>
      </trkpt>
      <trkpt lat="45.27864" lon="6.14297">
        <ele>2411.12</ele>
        <time>2019-03-28T09:40:10Z</time>
      </trkpt>
      <trkpt lat="45.27866" lon="6.14303">
        <ele>2411.12</ele>
        <time>2019-03-28T09:40:33Z</time>
      </trkpt>
      <trkpt lat="45.27862" lon="6.14295">
        <ele>2410.16</ele>
        <time>2019-03-28T09:40:59Z</time>
      </trkpt>
      <trkpt lat="45.27866" lon="6.14296">
        <ele>2411.12</ele>
        <time>2019-03-28T09:41:24Z</time>
      </trkpt>
      <trkpt lat="45.27867" lon="6.14301">
        <ele>2410.64</ele>
        <time>2019-03-28T09:41:50Z</time>
      </trkpt>
      <trkpt lat="45.27867" lon="6.14303">
        <ele>2410.64</ele>
        <time>2019-03-28T09:42:28Z</time>
      </trkpt>
      <trkpt lat="45.27868" lon="6.14298">
        <ele>2411.12</ele>
        <time>2019-03-28T09:42:52Z</time>
      </trkpt>
      <trkpt lat="45.27865" lon="6.14301">
        <ele>2412.09</ele>
        <time>2019-03-28T09:43:13Z</time>
      </trkpt>
      <trkpt lat="45.27865" lon="6.14296">
        <ele>2411.6</ele>
        <time>2019-03-28T09:43:37Z</time>
      </trkpt>
      <trkpt lat="45.27869" lon="6.14295">
        <ele>2412.09</ele>
        <time>2019-03-28T09:44:03Z</time>
      </trkpt>
      <trkpt lat="45.27876" lon="6.14288">
        <ele>2414.49</ele>
        <time>2019-03-28T09:44:19Z</time>
      </trkpt>
      <trkpt lat="45.27885" lon="6.14287">
        <ele>2416.41</ele>
        <time>2019-03-28T09:44:34Z</time>
      </trkpt>
      <trkpt lat="45.27886" lon="6.14289">
        <ele>2417.37</ele>
        <time>2019-03-28T09:44:49Z</time>
      </trkpt>
      <trkpt lat="45.27896" lon="6.14283">
        <ele>2419.78</ele>
        <time>2019-03-28T09:45:03Z</time>
      </trkpt>
      <trkpt lat="45.27902" lon="6.14279">
        <ele>2422.66</ele>
        <time>2019-03-28T09:45:16Z</time>
      </trkpt>
      <trkpt lat="45.27907" lon="6.14269">
        <ele>2423.62</ele>
        <time>2019-03-28T09:45:30Z</time>
      </trkpt>
      <trkpt lat="45.27917" lon="6.14264">
        <ele>2426.02</ele>
        <time>2019-03-28T09:45:45Z</time>
      </trkpt>
      <trkpt lat="45.27925" lon="6.1426">
        <ele>2427.95</ele>
        <time>2019-03-28T09:45:59Z</time>
      </trkpt>
      <trkpt lat="45.27932" lon="6.14251">
        <ele>2429.87</ele>
        <time>2019-03-28T09:46:14Z</time>
      </trkpt>
      <trkpt lat="45.27939" lon="6.14246">
        <ele>2431.31</ele>
        <time>2019-03-28T09:46:27Z</time>
      </trkpt>
      <trkpt lat="45.27948" lon="6.14243">
        <ele>2433.23</ele>
        <time>2019-03-28T09:46:42Z</time>
      </trkpt>
      <trkpt lat="45.27956" lon="6.14245">
        <ele>2435.16</ele>
        <time>2019-03-28T09:46:59Z</time>
      </trkpt>
      <trkpt lat="45.2796" lon="6.14244">
        <ele>2434.68</ele>
        <time>2019-03-28T09:47:09Z</time>
      </trkpt>
      <trkpt lat="45.27964" lon="6.14234">
        <ele>2437.08</ele>
        <time>2019-03-28T09:47:25Z</time>
      </trkpt>
      <trkpt lat="45.27973" lon="6.14232">
        <ele>2439.48</ele>
        <time>2019-03-28T09:47:41Z</time>
      </trkpt>
      <trkpt lat="45.27981" lon="6.14225">
        <ele>2441.41</ele>
        <time>2019-03-28T09:48:01Z</time>
      </trkpt>
      <trkpt lat="45.27988" lon="6.1422">
        <ele>2443.81</ele>
        <time>2019-03-28T09:48:14Z</time>
      </trkpt>
      <trkpt lat="45.27997" lon="6.14219">
        <ele>2446.69</ele>
        <time>2019-03-28T09:48:31Z</time>
      </trkpt>
      <trkpt lat="45.2801" lon="6.14219">
        <ele>2448.62</ele>
        <time>2019-03-28T09:48:47Z</time>
      </trkpt>
      <trkpt lat="45.28021" lon="6.14211">
        <ele>2451.02</ele>
        <time>2019-03-28T09:49:05Z</time>
      </trkpt>
      <trkpt lat="45.28022" lon="6.14202">
        <ele>2453.42</ele>
        <time>2019-03-28T09:49:22Z</time>
      </trkpt>
      <trkpt lat="45.28027" lon="6.14187">
        <ele>2455.82</ele>
        <time>2019-03-28T09:49:41Z</time>
      </trkpt>
      <trkpt lat="45.28032" lon="6.14178">
        <ele>2457.75</ele>
        <time>2019-03-28T09:49:56Z</time>
      </trkpt>
      <trkpt lat="45.28036" lon="6.14169">
        <ele>2460.15</ele>
        <time>2019-03-28T09:50:11Z</time>
      </trkpt>
      <trkpt lat="45.28034" lon="6.14163">
        <ele>2462.07</ele>
        <time>2019-03-28T09:50:25Z</time>
      </trkpt>
      <trkpt lat="45.28025" lon="6.14157">
        <ele>2464</ele>
        <time>2019-03-28T09:50:42Z</time>
      </trkpt>
      <trkpt lat="45.28015" lon="6.14143">
        <ele>2465.92</ele>
        <time>2019-03-28T09:51:00Z</time>
      </trkpt>
      <trkpt lat="45.28008" lon="6.14136">
        <ele>2467.36</ele>
        <time>2019-03-28T09:51:14Z</time>
      </trkpt>
      <trkpt lat="45.28002" lon="6.14123">
        <ele>2468.8</ele>
        <time>2019-03-28T09:51:29Z</time>
      </trkpt>
      <trkpt lat="45.27999" lon="6.14116">
        <ele>2470.73</ele>
        <time>2019-03-28T09:51:42Z</time>
      </trkpt>
      <trkpt lat="45.27998" lon="6.14113">
        <ele>2470.73</ele>
        <time>2019-03-28T09:51:57Z</time>
      </trkpt>
      <trkpt lat="45.27997" lon="6.14115">
        <ele>2471.21</ele>
        <time>2019-03-28T09:52:22Z</time>
      </trkpt>
      <trkpt lat="45.27996" lon="6.14106">
        <ele>2471.69</ele>
        <time>2019-03-28T09:52:38Z</time>
      </trkpt>
      <trkpt lat="45.27996" lon="6.14092">
        <ele>2472.65</ele>
        <time>2019-03-28T09:52:51Z</time>
      </trkpt>
      <trkpt lat="45.27997" lon="6.14077">
        <ele>2473.61</ele>
        <time>2019-03-28T09:53:07Z</time>
      </trkpt>
      <trkpt lat="45.27999" lon="6.14064">
        <ele>2476.01</ele>
        <time>2019-03-28T09:53:23Z</time>
      </trkpt>
      <trkpt lat="45.28001" lon="6.14054">
        <ele>2477.94</ele>
        <time>2019-03-28T09:53:41Z</time>
      </trkpt>
      <trkpt lat="45.28001" lon="6.14041">
        <ele>2479.86</ele>
        <time>2019-03-28T09:53:58Z</time>
      </trkpt>
      <trkpt lat="45.27998" lon="6.14028">
        <ele>2481.3</ele>
        <time>2019-03-28T09:54:14Z</time>
      </trkpt>
      <trkpt lat="45.27996" lon="6.14013">
        <ele>2483.7</ele>
        <time>2019-03-28T09:54:32Z</time>
      </trkpt>
      <trkpt lat="45.27994" lon="6.14003">
        <ele>2486.11</ele>
        <time>2019-03-28T09:54:46Z</time>
      </trkpt>
      <trkpt lat="45.27992" lon="6.13991">
        <ele>2488.51</ele>
        <time>2019-03-28T09:55:04Z</time>
      </trkpt>
      <trkpt lat="45.27993" lon="6.13979">
        <ele>2490.43</ele>
        <time>2019-03-28T09:55:21Z</time>
      </trkpt>
      <trkpt lat="45.2799" lon="6.13974">
        <ele>2492.36</ele>
        <time>2019-03-28T09:55:35Z</time>
      </trkpt>
      <trkpt lat="45.27992" lon="6.13966">
        <ele>2493.8</ele>
        <time>2019-03-28T09:55:50Z</time>
      </trkpt>
      <trkpt lat="45.27993" lon="6.13958">
        <ele>2496.68</ele>
        <time>2019-03-28T09:56:05Z</time>
      </trkpt>
      <trkpt lat="45.2799" lon="6.13949">
        <ele>2498.12</ele>
        <time>2019-03-28T09:56:20Z</time>
      </trkpt>
      <trkpt lat="45.27988" lon="6.13938">
        <ele>2500.05</ele>
        <time>2019-03-28T09:56:34Z</time>
      </trkpt>
      <trkpt lat="45.27987" lon="6.13928">
        <ele>2501.97</ele>
        <time>2019-03-28T09:56:50Z</time>
      </trkpt>
      <trkpt lat="45.27983" lon="6.13917">
        <ele>2503.89</ele>
        <time>2019-03-28T09:57:05Z</time>
      </trkpt>
      <trkpt lat="45.27978" lon="6.13908">
        <ele>2505.81</ele>
        <time>2019-03-28T09:57:19Z</time>
      </trkpt>
      <trkpt lat="45.27979" lon="6.13906">
        <ele>2506.77</ele>
        <time>2019-03-28T09:57:32Z</time>
      </trkpt>
      <trkpt lat="45.27983" lon="6.13911">
        <ele>2506.77</ele>
        <time>2019-03-28T09:58:02Z</time>
      </trkpt>
      <trkpt lat="45.27982" lon="6.13908">
        <ele>2506.77</ele>
        <time>2019-03-28T09:58:26Z</time>
      </trkpt>
      <trkpt lat="45.27981" lon="6.13901">
        <ele>2506.77</ele>
        <time>2019-03-28T09:58:45Z</time>
      </trkpt>
      <trkpt lat="45.27982" lon="6.13898">
        <ele>2507.26</ele>
        <time>2019-03-28T09:59:03Z</time>
      </trkpt>
      <trkpt lat="45.2798" lon="6.13898">
        <ele>2507.74</ele>
        <time>2019-03-28T09:59:20Z</time>
      </trkpt>
      <trkpt lat="45.27978" lon="6.1389">
        <ele>2509.66</ele>
        <time>2019-03-28T09:59:33Z</time>
      </trkpt>
      <trkpt lat="45.27978" lon="6.13883">
        <ele>2511.58</ele>
        <time>2019-03-28T09:59:48Z</time>
      </trkpt>
      <trkpt lat="45.27979" lon="6.13877">
        <ele>2513.02</ele>
        <time>2019-03-28T10:00:00Z</time>
      </trkpt>
      <trkpt lat="45.27976" lon="6.13867">
        <ele>2515.43</ele>
        <time>2019-03-28T10:00:14Z</time>
      </trkpt>
      <trkpt lat="45.27975" lon="6.13858">
        <ele>2516.39</ele>
        <time>2019-03-28T10:00:30Z</time>
      </trkpt>
      <trkpt lat="45.27974" lon="6.13851">
        <ele>2517.83</ele>
        <time>2019-03-28T10:00:45Z</time>
      </trkpt>
      <trkpt lat="45.27972" lon="6.13843">
        <ele>2519.75</ele>
        <time>2019-03-28T10:00:58Z</time>
      </trkpt>
      <trkpt lat="45.27972" lon="6.13841">
        <ele>2520.71</ele>
        <time>2019-03-28T10:01:13Z</time>
      </trkpt>
      <trkpt lat="45.27972" lon="6.13846">
        <ele>2521.68</ele>
        <time>2019-03-28T10:01:30Z</time>
      </trkpt>
      <trkpt lat="45.27971" lon="6.13838">
        <ele>2524.08</ele>
        <time>2019-03-28T10:01:46Z</time>
      </trkpt>
      <trkpt lat="45.27972" lon="6.13828">
        <ele>2526.48</ele>
        <time>2019-03-28T10:02:00Z</time>
      </trkpt>
      <trkpt lat="45.27974" lon="6.1382">
        <ele>2528.4</ele>
        <time>2019-03-28T10:02:17Z</time>
      </trkpt>
      <trkpt lat="45.27976" lon="6.1381">
        <ele>2530.33</ele>
        <time>2019-03-28T10:02:31Z</time>
      </trkpt>
      <trkpt lat="45.2798" lon="6.13804">
        <ele>2532.73</ele>
        <time>2019-03-28T10:02:47Z</time>
      </trkpt>
      <trkpt lat="45.27984" lon="6.13795">
        <ele>2535.13</ele>
        <time>2019-03-28T10:03:03Z</time>
      </trkpt>
      <trkpt lat="45.27986" lon="6.1379">
        <ele>2537.06</ele>
        <time>2019-03-28T10:03:17Z</time>
      </trkpt>
      <trkpt lat="45.2799" lon="6.13784">
        <ele>2539.46</ele>
        <time>2019-03-28T10:03:32Z</time>
      </trkpt>
      <trkpt lat="45.2799" lon="6.1378">
        <ele>2539.46</ele>
        <time>2019-03-28T10:03:44Z</time>
      </trkpt>
      <trkpt lat="45.2798" lon="6.13774">
        <ele>2541.86</ele>
        <time>2019-03-28T10:04:00Z</time>
      </trkpt>
      <trkpt lat="45.27973" lon="6.13773">
        <ele>2544.75</ele>
        <time>2019-03-28T10:04:16Z</time>
      </trkpt>
      <trkpt lat="45.27966" lon="6.13769">
        <ele>2547.15</ele>
        <time>2019-03-28T10:04:30Z</time>
      </trkpt>
      <trkpt lat="45.27969" lon="6.13764">
        <ele>2548.59</ele>
        <time>2019-03-28T10:04:42Z</time>
      </trkpt>
      <trkpt lat="45.27971" lon="6.13755">
        <ele>2551</ele>
        <time>2019-03-28T10:04:56Z</time>
      </trkpt>
      <trkpt lat="45.2797" lon="6.13743">
        <ele>2552.92</ele>
        <time>2019-03-28T10:05:10Z</time>
      </trkpt>
      <trkpt lat="45.2797" lon="6.13733">
        <ele>2554.36</ele>
        <time>2019-03-28T10:05:24Z</time>
      </trkpt>
      <trkpt lat="45.27966" lon="6.13734">
        <ele>2556.28</ele>
        <time>2019-03-28T10:05:35Z</time>
      </trkpt>
      <trkpt lat="45.27961" lon="6.13728">
        <ele>2558.69</ele>
        <time>2019-03-28T10:05:51Z</time>
      </trkpt>
      <trkpt lat="45.27956" lon="6.13728">
        <ele>2560.61</ele>
        <time>2019-03-28T10:06:06Z</time>
      </trkpt>
      <trkpt lat="45.27949" lon="6.1373">
        <ele>2563.01</ele>
        <time>2019-03-28T10:06:22Z</time>
      </trkpt>
      <trkpt lat="45.27944" lon="6.13735">
        <ele>2564.93</ele>
        <time>2019-03-28T10:06:37Z</time>
      </trkpt>
      <trkpt lat="45.27937" lon="6.13743">
        <ele>2567.34</ele>
        <time>2019-03-28T10:06:54Z</time>
      </trkpt>
      <trkpt lat="45.27932" lon="6.1375">
        <ele>2569.26</ele>
        <time>2019-03-28T10:07:10Z</time>
      </trkpt>
      <trkpt lat="45.27927" lon="6.13755">
        <ele>2571.66</ele>
        <time>2019-03-28T10:07:25Z</time>
      </trkpt>
      <trkpt lat="45.27923" lon="6.13761">
        <ele>2573.11</ele>
        <time>2019-03-28T10:07:41Z</time>
      </trkpt>
      <trkpt lat="45.27919" lon="6.13762">
        <ele>2573.59</ele>
        <time>2019-03-28T10:07:58Z</time>
      </trkpt>
      <trkpt lat="45.27918" lon="6.13752">
        <ele>2575.99</ele>
        <time>2019-03-28T10:08:13Z</time>
      </trkpt>
      <trkpt lat="45.27917" lon="6.13741">
        <ele>2578.39</ele>
        <time>2019-03-28T10:08:30Z</time>
      </trkpt>
      <trkpt lat="45.27917" lon="6.13733">
        <ele>2580.32</ele>
        <time>2019-03-28T10:08:43Z</time>
      </trkpt>
      <trkpt lat="45.27918" lon="6.13726">
        <ele>2582.24</ele>
        <time>2019-03-28T10:08:56Z</time>
      </trkpt>
      <trkpt lat="45.27919" lon="6.13716">
        <ele>2584.16</ele>
        <time>2019-03-28T10:09:13Z</time>
      </trkpt>
      <trkpt lat="45.27919" lon="6.13706">
        <ele>2586.56</ele>
        <time>2019-03-28T10:09:29Z</time>
      </trkpt>
      <trkpt lat="45.27919" lon="6.13696">
        <ele>2588.97</ele>
        <time>2019-03-28T10:09:46Z</time>
      </trkpt>
      <trkpt lat="45.27918" lon="6.13687">
        <ele>2589.93</ele>
        <time>2019-03-28T10:10:01Z</time>
      </trkpt>
      <trkpt lat="45.27916" lon="6.13687">
        <ele>2591.37</ele>
        <time>2019-03-28T10:10:14Z</time>
      </trkpt>
      <trkpt lat="45.27913" lon="6.13692">
        <ele>2593.29</ele>
        <time>2019-03-28T10:10:29Z</time>
      </trkpt>
      <trkpt lat="45.27908" lon="6.13699">
        <ele>2595.7</ele>
        <time>2019-03-28T10:10:45Z</time>
      </trkpt>
      <trkpt lat="45.27904" lon="6.13704">
        <ele>2597.62</ele>
        <time>2019-03-28T10:11:00Z</time>
      </trkpt>
      <trkpt lat="45.27902" lon="6.1371">
        <ele>2598.58</ele>
        <time>2019-03-28T10:11:19Z</time>
      </trkpt>
      <trkpt lat="45.27901" lon="6.13704">
        <ele>2600.02</ele>
        <time>2019-03-28T10:11:32Z</time>
      </trkpt>
      <trkpt lat="45.27901" lon="6.13693">
        <ele>2601.95</ele>
        <time>2019-03-28T10:11:47Z</time>
      </trkpt>
      <trkpt lat="45.27901" lon="6.13685">
        <ele>2603.87</ele>
        <time>2019-03-28T10:12:03Z</time>
      </trkpt>
      <trkpt lat="45.27902" lon="6.13676">
        <ele>2605.79</ele>
        <time>2019-03-28T10:12:18Z</time>
      </trkpt>
      <trkpt lat="45.27903" lon="6.13666">
        <ele>2608.19</ele>
        <time>2019-03-28T10:12:33Z</time>
      </trkpt>
      <trkpt lat="45.27903" lon="6.1366">
        <ele>2609.64</ele>
        <time>2019-03-28T10:12:47Z</time>
      </trkpt>
      <trkpt lat="45.27902" lon="6.13655">
        <ele>2609.64</ele>
        <time>2019-03-28T10:13:01Z</time>
      </trkpt>
      <trkpt lat="45.27896" lon="6.1366">
        <ele>2612.04</ele>
        <time>2019-03-28T10:13:16Z</time>
      </trkpt>
      <trkpt lat="45.27892" lon="6.13666">
        <ele>2613.96</ele>
        <time>2019-03-28T10:13:30Z</time>
      </trkpt>
      <trkpt lat="45.27888" lon="6.13671">
        <ele>2615.88</ele>
        <time>2019-03-28T10:13:46Z</time>
      </trkpt>
      <trkpt lat="45.27884" lon="6.13675">
        <ele>2616.37</ele>
        <time>2019-03-28T10:14:00Z</time>
      </trkpt>
      <trkpt lat="45.27885" lon="6.13668">
        <ele>2617.81</ele>
        <time>2019-03-28T10:14:15Z</time>
      </trkpt>
      <trkpt lat="45.27886" lon="6.13662">
        <ele>2618.77</ele>
        <time>2019-03-28T10:14:27Z</time>
      </trkpt>
      <trkpt lat="45.27885" lon="6.13662">
        <ele>2619.25</ele>
        <time>2019-03-28T10:15:05Z</time>
      </trkpt>
      <trkpt lat="45.27887" lon="6.13649">
        <ele>2621.17</ele>
        <time>2019-03-28T10:15:21Z</time>
      </trkpt>
      <trkpt lat="45.27889" lon="6.13641">
        <ele>2623.09</ele>
        <time>2019-03-28T10:15:34Z</time>
      </trkpt>
      <trkpt lat="45.27891" lon="6.13633">
        <ele>2625.02</ele>
        <time>2019-03-28T10:15:48Z</time>
      </trkpt>
      <trkpt lat="45.27894" lon="6.13635">
        <ele>2625.5</ele>
        <time>2019-03-28T10:16:06Z</time>
      </trkpt>
      <trkpt lat="45.27892" lon="6.13628">
        <ele>2625.98</ele>
        <time>2019-03-28T10:16:22Z</time>
      </trkpt>
      <trkpt lat="45.27888" lon="6.13626">
        <ele>2627.9</ele>
        <time>2019-03-28T10:16:35Z</time>
      </trkpt>
      <trkpt lat="45.27881" lon="6.13626">
        <ele>2630.3</ele>
        <time>2019-03-28T10:16:49Z</time>
      </trkpt>
      <trkpt lat="45.27879" lon="6.13631">
        <ele>2631.75</ele>
        <time>2019-03-28T10:17:04Z</time>
      </trkpt>
      <trkpt lat="45.27876" lon="6.13626">
        <ele>2633.19</ele>
        <time>2019-03-28T10:17:15Z</time>
      </trkpt>
      <trkpt lat="45.27875" lon="6.13618">
        <ele>2635.11</ele>
        <time>2019-03-28T10:17:29Z</time>
      </trkpt>
      <trkpt lat="45.27879" lon="6.13613">
        <ele>2637.03</ele>
        <time>2019-03-28T10:17:42Z</time>
      </trkpt>
      <trkpt lat="45.27883" lon="6.13609">
        <ele>2638.96</ele>
        <time>2019-03-28T10:17:57Z</time>
      </trkpt>
      <trkpt lat="45.27886" lon="6.13604">
        <ele>2640.4</ele>
        <time>2019-03-28T10:18:11Z</time>
      </trkpt>
      <trkpt lat="45.2789" lon="6.13594">
        <ele>2641.84</ele>
        <time>2019-03-28T10:18:24Z</time>
      </trkpt>
      <trkpt lat="45.27892" lon="6.13584">
        <ele>2644.72</ele>
        <time>2019-03-28T10:18:39Z</time>
      </trkpt>
      <trkpt lat="45.27893" lon="6.13574">
        <ele>2645.69</ele>
        <time>2019-03-28T10:18:55Z</time>
      </trkpt>
      <trkpt lat="45.27894" lon="6.1357">
        <ele>2647.61</ele>
        <time>2019-03-28T10:19:07Z</time>
      </trkpt>
      <trkpt lat="45.27895" lon="6.13563">
        <ele>2649.53</ele>
        <time>2019-03-28T10:19:20Z</time>
      </trkpt>
      <trkpt lat="45.27897" lon="6.13556">
        <ele>2650.97</ele>
        <time>2019-03-28T10:19:35Z</time>
      </trkpt>
      <trkpt lat="45.27899" lon="6.13551">
        <ele>2652.42</ele>
        <time>2019-03-28T10:19:48Z</time>
      </trkpt>
      <trkpt lat="45.27901" lon="6.13544">
        <ele>2653.86</ele>
        <time>2019-03-28T10:20:00Z</time>
      </trkpt>
      <trkpt lat="45.27901" lon="6.13536">
        <ele>2655.3</ele>
        <time>2019-03-28T10:20:14Z</time>
      </trkpt>
      <trkpt lat="45.27901" lon="6.13527">
        <ele>2656.74</ele>
        <time>2019-03-28T10:20:28Z</time>
      </trkpt>
      <trkpt lat="45.27902" lon="6.13517">
        <ele>2659.14</ele>
        <time>2019-03-28T10:20:42Z</time>
      </trkpt>
      <trkpt lat="45.27903" lon="6.13508">
        <ele>2660.59</ele>
        <time>2019-03-28T10:20:58Z</time>
      </trkpt>
      <trkpt lat="45.27903" lon="6.135">
        <ele>2662.51</ele>
        <time>2019-03-28T10:21:12Z</time>
      </trkpt>
      <trkpt lat="45.27901" lon="6.13491">
        <ele>2664.43</ele>
        <time>2019-03-28T10:21:28Z</time>
      </trkpt>
      <trkpt lat="45.27898" lon="6.13482">
        <ele>2666.83</ele>
        <time>2019-03-28T10:21:44Z</time>
      </trkpt>
      <trkpt lat="45.27895" lon="6.13473">
        <ele>2668.76</ele>
        <time>2019-03-28T10:21:58Z</time>
      </trkpt>
      <trkpt lat="45.27892" lon="6.13467">
        <ele>2670.2</ele>
        <time>2019-03-28T10:22:11Z</time>
      </trkpt>
      <trkpt lat="45.2789" lon="6.13466">
        <ele>2671.64</ele>
        <time>2019-03-28T10:22:27Z</time>
      </trkpt>
      <trkpt lat="45.27883" lon="6.13462">
        <ele>2673.56</ele>
        <time>2019-03-28T10:22:40Z</time>
      </trkpt>
      <trkpt lat="45.27875" lon="6.13458">
        <ele>2675.49</ele>
        <time>2019-03-28T10:22:55Z</time>
      </trkpt>
      <trkpt lat="45.27868" lon="6.13455">
        <ele>2677.89</ele>
        <time>2019-03-28T10:23:12Z</time>
      </trkpt>
      <trkpt lat="45.27864" lon="6.13445">
        <ele>2679.81</ele>
        <time>2019-03-28T10:23:29Z</time>
      </trkpt>
      <trkpt lat="45.27861" lon="6.13432">
        <ele>2681.25</ele>
        <time>2019-03-28T10:23:42Z</time>
      </trkpt>
      <trkpt lat="45.27855" lon="6.13424">
        <ele>2683.18</ele>
        <time>2019-03-28T10:23:57Z</time>
      </trkpt>
      <trkpt lat="45.27849" lon="6.13416">
        <ele>2685.1</ele>
        <time>2019-03-28T10:24:12Z</time>
      </trkpt>
      <trkpt lat="45.27844" lon="6.13414">
        <ele>2687.02</ele>
        <time>2019-03-28T10:24:31Z</time>
      </trkpt>
      <trkpt lat="45.27838" lon="6.13411">
        <ele>2689.91</ele>
        <time>2019-03-28T10:24:47Z</time>
      </trkpt>
      <trkpt lat="45.27832" lon="6.13411">
        <ele>2691.83</ele>
        <time>2019-03-28T10:25:01Z</time>
      </trkpt>
      <trkpt lat="45.27828" lon="6.1341">
        <ele>2693.27</ele>
        <time>2019-03-28T10:25:18Z</time>
      </trkpt>
      <trkpt lat="45.27823" lon="6.13406">
        <ele>2695.19</ele>
        <time>2019-03-28T10:25:33Z</time>
      </trkpt>
      <trkpt lat="45.27819" lon="6.13405">
        <ele>2697.6</ele>
        <time>2019-03-28T10:25:47Z</time>
      </trkpt>
      <trkpt lat="45.27814" lon="6.13402">
        <ele>2699.04</ele>
        <time>2019-03-28T10:26:03Z</time>
      </trkpt>
      <trkpt lat="45.27813" lon="6.13396">
        <ele>2700.96</ele>
        <time>2019-03-28T10:26:17Z</time>
      </trkpt>
      <trkpt lat="45.27814" lon="6.13388">
        <ele>2702.88</ele>
        <time>2019-03-28T10:26:31Z</time>
      </trkpt>
      <trkpt lat="45.27815" lon="6.13381">
        <ele>2704.81</ele>
        <time>2019-03-28T10:26:45Z</time>
      </trkpt>
      <trkpt lat="45.27815" lon="6.13378">
        <ele>2705.77</ele>
        <time>2019-03-28T10:26:59Z</time>
      </trkpt>
      <trkpt lat="45.27812" lon="6.13374">
        <ele>2707.69</ele>
        <time>2019-03-28T10:27:12Z</time>
      </trkpt>
      <trkpt lat="45.27808" lon="6.13375">
        <ele>2709.61</ele>
        <time>2019-03-28T10:27:26Z</time>
      </trkpt>
      <trkpt lat="45.27802" lon="6.13378">
        <ele>2710.57</ele>
        <time>2019-03-28T10:27:41Z</time>
      </trkpt>
      <trkpt lat="45.27803" lon="6.13371">
        <ele>2712.5</ele>
        <time>2019-03-28T10:27:56Z</time>
      </trkpt>
      <trkpt lat="45.27806" lon="6.13364">
        <ele>2714.9</ele>
        <time>2019-03-28T10:28:12Z</time>
      </trkpt>
      <trkpt lat="45.27812" lon="6.13358">
        <ele>2716.82</ele>
        <time>2019-03-28T10:28:26Z</time>
      </trkpt>
      <trkpt lat="45.27815" lon="6.1335">
        <ele>2718.27</ele>
        <time>2019-03-28T10:28:42Z</time>
      </trkpt>
      <trkpt lat="45.27819" lon="6.13346">
        <ele>2720.19</ele>
        <time>2019-03-28T10:28:56Z</time>
      </trkpt>
      <trkpt lat="45.27823" lon="6.13343">
        <ele>2721.15</ele>
        <time>2019-03-28T10:29:08Z</time>
      </trkpt>
      <trkpt lat="45.27821" lon="6.13338">
        <ele>2722.11</ele>
        <time>2019-03-28T10:29:20Z</time>
      </trkpt>
      <trkpt lat="45.27815" lon="6.13333">
        <ele>2723.55</ele>
        <time>2019-03-28T10:29:33Z</time>
      </trkpt>
      <trkpt lat="45.27805" lon="6.13332">
        <ele>2725.96</ele>
        <time>2019-03-28T10:29:48Z</time>
      </trkpt>
      <trkpt lat="45.27798" lon="6.13333">
        <ele>2728.84</ele>
        <time>2019-03-28T10:30:04Z</time>
      </trkpt>
      <trkpt lat="45.27799" lon="6.13333">
        <ele>2730.28</ele>
        <time>2019-03-28T10:30:15Z</time>
      </trkpt>
      <trkpt lat="45.27804" lon="6.13329">
        <ele>2729.8</ele>
        <time>2019-03-28T10:30:29Z</time>
      </trkpt>
      <trkpt lat="45.27814" lon="6.13326">
        <ele>2729.32</ele>
        <time>2019-03-28T10:30:43Z</time>
      </trkpt>
      <trkpt lat="45.27823" lon="6.13325">
        <ele>2730.28</ele>
        <time>2019-03-28T10:30:57Z</time>
      </trkpt>
      <trkpt lat="45.27831" lon="6.13324">
        <ele>2731.72</ele>
        <time>2019-03-28T10:31:11Z</time>
      </trkpt>
      <trkpt lat="45.27832" lon="6.1332">
        <ele>2733.17</ele>
        <time>2019-03-28T10:31:23Z</time>
      </trkpt>
      <trkpt lat="45.27834" lon="6.13321">
        <ele>2734.13</ele>
        <time>2019-03-28T10:31:36Z</time>
      </trkpt>
      <trkpt lat="45.27838" lon="6.1332">
        <ele>2735.09</ele>
        <time>2019-03-28T10:31:52Z</time>
      </trkpt>
      <trkpt lat="45.27837" lon="6.13311">
        <ele>2737.01</ele>
        <time>2019-03-28T10:32:08Z</time>
      </trkpt>
      <trkpt lat="45.27835" lon="6.133">
        <ele>2739.41</ele>
        <time>2019-03-28T10:32:24Z</time>
      </trkpt>
      <trkpt lat="45.27835" lon="6.13299">
        <ele>2739.89</ele>
        <time>2019-03-28T10:32:40Z</time>
      </trkpt>
      <trkpt lat="45.27836" lon="6.133">
        <ele>2741.34</ele>
        <time>2019-03-28T10:32:56Z</time>
      </trkpt>
      <trkpt lat="45.27836" lon="6.13295">
        <ele>2741.34</ele>
        <time>2019-03-28T10:33:08Z</time>
      </trkpt>
      <trkpt lat="45.27836" lon="6.13297">
        <ele>2741.82</ele>
        <time>2019-03-28T10:33:26Z</time>
      </trkpt>
      <trkpt lat="45.27836" lon="6.13294">
        <ele>2741.82</ele>
        <time>2019-03-28T10:33:40Z</time>
      </trkpt>
      <trkpt lat="45.27836" lon="6.1329">
        <ele>2741.82</ele>
        <time>2019-03-28T10:33:58Z</time>
      </trkpt>
      <trkpt lat="45.27837" lon="6.13296">
        <ele>2741.82</ele>
        <time>2019-03-28T10:34:17Z</time>
      </trkpt>
      <trkpt lat="45.27836" lon="6.13292">
        <ele>2741.34</ele>
        <time>2019-03-28T10:34:33Z</time>
      </trkpt>
      <trkpt lat="45.27835" lon="6.1329">
        <ele>2741.34</ele>
        <time>2019-03-28T10:34:53Z</time>
      </trkpt>
      <trkpt lat="45.27835" lon="6.13288">
        <ele>2741.82</ele>
        <time>2019-03-28T10:35:10Z</time>
      </trkpt>
      <trkpt lat="45.27835" lon="6.13287">
        <ele>2743.74</ele>
        <time>2019-03-28T10:35:26Z</time>
      </trkpt>
      <trkpt lat="45.27833" lon="6.13287">
        <ele>2742.3</ele>
        <time>2019-03-28T10:35:41Z</time>
      </trkpt>
      <trkpt lat="45.27834" lon="6.13288">
        <ele>2742.3</ele>
        <time>2019-03-28T10:36:10Z</time>
      </trkpt>
      <trkpt lat="45.27836" lon="6.1329">
        <ele>2742.78</ele>
        <time>2019-03-28T10:36:35Z</time>
      </trkpt>
      <trkpt lat="45.27837" lon="6.13292">
        <ele>2742.78</ele>
        <time>2019-03-28T10:37:05Z</time>
      </trkpt>
      <trkpt lat="45.27838" lon="6.13295">
        <ele>2743.74</ele>
        <time>2019-03-28T10:37:33Z</time>
      </trkpt>
      <trkpt lat="45.2784" lon="6.13295">
        <ele>2743.26</ele>
        <time>2019-03-28T10:38:01Z</time>
      </trkpt>
      <trkpt lat="45.27839" lon="6.13293">
        <ele>2743.74</ele>
        <time>2019-03-28T10:38:38Z</time>
      </trkpt>
      <trkpt lat="45.27832" lon="6.1329">
        <ele>2744.22</ele>
        <time>2019-03-28T10:39:12Z</time>
      </trkpt>
      <trkpt lat="45.27832" lon="6.13289">
        <ele>2744.22</ele>
        <time>2019-03-28T10:39:38Z</time>
      </trkpt>
      <trkpt lat="45.27833" lon="6.1329">
        <ele>2745.18</ele>
        <time>2019-03-28T10:40:15Z</time>
      </trkpt>
      <trkpt lat="45.27832" lon="6.1329">
        <ele>2745.18</ele>
        <time>2019-03-28T10:40:48Z</time>
      </trkpt>
      <trkpt lat="45.27833" lon="6.13292">
        <ele>2745.18</ele>
        <time>2019-03-28T10:41:21Z</time>
      </trkpt>
      <trkpt lat="45.27832" lon="6.13291">
        <ele>2745.18</ele>
        <time>2019-03-28T10:41:49Z</time>
      </trkpt>
      <trkpt lat="45.27832" lon="6.13289">
        <ele>2745.18</ele>
        <time>2019-03-28T10:42:17Z</time>
      </trkpt>
      <trkpt lat="45.27833" lon="6.13289">
        <ele>2745.66</ele>
        <time>2019-03-28T10:42:52Z</time>
      </trkpt>
      <trkpt lat="45.27833" lon="6.13287">
        <ele>2745.66</ele>
        <time>2019-03-28T10:43:18Z</time>
      </trkpt>
      <trkpt lat="45.27836" lon="6.13286">
        <ele>2745.66</ele>
        <time>2019-03-28T10:43:40Z</time>
      </trkpt>
      <trkpt lat="45.2784" lon="6.13284">
        <ele>2746.14</ele>
        <time>2019-03-28T10:44:09Z</time>
      </trkpt>
      <trkpt lat="45.27839" lon="6.13288">
        <ele>2745.66</ele>
        <time>2019-03-28T10:44:37Z</time>
      </trkpt>
      <trkpt lat="45.27837" lon="6.1329">
        <ele>2746.14</ele>
        <time>2019-03-28T10:45:08Z</time>
      </trkpt>
      <trkpt lat="45.27838" lon="6.13291">
        <ele>2745.66</ele>
        <time>2019-03-28T10:45:34Z</time>
      </trkpt>
      <trkpt lat="45.27837" lon="6.13292">
        <ele>2746.14</ele>
        <time>2019-03-28T10:45:59Z</time>
      </trkpt>
      <trkpt lat="45.27834" lon="6.13294">
        <ele>2746.14</ele>
        <time>2019-03-28T10:46:21Z</time>
      </trkpt>
      <trkpt lat="45.27833" lon="6.13298">
        <ele>2746.62</ele>
        <time>2019-03-28T10:46:58Z</time>
      </trkpt>
      <trkpt lat="45.27833" lon="6.13296">
        <ele>2746.62</ele>
        <time>2019-03-28T10:47:37Z</time>
      </trkpt>
      <trkpt lat="45.27835" lon="6.13297">
        <ele>2747.1</ele>
        <time>2019-03-28T10:48:06Z</time>
      </trkpt>
      <trkpt lat="45.27834" lon="6.13301">
        <ele>2747.1</ele>
        <time>2019-03-28T10:48:38Z</time>
      </trkpt>
      <trkpt lat="45.27835" lon="6.133">
        <ele>2747.59</ele>
        <time>2019-03-28T10:49:14Z</time>
      </trkpt>
      <trkpt lat="45.27834" lon="6.133">
        <ele>2747.59</ele>
        <time>2019-03-28T10:49:48Z</time>
      </trkpt>
      <trkpt lat="45.27836" lon="6.13298">
        <ele>2747.59</ele>
        <time>2019-03-28T10:50:15Z</time>
      </trkpt>
      <trkpt lat="45.27833" lon="6.13298">
        <ele>2748.07</ele>
        <time>2019-03-28T10:50:53Z</time>
      </trkpt>
      <trkpt lat="45.27832" lon="6.13303">
        <ele>2748.07</ele>
        <time>2019-03-28T10:51:26Z</time>
      </trkpt>
      <trkpt lat="45.27833" lon="6.13305">
        <ele>2748.55</ele>
        <time>2019-03-28T10:51:56Z</time>
      </trkpt>
      <trkpt lat="45.27829" lon="6.13297">
        <ele>2748.55</ele>
        <time>2019-03-28T10:52:27Z</time>
      </trkpt>
      <trkpt lat="45.27829" lon="6.13295">
        <ele>2748.55</ele>
        <time>2019-03-28T10:52:58Z</time>
      </trkpt>
      <trkpt lat="45.27828" lon="6.13296">
        <ele>2749.99</ele>
        <time>2019-03-28T10:53:23Z</time>
      </trkpt>
      <trkpt lat="45.27828" lon="6.13297">
        <ele>2750.47</ele>
        <time>2019-03-28T10:53:58Z</time>
      </trkpt>
      <trkpt lat="45.2783" lon="6.13301">
        <ele>2748.55</ele>
        <time>2019-03-28T10:54:16Z</time>
      </trkpt>
      <trkpt lat="45.2783" lon="6.13298">
        <ele>2748.55</ele>
        <time>2019-03-28T10:54:28Z</time>
      </trkpt>
      <trkpt lat="45.27832" lon="6.13297">
        <ele>2748.55</ele>
        <time>2019-03-28T10:54:41Z</time>
      </trkpt>
      <trkpt lat="45.27835" lon="6.13293">
        <ele>2748.55</ele>
        <time>2019-03-28T10:55:05Z</time>
      </trkpt>
      <trkpt lat="45.27836" lon="6.13291">
        <ele>2748.07</ele>
        <time>2019-03-28T10:55:39Z</time>
      </trkpt>
      <trkpt lat="45.27838" lon="6.13292">
        <ele>2747.59</ele>
        <time>2019-03-28T10:56:15Z</time>
      </trkpt>
      <trkpt lat="45.27839" lon="6.13291">
        <ele>2747.59</ele>
        <time>2019-03-28T10:56:49Z</time>
      </trkpt>
      <trkpt lat="45.2784" lon="6.1329">
        <ele>2747.1</ele>
        <time>2019-03-28T10:57:21Z</time>
      </trkpt>
      <trkpt lat="45.27838" lon="6.1329">
        <ele>2746.62</ele>
        <time>2019-03-28T10:57:46Z</time>
      </trkpt>
      <trkpt lat="45.27837" lon="6.1329">
        <ele>2747.59</ele>
        <time>2019-03-28T10:57:48Z</time>
      </trkpt>
      <trkpt lat="45.27834" lon="6.13291">
        <ele>2747.1</ele>
        <time>2019-03-28T10:58:18Z</time>
      </trkpt>
      <trkpt lat="45.27838" lon="6.13289">
        <ele>2747.1</ele>
        <time>2019-03-28T10:58:58Z</time>
      </trkpt>
      <trkpt lat="45.27838" lon="6.13291">
        <ele>2747.1</ele>
        <time>2019-03-28T10:59:35Z</time>
      </trkpt>
      <trkpt lat="45.2784" lon="6.1329">
        <ele>2747.1</ele>
        <time>2019-03-28T10:59:49Z</time>
      </trkpt>
      <trkpt lat="45.27838" lon="6.13292">
        <ele>2747.1</ele>
        <time>2019-03-28T11:00:21Z</time>
      </trkpt>
      <trkpt lat="45.27837" lon="6.13289">
        <ele>2747.1</ele>
        <time>2019-03-28T11:00:54Z</time>
      </trkpt>
      <trkpt lat="45.27839" lon="6.13289">
        <ele>2747.1</ele>
        <time>2019-03-28T11:01:22Z</time>
      </trkpt>
      <trkpt lat="45.27839" lon="6.1329">
        <ele>2747.1</ele>
        <time>2019-03-28T11:01:48Z</time>
      </trkpt>
      <trkpt lat="45.27839" lon="6.13287">
        <ele>2746.62</ele>
        <time>2019-03-28T11:02:12Z</time>
      </trkpt>
      <trkpt lat="45.27837" lon="6.13291">
        <ele>2746.62</ele>
        <time>2019-03-28T11:02:47Z</time>
      </trkpt>
      <trkpt lat="45.27837" lon="6.13289">
        <ele>2746.62</ele>
        <time>2019-03-28T11:03:15Z</time>
      </trkpt>
      <trkpt lat="45.27835" lon="6.13294">
        <ele>2746.14</ele>
        <time>2019-03-28T11:03:45Z</time>
      </trkpt>
      <trkpt lat="45.27836" lon="6.13294">
        <ele>2745.18</ele>
        <time>2019-03-28T11:03:48Z</time>
      </trkpt>
      <trkpt lat="45.27836" lon="6.13293">
        <ele>2746.62</ele>
        <time>2019-03-28T11:03:50Z</time>
      </trkpt>
      <trkpt lat="45.27835" lon="6.13292">
        <ele>2746.62</ele>
        <time>2019-03-28T11:04:20Z</time>
      </trkpt>
      <trkpt lat="45.27835" lon="6.13293">
        <ele>2746.14</ele>
        <time>2019-03-28T11:04:47Z</time>
      </trkpt>
      <trkpt lat="45.27837" lon="6.13295">
        <ele>2746.14</ele>
        <time>2019-03-28T11:05:16Z</time>
      </trkpt>
      <trkpt lat="45.27834" lon="6.13297">
        <ele>2746.14</ele>
        <time>2019-03-28T11:05:50Z</time>
      </trkpt>
      <trkpt lat="45.27833" lon="6.13293">
        <ele>2745.66</ele>
        <time>2019-03-28T11:06:22Z</time>
      </trkpt>
      <trkpt lat="45.27836" lon="6.13292">
        <ele>2745.66</ele>
        <time>2019-03-28T11:06:57Z</time>
      </trkpt>
      <trkpt lat="45.27837" lon="6.13291">
        <ele>2745.66</ele>
        <time>2019-03-28T11:07:33Z</time>
      </trkpt>
      <trkpt lat="45.27839" lon="6.13288">
        <ele>2746.62</ele>
        <time>2019-03-28T11:08:05Z</time>
      </trkpt>
      <trkpt lat="45.27839" lon="6.13289">
        <ele>2746.62</ele>
        <time>2019-03-28T11:08:20Z</time>
      </trkpt>
      <trkpt lat="45.27841" lon="6.13292">
        <ele>2746.14</ele>
        <time>2019-03-28T11:08:40Z</time>
      </trkpt>
      <trkpt lat="45.27841" lon="6.13291">
        <ele>2746.62</ele>
        <time>2019-03-28T11:08:57Z</time>
      </trkpt>
      <trkpt lat="45.27839" lon="6.13305">
        <ele>2741.82</ele>
        <time>2019-03-28T11:09:02Z</time>
      </trkpt>
      <trkpt lat="45.27833" lon="6.13316">
        <ele>2738.45</ele>
        <time>2019-03-28T11:09:05Z</time>
      </trkpt>
      <trkpt lat="45.27831" lon="6.13316">
        <ele>2735.09</ele>
        <time>2019-03-28T11:09:06Z</time>
      </trkpt>
      <trkpt lat="45.27828" lon="6.13315">
        <ele>2733.65</ele>
        <time>2019-03-28T11:09:07Z</time>
      </trkpt>
      <trkpt lat="45.27825" lon="6.13314">
        <ele>2733.17</ele>
        <time>2019-03-28T11:09:17Z</time>
      </trkpt>
      <trkpt lat="45.27828" lon="6.13319">
        <ele>2732.68</ele>
        <time>2019-03-28T11:09:46Z</time>
      </trkpt>
      <trkpt lat="45.27816" lon="6.13323">
        <ele>2733.17</ele>
        <time>2019-03-28T11:10:13Z</time>
      </trkpt>
      <trkpt lat="45.27811" lon="6.13316">
        <ele>2733.17</ele>
        <time>2019-03-28T11:10:35Z</time>
      </trkpt>
      <trkpt lat="45.27809" lon="6.13312">
        <ele>2732.68</ele>
        <time>2019-03-28T11:11:01Z</time>
      </trkpt>
      <trkpt lat="45.27808" lon="6.13315">
        <ele>2732.68</ele>
        <time>2019-03-28T11:11:22Z</time>
      </trkpt>
      <trkpt lat="45.27808" lon="6.13317">
        <ele>2732.68</ele>
        <time>2019-03-28T11:11:29Z</time>
      </trkpt>
      <trkpt lat="45.27812" lon="6.13322">
        <ele>2729.8</ele>
        <time>2019-03-28T11:11:32Z</time>
      </trkpt>
      <trkpt lat="45.27815" lon="6.13327">
        <ele>2728.36</ele>
        <time>2019-03-28T11:11:34Z</time>
      </trkpt>
      <trkpt lat="45.27813" lon="6.13333">
        <ele>2723.55</ele>
        <time>2019-03-28T11:11:37Z</time>
      </trkpt>
      <trkpt lat="45.27818" lon="6.13341">
        <ele>2718.27</ele>
        <time>2019-03-28T11:11:40Z</time>
      </trkpt>
      <trkpt lat="45.27823" lon="6.13351">
        <ele>2712.98</ele>
        <time>2019-03-28T11:11:43Z</time>
      </trkpt>
      <trkpt lat="45.27825" lon="6.13362">
        <ele>2707.69</ele>
        <time>2019-03-28T11:11:45Z</time>
      </trkpt>
      <trkpt lat="45.27825" lon="6.13366">
        <ele>2707.21</ele>
        <time>2019-03-28T11:11:46Z</time>
      </trkpt>
      <trkpt lat="45.27835" lon="6.13373">
        <ele>2704.81</ele>
        <time>2019-03-28T11:11:50Z</time>
      </trkpt>
      <trkpt lat="45.27846" lon="6.13381">
        <ele>2702.88</ele>
        <time>2019-03-28T11:11:53Z</time>
      </trkpt>
      <trkpt lat="45.27853" lon="6.13385">
        <ele>2700.48</ele>
        <time>2019-03-28T11:11:56Z</time>
      </trkpt>
      <trkpt lat="45.27856" lon="6.1339">
        <ele>2697.12</ele>
        <time>2019-03-28T11:11:58Z</time>
      </trkpt>
      <trkpt lat="45.27854" lon="6.13397">
        <ele>2694.71</ele>
        <time>2019-03-28T11:11:59Z</time>
      </trkpt>
      <trkpt lat="45.27851" lon="6.13424">
        <ele>2688.46</ele>
        <time>2019-03-28T11:12:02Z</time>
      </trkpt>
      <trkpt lat="45.2785" lon="6.13434">
        <ele>2687.02</ele>
        <time>2019-03-28T11:12:03Z</time>
      </trkpt>
      <trkpt lat="45.27854" lon="6.13468">
        <ele>2682.7</ele>
        <time>2019-03-28T11:12:06Z</time>
      </trkpt>
      <trkpt lat="45.27854" lon="6.13493">
        <ele>2677.89</ele>
        <time>2019-03-28T11:12:11Z</time>
      </trkpt>
      <trkpt lat="45.27862" lon="6.13493">
        <ele>2678.85</ele>
        <time>2019-03-28T11:12:27Z</time>
      </trkpt>
      <trkpt lat="45.27873" lon="6.13487">
        <ele>2676.93</ele>
        <time>2019-03-28T11:12:31Z</time>
      </trkpt>
      <trkpt lat="45.27886" lon="6.13492">
        <ele>2672.6</ele>
        <time>2019-03-28T11:12:35Z</time>
      </trkpt>
      <trkpt lat="45.27891" lon="6.13498">
        <ele>2669.24</ele>
        <time>2019-03-28T11:12:37Z</time>
      </trkpt>
      <trkpt lat="45.27898" lon="6.13504">
        <ele>2666.35</ele>
        <time>2019-03-28T11:12:39Z</time>
      </trkpt>
      <trkpt lat="45.27901" lon="6.13504">
        <ele>2664.43</ele>
        <time>2019-03-28T11:12:40Z</time>
      </trkpt>
      <trkpt lat="45.27914" lon="6.13509">
        <ele>2657.7</ele>
        <time>2019-03-28T11:12:45Z</time>
      </trkpt>
      <trkpt lat="45.27932" lon="6.13502">
        <ele>2655.3</ele>
        <time>2019-03-28T11:12:52Z</time>
      </trkpt>
      <trkpt lat="45.27961" lon="6.13488">
        <ele>2651.45</ele>
        <time>2019-03-28T11:13:00Z</time>
      </trkpt>
      <trkpt lat="45.27983" lon="6.13478">
        <ele>2647.13</ele>
        <time>2019-03-28T11:13:04Z</time>
      </trkpt>
      <trkpt lat="45.28005" lon="6.1346">
        <ele>2645.69</ele>
        <time>2019-03-28T11:13:14Z</time>
      </trkpt>
      <trkpt lat="45.28007" lon="6.13453">
        <ele>2645.69</ele>
        <time>2019-03-28T11:13:23Z</time>
      </trkpt>
      <trkpt lat="45.28007" lon="6.13459">
        <ele>2642.32</ele>
        <time>2019-03-28T11:13:27Z</time>
      </trkpt>
      <trkpt lat="45.28005" lon="6.13471">
        <ele>2637.99</ele>
        <time>2019-03-28T11:13:30Z</time>
      </trkpt>
      <trkpt lat="45.28004" lon="6.1348">
        <ele>2633.67</ele>
        <time>2019-03-28T11:13:32Z</time>
      </trkpt>
      <trkpt lat="45.28" lon="6.1349">
        <ele>2629.82</ele>
        <time>2019-03-28T11:13:34Z</time>
      </trkpt>
      <trkpt lat="45.28" lon="6.13502">
        <ele>2626.46</ele>
        <time>2019-03-28T11:13:36Z</time>
      </trkpt>
      <trkpt lat="45.27998" lon="6.13517">
        <ele>2621.65</ele>
        <time>2019-03-28T11:13:38Z</time>
      </trkpt>
      <trkpt lat="45.27998" lon="6.13532">
        <ele>2617.81</ele>
        <time>2019-03-28T11:13:40Z</time>
      </trkpt>
      <trkpt lat="45.27994" lon="6.13543">
        <ele>2612.52</ele>
        <time>2019-03-28T11:13:43Z</time>
      </trkpt>
      <trkpt lat="45.27995" lon="6.13555">
        <ele>2608.67</ele>
        <time>2019-03-28T11:13:45Z</time>
      </trkpt>
      <trkpt lat="45.27994" lon="6.13566">
        <ele>2604.35</ele>
        <time>2019-03-28T11:13:47Z</time>
      </trkpt>
      <trkpt lat="45.27991" lon="6.13583">
        <ele>2600.98</ele>
        <time>2019-03-28T11:13:49Z</time>
      </trkpt>
      <trkpt lat="45.27985" lon="6.13603">
        <ele>2595.7</ele>
        <time>2019-03-28T11:13:51Z</time>
      </trkpt>
      <trkpt lat="45.27982" lon="6.13622">
        <ele>2591.37</ele>
        <time>2019-03-28T11:13:53Z</time>
      </trkpt>
      <trkpt lat="45.27983" lon="6.13671">
        <ele>2583.68</ele>
        <time>2019-03-28T11:13:58Z</time>
      </trkpt>
      <trkpt lat="45.2799" lon="6.13693">
        <ele>2581.76</ele>
        <time>2019-03-28T11:14:00Z</time>
      </trkpt>
      <trkpt lat="45.27998" lon="6.13706">
        <ele>2581.76</ele>
        <time>2019-03-28T11:14:06Z</time>
      </trkpt>
      <trkpt lat="45.28006" lon="6.13697">
        <ele>2582.24</ele>
        <time>2019-03-28T11:14:24Z</time>
      </trkpt>
      <trkpt lat="45.28011" lon="6.13707">
        <ele>2581.28</ele>
        <time>2019-03-28T11:14:29Z</time>
      </trkpt>
      <trkpt lat="45.28027" lon="6.13712">
        <ele>2579.84</ele>
        <time>2019-03-28T11:14:35Z</time>
      </trkpt>
      <trkpt lat="45.28057" lon="6.13729">
        <ele>2575.51</ele>
        <time>2019-03-28T11:14:41Z</time>
      </trkpt>
      <trkpt lat="45.28068" lon="6.13735">
        <ele>2573.59</ele>
        <time>2019-03-28T11:14:43Z</time>
      </trkpt>
      <trkpt lat="45.28074" lon="6.13744">
        <ele>2570.22</ele>
        <time>2019-03-28T11:14:45Z</time>
      </trkpt>
      <trkpt lat="45.28069" lon="6.13754">
        <ele>2566.38</ele>
        <time>2019-03-28T11:14:47Z</time>
      </trkpt>
      <trkpt lat="45.28064" lon="6.13765">
        <ele>2562.05</ele>
        <time>2019-03-28T11:14:49Z</time>
      </trkpt>
      <trkpt lat="45.28061" lon="6.13769">
        <ele>2558.69</ele>
        <time>2019-03-28T11:14:50Z</time>
      </trkpt>
      <trkpt lat="45.28055" lon="6.13777">
        <ele>2554.84</ele>
        <time>2019-03-28T11:14:52Z</time>
      </trkpt>
      <trkpt lat="45.28048" lon="6.13787">
        <ele>2551.48</ele>
        <time>2019-03-28T11:14:54Z</time>
      </trkpt>
      <trkpt lat="45.28044" lon="6.13796">
        <ele>2547.15</ele>
        <time>2019-03-28T11:14:56Z</time>
      </trkpt>
      <trkpt lat="45.28041" lon="6.13805">
        <ele>2544.27</ele>
        <time>2019-03-28T11:14:58Z</time>
      </trkpt>
      <trkpt lat="45.28039" lon="6.1381">
        <ele>2540.9</ele>
        <time>2019-03-28T11:14:59Z</time>
      </trkpt>
      <trkpt lat="45.28037" lon="6.13819">
        <ele>2537.54</ele>
        <time>2019-03-28T11:15:01Z</time>
      </trkpt>
      <trkpt lat="45.28034" lon="6.13827">
        <ele>2533.21</ele>
        <time>2019-03-28T11:15:03Z</time>
      </trkpt>
      <trkpt lat="45.28032" lon="6.1383">
        <ele>2531.29</ele>
        <time>2019-03-28T11:15:04Z</time>
      </trkpt>
      <trkpt lat="45.28023" lon="6.13847">
        <ele>2522.16</ele>
        <time>2019-03-28T11:15:08Z</time>
      </trkpt>
      <trkpt lat="45.28002" lon="6.13854">
        <ele>2515.91</ele>
        <time>2019-03-28T11:15:13Z</time>
      </trkpt>
      <trkpt lat="45.27985" lon="6.13865">
        <ele>2514.95</ele>
        <time>2019-03-28T11:15:22Z</time>
      </trkpt>
      <trkpt lat="45.27985" lon="6.13864">
        <ele>2515.43</ele>
        <time>2019-03-28T11:15:33Z</time>
      </trkpt>
      <trkpt lat="45.27985" lon="6.13871">
        <ele>2513.98</ele>
        <time>2019-03-28T11:15:36Z</time>
      </trkpt>
      <trkpt lat="45.27992" lon="6.1389">
        <ele>2508.7</ele>
        <time>2019-03-28T11:15:40Z</time>
      </trkpt>
      <trkpt lat="45.27995" lon="6.13906">
        <ele>2504.37</ele>
        <time>2019-03-28T11:15:42Z</time>
      </trkpt>
      <trkpt lat="45.27995" lon="6.13923">
        <ele>2501.97</ele>
        <time>2019-03-28T11:15:44Z</time>
      </trkpt>
      <trkpt lat="45.27995" lon="6.13955">
        <ele>2498.12</ele>
        <time>2019-03-28T11:15:48Z</time>
      </trkpt>
      <trkpt lat="45.27994" lon="6.13979">
        <ele>2495.24</ele>
        <time>2019-03-28T11:15:51Z</time>
      </trkpt>
      <trkpt lat="45.27991" lon="6.13998">
        <ele>2493.32</ele>
        <time>2019-03-28T11:15:53Z</time>
      </trkpt>
      <trkpt lat="45.27987" lon="6.14018">
        <ele>2491.87</ele>
        <time>2019-03-28T11:15:59Z</time>
      </trkpt>
      <trkpt lat="45.2799" lon="6.14023">
        <ele>2491.87</ele>
        <time>2019-03-28T11:16:15Z</time>
      </trkpt>
      <trkpt lat="45.27999" lon="6.14012">
        <ele>2492.36</ele>
        <time>2019-03-28T11:16:45Z</time>
      </trkpt>
      <trkpt lat="45.28003" lon="6.14035">
        <ele>2488.99</ele>
        <time>2019-03-28T11:16:50Z</time>
      </trkpt>
      <trkpt lat="45.28011" lon="6.14045">
        <ele>2485.63</ele>
        <time>2019-03-28T11:16:52Z</time>
      </trkpt>
      <trkpt lat="45.28014" lon="6.14051">
        <ele>2484.66</ele>
        <time>2019-03-28T11:16:53Z</time>
      </trkpt>
      <trkpt lat="45.28021" lon="6.14073">
        <ele>2480.82</ele>
        <time>2019-03-28T11:16:55Z</time>
      </trkpt>
      <trkpt lat="45.28033" lon="6.14107">
        <ele>2478.9</ele>
        <time>2019-03-28T11:16:58Z</time>
      </trkpt>
      <trkpt lat="45.28042" lon="6.14131">
        <ele>2477.94</ele>
        <time>2019-03-28T11:17:01Z</time>
      </trkpt>
      <trkpt lat="45.28064" lon="6.14158">
        <ele>2474.57</ele>
        <time>2019-03-28T11:17:09Z</time>
      </trkpt>
      <trkpt lat="45.28072" lon="6.14162">
        <ele>2473.61</ele>
        <time>2019-03-28T11:17:11Z</time>
      </trkpt>
      <trkpt lat="45.28074" lon="6.14164">
        <ele>2471.69</ele>
        <time>2019-03-28T11:17:14Z</time>
      </trkpt>
      <trkpt lat="45.28069" lon="6.14167">
        <ele>2470.73</ele>
        <time>2019-03-28T11:17:31Z</time>
      </trkpt>
      <trkpt lat="45.28067" lon="6.14172">
        <ele>2471.21</ele>
        <time>2019-03-28T11:17:52Z</time>
      </trkpt>
      <trkpt lat="45.28074" lon="6.14176">
        <ele>2471.69</ele>
        <time>2019-03-28T11:18:21Z</time>
      </trkpt>
      <trkpt lat="45.28079" lon="6.14169">
        <ele>2471.69</ele>
        <time>2019-03-28T11:18:57Z</time>
      </trkpt>
      <trkpt lat="45.28078" lon="6.14169">
        <ele>2472.17</ele>
        <time>2019-03-28T11:19:32Z</time>
      </trkpt>
      <trkpt lat="45.28082" lon="6.14172">
        <ele>2472.17</ele>
        <time>2019-03-28T11:20:10Z</time>
      </trkpt>
      <trkpt lat="45.28078" lon="6.14167">
        <ele>2471.69</ele>
        <time>2019-03-28T11:20:42Z</time>
      </trkpt>
      <trkpt lat="45.2808" lon="6.14163">
        <ele>2472.17</ele>
        <time>2019-03-28T11:21:10Z</time>
      </trkpt>
      <trkpt lat="45.28078" lon="6.14162">
        <ele>2471.69</ele>
        <time>2019-03-28T11:21:46Z</time>
      </trkpt>
      <trkpt lat="45.28078" lon="6.14163">
        <ele>2471.21</ele>
        <time>2019-03-28T11:21:48Z</time>
      </trkpt>
      <trkpt lat="45.28079" lon="6.14163">
        <ele>2472.65</ele>
        <time>2019-03-28T11:21:59Z</time>
      </trkpt>
      <trkpt lat="45.28074" lon="6.14162">
        <ele>2472.17</ele>
        <time>2019-03-28T11:22:17Z</time>
      </trkpt>
      <trkpt lat="45.28071" lon="6.14166">
        <ele>2472.65</ele>
        <time>2019-03-28T11:22:36Z</time>
      </trkpt>
      <trkpt lat="45.28069" lon="6.14176">
        <ele>2472.65</ele>
        <time>2019-03-28T11:22:59Z</time>
      </trkpt>
      <trkpt lat="45.28069" lon="6.14179">
        <ele>2472.65</ele>
        <time>2019-03-28T11:23:12Z</time>
      </trkpt>
      <trkpt lat="45.28077" lon="6.14183">
        <ele>2471.21</ele>
        <time>2019-03-28T11:23:21Z</time>
      </trkpt>
      <trkpt lat="45.28078" lon="6.14183">
        <ele>2470.73</ele>
        <time>2019-03-28T11:23:22Z</time>
      </trkpt>
      <trkpt lat="45.28086" lon="6.14188">
        <ele>2468.32</ele>
        <time>2019-03-28T11:23:25Z</time>
      </trkpt>
      <trkpt lat="45.28091" lon="6.14191">
        <ele>2464.96</ele>
        <time>2019-03-28T11:23:27Z</time>
      </trkpt>
      <trkpt lat="45.28098" lon="6.14198">
        <ele>2460.63</ele>
        <time>2019-03-28T11:23:30Z</time>
      </trkpt>
      <trkpt lat="45.28102" lon="6.14209">
        <ele>2454.86</ele>
        <time>2019-03-28T11:23:33Z</time>
      </trkpt>
      <trkpt lat="45.28104" lon="6.14217">
        <ele>2451.5</ele>
        <time>2019-03-28T11:23:35Z</time>
      </trkpt>
      <trkpt lat="45.28108" lon="6.14226">
        <ele>2446.69</ele>
        <time>2019-03-28T11:23:37Z</time>
      </trkpt>
      <trkpt lat="45.28105" lon="6.14241">
        <ele>2442.37</ele>
        <time>2019-03-28T11:23:40Z</time>
      </trkpt>
      <trkpt lat="45.28108" lon="6.14245">
        <ele>2440.92</ele>
        <time>2019-03-28T11:23:41Z</time>
      </trkpt>
      <trkpt lat="45.28119" lon="6.14254">
        <ele>2438.04</ele>
        <time>2019-03-28T11:23:43Z</time>
      </trkpt>
      <trkpt lat="45.28131" lon="6.14285">
        <ele>2433.71</ele>
        <time>2019-03-28T11:23:47Z</time>
      </trkpt>
      <trkpt lat="45.28133" lon="6.14294">
        <ele>2433.23</ele>
        <time>2019-03-28T11:23:48Z</time>
      </trkpt>
      <trkpt lat="45.28145" lon="6.14342">
        <ele>2430.83</ele>
        <time>2019-03-28T11:23:54Z</time>
      </trkpt>
      <trkpt lat="45.28142" lon="6.14363">
        <ele>2426.5</ele>
        <time>2019-03-28T11:23:57Z</time>
      </trkpt>
      <trkpt lat="45.28137" lon="6.14377">
        <ele>2421.7</ele>
        <time>2019-03-28T11:23:59Z</time>
      </trkpt>
      <trkpt lat="45.28131" lon="6.14386">
        <ele>2417.37</ele>
        <time>2019-03-28T11:24:00Z</time>
      </trkpt>
      <trkpt lat="45.28127" lon="6.14399">
        <ele>2413.53</ele>
        <time>2019-03-28T11:24:03Z</time>
      </trkpt>
      <trkpt lat="45.28123" lon="6.14408">
        <ele>2410.64</ele>
        <time>2019-03-28T11:24:04Z</time>
      </trkpt>
      <trkpt lat="45.2812" lon="6.14439">
        <ele>2406.8</ele>
        <time>2019-03-28T11:24:07Z</time>
      </trkpt>
      <trkpt lat="45.28124" lon="6.14491">
        <ele>2402.95</ele>
        <time>2019-03-28T11:24:13Z</time>
      </trkpt>
      <trkpt lat="45.2814" lon="6.1452">
        <ele>2401.03</ele>
        <time>2019-03-28T11:24:17Z</time>
      </trkpt>
      <trkpt lat="45.28145" lon="6.14526">
        <ele>2400.55</ele>
        <time>2019-03-28T11:24:18Z</time>
      </trkpt>
      <trkpt lat="45.28149" lon="6.14526">
        <ele>2400.55</ele>
        <time>2019-03-28T11:24:19Z</time>
      </trkpt>
      <trkpt lat="45.28164" lon="6.14531">
        <ele>2399.11</ele>
        <time>2019-03-28T11:24:29Z</time>
      </trkpt>
      <trkpt lat="45.28159" lon="6.14521">
        <ele>2400.55</ele>
        <time>2019-03-28T11:24:55Z</time>
      </trkpt>
      <trkpt lat="45.2816" lon="6.14519">
        <ele>2400.55</ele>
        <time>2019-03-28T11:24:58Z</time>
      </trkpt>
      <trkpt lat="45.28158" lon="6.1453">
        <ele>2398.63</ele>
        <time>2019-03-28T11:25:02Z</time>
      </trkpt>
      <trkpt lat="45.2814" lon="6.14541">
        <ele>2394.78</ele>
        <time>2019-03-28T11:25:07Z</time>
      </trkpt>
      <trkpt lat="45.28144" lon="6.14545">
        <ele>2395.26</ele>
        <time>2019-03-28T11:25:20Z</time>
      </trkpt>
      <trkpt lat="45.28144" lon="6.14546">
        <ele>2394.78</ele>
        <time>2019-03-28T11:25:21Z</time>
      </trkpt>
      <trkpt lat="45.28141" lon="6.14549">
        <ele>2394.3</ele>
        <time>2019-03-28T11:25:23Z</time>
      </trkpt>
      <trkpt lat="45.28141" lon="6.14562">
        <ele>2389.49</ele>
        <time>2019-03-28T11:25:27Z</time>
      </trkpt>
      <trkpt lat="45.28139" lon="6.14571">
        <ele>2385.17</ele>
        <time>2019-03-28T11:25:29Z</time>
      </trkpt>
      <trkpt lat="45.2814" lon="6.14575">
        <ele>2380.84</ele>
        <time>2019-03-28T11:25:30Z</time>
      </trkpt>
      <trkpt lat="45.28142" lon="6.14583">
        <ele>2376.52</ele>
        <time>2019-03-28T11:25:32Z</time>
      </trkpt>
      <trkpt lat="45.28142" lon="6.14588">
        <ele>2375.07</ele>
        <time>2019-03-28T11:25:33Z</time>
      </trkpt>
      <trkpt lat="45.28142" lon="6.14592">
        <ele>2372.67</ele>
        <time>2019-03-28T11:25:34Z</time>
      </trkpt>
      <trkpt lat="45.28156" lon="6.14595">
        <ele>2368.83</ele>
        <time>2019-03-28T11:25:37Z</time>
      </trkpt>
      <trkpt lat="45.28166" lon="6.14597">
        <ele>2367.38</ele>
        <time>2019-03-28T11:25:39Z</time>
      </trkpt>
      <trkpt lat="45.28191" lon="6.14598">
        <ele>2364.5</ele>
        <time>2019-03-28T11:25:48Z</time>
      </trkpt>
      <trkpt lat="45.28192" lon="6.14599">
        <ele>2364.02</ele>
        <time>2019-03-28T11:25:49Z</time>
      </trkpt>
      <trkpt lat="45.28192" lon="6.14601">
        <ele>2360.65</ele>
        <time>2019-03-28T11:25:50Z</time>
      </trkpt>
      <trkpt lat="45.28193" lon="6.1461">
        <ele>2355.37</ele>
        <time>2019-03-28T11:25:52Z</time>
      </trkpt>
      <trkpt lat="45.28198" lon="6.14619">
        <ele>2351.52</ele>
        <time>2019-03-28T11:25:54Z</time>
      </trkpt>
      <trkpt lat="45.28196" lon="6.14626">
        <ele>2348.16</ele>
        <time>2019-03-28T11:25:56Z</time>
      </trkpt>
      <trkpt lat="45.2819" lon="6.14635">
        <ele>2342.87</ele>
        <time>2019-03-28T11:25:58Z</time>
      </trkpt>
      <trkpt lat="45.28197" lon="6.14639">
        <ele>2338.06</ele>
        <time>2019-03-28T11:26:00Z</time>
      </trkpt>
      <trkpt lat="45.28199" lon="6.14646">
        <ele>2334.7</ele>
        <time>2019-03-28T11:26:02Z</time>
      </trkpt>
      <trkpt lat="45.28197" lon="6.14651">
        <ele>2333.74</ele>
        <time>2019-03-28T11:26:03Z</time>
      </trkpt>
      <trkpt lat="45.28185" lon="6.14663">
        <ele>2330.37</ele>
        <time>2019-03-28T11:26:06Z</time>
      </trkpt>
      <trkpt lat="45.28174" lon="6.14676">
        <ele>2328.45</ele>
        <time>2019-03-28T11:26:17Z</time>
      </trkpt>
      <trkpt lat="45.28166" lon="6.14681">
        <ele>2326.53</ele>
        <time>2019-03-28T11:26:29Z</time>
      </trkpt>
      <trkpt lat="45.28166" lon="6.14687">
        <ele>2324.61</ele>
        <time>2019-03-28T11:26:30Z</time>
      </trkpt>
      <trkpt lat="45.28168" lon="6.14691">
        <ele>2322.2</ele>
        <time>2019-03-28T11:26:31Z</time>
      </trkpt>
      <trkpt lat="45.28172" lon="6.14692">
        <ele>2319.8</ele>
        <time>2019-03-28T11:26:32Z</time>
      </trkpt>
      <trkpt lat="45.28178" lon="6.14689">
        <ele>2316.91</ele>
        <time>2019-03-28T11:26:35Z</time>
      </trkpt>
      <trkpt lat="45.28184" lon="6.14686">
        <ele>2313.55</ele>
        <time>2019-03-28T11:26:41Z</time>
      </trkpt>
      <trkpt lat="45.28189" lon="6.14684">
        <ele>2310.67</ele>
        <time>2019-03-28T11:26:43Z</time>
      </trkpt>
      <trkpt lat="45.28195" lon="6.14681">
        <ele>2309.7</ele>
        <time>2019-03-28T11:26:45Z</time>
      </trkpt>
      <trkpt lat="45.28206" lon="6.14681">
        <ele>2305.38</ele>
        <time>2019-03-28T11:26:48Z</time>
      </trkpt>
      <trkpt lat="45.28208" lon="6.14685">
        <ele>2303.94</ele>
        <time>2019-03-28T11:26:49Z</time>
      </trkpt>
      <trkpt lat="45.28208" lon="6.14687">
        <ele>2301.53</ele>
        <time>2019-03-28T11:26:50Z</time>
      </trkpt>
      <trkpt lat="45.2821" lon="6.14693">
        <ele>2299.13</ele>
        <time>2019-03-28T11:26:51Z</time>
      </trkpt>
      <trkpt lat="45.28215" lon="6.14695">
        <ele>2298.17</ele>
        <time>2019-03-28T11:26:52Z</time>
      </trkpt>
      <trkpt lat="45.28221" lon="6.14705">
        <ele>2293.36</ele>
        <time>2019-03-28T11:26:54Z</time>
      </trkpt>
      <trkpt lat="45.28222" lon="6.1471">
        <ele>2290.96</ele>
        <time>2019-03-28T11:26:55Z</time>
      </trkpt>
      <trkpt lat="45.28227" lon="6.14716">
        <ele>2287.11</ele>
        <time>2019-03-28T11:26:56Z</time>
      </trkpt>
      <trkpt lat="45.28231" lon="6.14716">
        <ele>2285.67</ele>
        <time>2019-03-28T11:26:57Z</time>
      </trkpt>
      <trkpt lat="45.28235" lon="6.14718">
        <ele>2283.27</ele>
        <time>2019-03-28T11:26:58Z</time>
      </trkpt>
      <trkpt lat="45.28242" lon="6.14724">
        <ele>2279.42</ele>
        <time>2019-03-28T11:27:00Z</time>
      </trkpt>
      <trkpt lat="45.28245" lon="6.14729">
        <ele>2276.54</ele>
        <time>2019-03-28T11:27:01Z</time>
      </trkpt>
      <trkpt lat="45.28254" lon="6.14742">
        <ele>2271.25</ele>
        <time>2019-03-28T11:27:04Z</time>
      </trkpt>
      <trkpt lat="45.28256" lon="6.14758">
        <ele>2265.48</ele>
        <time>2019-03-28T11:27:07Z</time>
      </trkpt>
      <trkpt lat="45.28259" lon="6.14769">
        <ele>2261.16</ele>
        <time>2019-03-28T11:27:09Z</time>
      </trkpt>
      <trkpt lat="45.2826" lon="6.14786">
        <ele>2255.87</ele>
        <time>2019-03-28T11:27:12Z</time>
      </trkpt>
      <trkpt lat="45.28261" lon="6.14798">
        <ele>2252.51</ele>
        <time>2019-03-28T11:27:13Z</time>
      </trkpt>
      <trkpt lat="45.28266" lon="6.14807">
        <ele>2249.14</ele>
        <time>2019-03-28T11:27:15Z</time>
      </trkpt>
      <trkpt lat="45.28275" lon="6.14822">
        <ele>2242.41</ele>
        <time>2019-03-28T11:27:18Z</time>
      </trkpt>
      <trkpt lat="45.28279" lon="6.14826">
        <ele>2241.45</ele>
        <time>2019-03-28T11:27:19Z</time>
      </trkpt>
      <trkpt lat="45.28285" lon="6.14833">
        <ele>2237.13</ele>
        <time>2019-03-28T11:27:20Z</time>
      </trkpt>
      <trkpt lat="45.28287" lon="6.14843">
        <ele>2233.76</ele>
        <time>2019-03-28T11:27:22Z</time>
      </trkpt>
      <trkpt lat="45.28292" lon="6.14859">
        <ele>2228.47</ele>
        <time>2019-03-28T11:27:25Z</time>
      </trkpt>
      <trkpt lat="45.28294" lon="6.14862">
        <ele>2227.51</ele>
        <time>2019-03-28T11:27:26Z</time>
      </trkpt>
      <trkpt lat="45.28295" lon="6.14869">
        <ele>2227.99</ele>
        <time>2019-03-28T11:27:35Z</time>
      </trkpt>
      <trkpt lat="45.28288" lon="6.14873">
        <ele>2229.43</ele>
        <time>2019-03-28T11:27:50Z</time>
      </trkpt>
      <trkpt lat="45.28284" lon="6.14874">
        <ele>2229.43</ele>
        <time>2019-03-28T11:27:59Z</time>
      </trkpt>
      <trkpt lat="45.28288" lon="6.14882">
        <ele>2228.95</ele>
        <time>2019-03-28T11:28:02Z</time>
      </trkpt>
      <trkpt lat="45.28295" lon="6.14896">
        <ele>2226.55</ele>
        <time>2019-03-28T11:28:04Z</time>
      </trkpt>
      <trkpt lat="45.28299" lon="6.14918">
        <ele>2222.71</ele>
        <time>2019-03-28T11:28:08Z</time>
      </trkpt>
      <trkpt lat="45.28296" lon="6.14927">
        <ele>2218.86</ele>
        <time>2019-03-28T11:28:10Z</time>
      </trkpt>
      <trkpt lat="45.28293" lon="6.14931">
        <ele>2217.42</ele>
        <time>2019-03-28T11:28:11Z</time>
      </trkpt>
      <trkpt lat="45.28289" lon="6.14947">
        <ele>2212.13</ele>
        <time>2019-03-28T11:28:14Z</time>
      </trkpt>
      <trkpt lat="45.28292" lon="6.14954">
        <ele>2209.25</ele>
        <time>2019-03-28T11:28:15Z</time>
      </trkpt>
      <trkpt lat="45.28292" lon="6.1497">
        <ele>2204.92</ele>
        <time>2019-03-28T11:28:18Z</time>
      </trkpt>
      <trkpt lat="45.28285" lon="6.14987">
        <ele>2200.59</ele>
        <time>2019-03-28T11:28:21Z</time>
      </trkpt>
      <trkpt lat="45.28286" lon="6.14994">
        <ele>2199.63</ele>
        <time>2019-03-28T11:28:22Z</time>
      </trkpt>
      <trkpt lat="45.28287" lon="6.15008">
        <ele>2196.75</ele>
        <time>2019-03-28T11:28:24Z</time>
      </trkpt>
      <trkpt lat="45.28281" lon="6.15018">
        <ele>2192.9</ele>
        <time>2019-03-28T11:28:26Z</time>
      </trkpt>
      <trkpt lat="45.28275" lon="6.15031">
        <ele>2190.5</ele>
        <time>2019-03-28T11:28:28Z</time>
      </trkpt>
      <trkpt lat="45.28275" lon="6.15047">
        <ele>2189.54</ele>
        <time>2019-03-28T11:28:30Z</time>
      </trkpt>
      <trkpt lat="45.28279" lon="6.15061">
        <ele>2187.62</ele>
        <time>2019-03-28T11:28:32Z</time>
      </trkpt>
      <trkpt lat="45.28286" lon="6.15087">
        <ele>2186.18</ele>
        <time>2019-03-28T11:28:37Z</time>
      </trkpt>
      <trkpt lat="45.2829" lon="6.15115">
        <ele>2185.21</ele>
        <time>2019-03-28T11:28:42Z</time>
      </trkpt>
      <trkpt lat="45.28284" lon="6.15129">
        <ele>2185.21</ele>
        <time>2019-03-28T11:28:51Z</time>
      </trkpt>
      <trkpt lat="45.2828" lon="6.15145">
        <ele>2186.18</ele>
        <time>2019-03-28T11:29:10Z</time>
      </trkpt>
      <trkpt lat="45.28283" lon="6.15153">
        <ele>2187.62</ele>
        <time>2019-03-28T11:29:33Z</time>
      </trkpt>
      <trkpt lat="45.28282" lon="6.15155">
        <ele>2188.58</ele>
        <time>2019-03-28T11:29:42Z</time>
      </trkpt>
      <trkpt lat="45.28281" lon="6.1516">
        <ele>2188.1</ele>
        <time>2019-03-28T11:29:46Z</time>
      </trkpt>
      <trkpt lat="45.28291" lon="6.15176">
        <ele>2184.25</ele>
        <time>2019-03-28T11:29:52Z</time>
      </trkpt>
      <trkpt lat="45.28297" lon="6.1519">
        <ele>2180.41</ele>
        <time>2019-03-28T11:29:55Z</time>
      </trkpt>
      <trkpt lat="45.28304" lon="6.15207">
        <ele>2177.52</ele>
        <time>2019-03-28T11:29:58Z</time>
      </trkpt>
      <trkpt lat="45.28314" lon="6.15237">
        <ele>2170.79</ele>
        <time>2019-03-28T11:30:03Z</time>
      </trkpt>
      <trkpt lat="45.28328" lon="6.15264">
        <ele>2163.1</ele>
        <time>2019-03-28T11:30:07Z</time>
      </trkpt>
      <trkpt lat="45.28334" lon="6.1528">
        <ele>2158.78</ele>
        <time>2019-03-28T11:30:09Z</time>
      </trkpt>
      <trkpt lat="45.28338" lon="6.15285">
        <ele>2157.34</ele>
        <time>2019-03-28T11:30:10Z</time>
      </trkpt>
      <trkpt lat="45.28355" lon="6.15316">
        <ele>2149.65</ele>
        <time>2019-03-28T11:30:15Z</time>
      </trkpt>
      <trkpt lat="45.28363" lon="6.15334">
        <ele>2145.32</ele>
        <time>2019-03-28T11:30:18Z</time>
      </trkpt>
      <trkpt lat="45.28366" lon="6.15347">
        <ele>2142.44</ele>
        <time>2019-03-28T11:30:20Z</time>
      </trkpt>
      <trkpt lat="45.2837" lon="6.15361">
        <ele>2138.11</ele>
        <time>2019-03-28T11:30:22Z</time>
      </trkpt>
      <trkpt lat="45.28375" lon="6.15375">
        <ele>2133.78</ele>
        <time>2019-03-28T11:30:24Z</time>
      </trkpt>
      <trkpt lat="45.28379" lon="6.15389">
        <ele>2129.46</ele>
        <time>2019-03-28T11:30:26Z</time>
      </trkpt>
      <trkpt lat="45.28392" lon="6.15408">
        <ele>2126.09</ele>
        <time>2019-03-28T11:30:29Z</time>
      </trkpt>
      <trkpt lat="45.28395" lon="6.15414">
        <ele>2125.61</ele>
        <time>2019-03-28T11:30:30Z</time>
      </trkpt>
      <trkpt lat="45.28401" lon="6.15426">
        <ele>2123.69</ele>
        <time>2019-03-28T11:30:32Z</time>
      </trkpt>
      <trkpt lat="45.28411" lon="6.15449">
        <ele>2120.81</ele>
        <time>2019-03-28T11:30:37Z</time>
      </trkpt>
      <trkpt lat="45.28419" lon="6.15445">
        <ele>2121.77</ele>
        <time>2019-03-28T11:30:52Z</time>
      </trkpt>
      <trkpt lat="45.28437" lon="6.15432">
        <ele>2121.77</ele>
        <time>2019-03-28T11:31:14Z</time>
      </trkpt>
      <trkpt lat="45.28439" lon="6.15429">
        <ele>2121.77</ele>
        <time>2019-03-28T11:31:30Z</time>
      </trkpt>
      <trkpt lat="45.28435" lon="6.15423">
        <ele>2121.77</ele>
        <time>2019-03-28T11:31:50Z</time>
      </trkpt>
      <trkpt lat="45.28424" lon="6.1541">
        <ele>2120.32</ele>
        <time>2019-03-28T11:32:02Z</time>
      </trkpt>
      <trkpt lat="45.28425" lon="6.15408">
        <ele>2120.32</ele>
        <time>2019-03-28T11:32:10Z</time>
      </trkpt>
      <trkpt lat="45.28424" lon="6.15414">
        <ele>2119.36</ele>
        <time>2019-03-28T11:32:14Z</time>
      </trkpt>
      <trkpt lat="45.28428" lon="6.15423">
        <ele>2118.4</ele>
        <time>2019-03-28T11:32:17Z</time>
      </trkpt>
      <trkpt lat="45.28426" lon="6.15447">
        <ele>2115.04</ele>
        <time>2019-03-28T11:32:22Z</time>
      </trkpt>
      <trkpt lat="45.28427" lon="6.15462">
        <ele>2111.19</ele>
        <time>2019-03-28T11:32:25Z</time>
      </trkpt>
      <trkpt lat="45.28429" lon="6.15478">
        <ele>2106.39</ele>
        <time>2019-03-28T11:32:28Z</time>
      </trkpt>
      <trkpt lat="45.28428" lon="6.15491">
        <ele>2103.5</ele>
        <time>2019-03-28T11:32:30Z</time>
      </trkpt>
      <trkpt lat="45.28423" lon="6.15502">
        <ele>2099.66</ele>
        <time>2019-03-28T11:32:32Z</time>
      </trkpt>
      <trkpt lat="45.28415" lon="6.15523">
        <ele>2093.41</ele>
        <time>2019-03-28T11:32:36Z</time>
      </trkpt>
      <trkpt lat="45.28414" lon="6.15529">
        <ele>2090.04</ele>
        <time>2019-03-28T11:32:37Z</time>
      </trkpt>
      <trkpt lat="45.28415" lon="6.15542">
        <ele>2086.2</ele>
        <time>2019-03-28T11:32:39Z</time>
      </trkpt>
      <trkpt lat="45.28414" lon="6.1555">
        <ele>2083.31</ele>
        <time>2019-03-28T11:32:40Z</time>
      </trkpt>
      <trkpt lat="45.28414" lon="6.15565">
        <ele>2078.51</ele>
        <time>2019-03-28T11:32:42Z</time>
      </trkpt>
      <trkpt lat="45.28415" lon="6.1558">
        <ele>2074.18</ele>
        <time>2019-03-28T11:32:44Z</time>
      </trkpt>
      <trkpt lat="45.28415" lon="6.15589">
        <ele>2072.74</ele>
        <time>2019-03-28T11:32:45Z</time>
      </trkpt>
      <trkpt lat="45.28409" lon="6.15613">
        <ele>2067.45</ele>
        <time>2019-03-28T11:32:48Z</time>
      </trkpt>
      <trkpt lat="45.28405" lon="6.15622">
        <ele>2065.05</ele>
        <time>2019-03-28T11:32:49Z</time>
      </trkpt>
      <trkpt lat="45.28398" lon="6.15644">
        <ele>2060.24</ele>
        <time>2019-03-28T11:32:52Z</time>
      </trkpt>
      <trkpt lat="45.28396" lon="6.15653">
        <ele>2056.88</ele>
        <time>2019-03-28T11:32:53Z</time>
      </trkpt>
      <trkpt lat="45.28391" lon="6.15676">
        <ele>2050.63</ele>
        <time>2019-03-28T11:32:56Z</time>
      </trkpt>
      <trkpt lat="45.2839" lon="6.15688">
        <ele>2046.78</ele>
        <time>2019-03-28T11:32:58Z</time>
      </trkpt>
      <trkpt lat="45.28382" lon="6.15708">
        <ele>2038.61</ele>
        <time>2019-03-28T11:33:01Z</time>
      </trkpt>
      <trkpt lat="45.28378" lon="6.15724">
        <ele>2033.33</ele>
        <time>2019-03-28T11:33:03Z</time>
      </trkpt>
      <trkpt lat="45.28373" lon="6.15741">
        <ele>2029.48</ele>
        <time>2019-03-28T11:33:05Z</time>
      </trkpt>
      <trkpt lat="45.2837" lon="6.15775">
        <ele>2021.79</ele>
        <time>2019-03-28T11:33:09Z</time>
      </trkpt>
      <trkpt lat="45.28365" lon="6.15799">
        <ele>2016.02</ele>
        <time>2019-03-28T11:33:12Z</time>
      </trkpt>
      <trkpt lat="45.28362" lon="6.15815">
        <ele>2012.66</ele>
        <time>2019-03-28T11:33:14Z</time>
      </trkpt>
      <trkpt lat="45.2836" lon="6.15833">
        <ele>2008.33</ele>
        <time>2019-03-28T11:33:16Z</time>
      </trkpt>
      <trkpt lat="45.28352" lon="6.15865">
        <ele>2006.41</ele>
        <time>2019-03-28T11:33:24Z</time>
      </trkpt>
      <trkpt lat="45.28351" lon="6.15864">
        <ele>2006.89</ele>
        <time>2019-03-28T11:33:40Z</time>
      </trkpt>
      <trkpt lat="45.28355" lon="6.15862">
        <ele>2007.37</ele>
        <time>2019-03-28T11:34:06Z</time>
      </trkpt>
      <trkpt lat="45.28359" lon="6.15862">
        <ele>2007.37</ele>
        <time>2019-03-28T11:34:15Z</time>
      </trkpt>
      <trkpt lat="45.28368" lon="6.15874">
        <ele>2004.97</ele>
        <time>2019-03-28T11:34:21Z</time>
      </trkpt>
      <trkpt lat="45.28352" lon="6.15886">
        <ele>1999.2</ele>
        <time>2019-03-28T11:34:25Z</time>
      </trkpt>
      <trkpt lat="45.28342" lon="6.15896">
        <ele>1995.35</ele>
        <time>2019-03-28T11:34:27Z</time>
      </trkpt>
      <trkpt lat="45.28332" lon="6.15905">
        <ele>1991.51</ele>
        <time>2019-03-28T11:34:29Z</time>
      </trkpt>
      <trkpt lat="45.28322" lon="6.15915">
        <ele>1986.7</ele>
        <time>2019-03-28T11:34:31Z</time>
      </trkpt>
      <trkpt lat="45.28314" lon="6.15928">
        <ele>1984.3</ele>
        <time>2019-03-28T11:34:33Z</time>
      </trkpt>
      <trkpt lat="45.28305" lon="6.15947">
        <ele>1980.45</ele>
        <time>2019-03-28T11:34:36Z</time>
      </trkpt>
      <trkpt lat="45.28297" lon="6.15964">
        <ele>1975.17</ele>
        <time>2019-03-28T11:34:39Z</time>
      </trkpt>
      <trkpt lat="45.28294" lon="6.15971">
        <ele>1974.2</ele>
        <time>2019-03-28T11:34:40Z</time>
      </trkpt>
      <trkpt lat="45.2828" lon="6.15995">
        <ele>1968.44</ele>
        <time>2019-03-28T11:34:43Z</time>
      </trkpt>
      <trkpt lat="45.28274" lon="6.16004">
        <ele>1966.51</ele>
        <time>2019-03-28T11:34:44Z</time>
      </trkpt>
      <trkpt lat="45.28261" lon="6.16024">
        <ele>1960.75</ele>
        <time>2019-03-28T11:34:47Z</time>
      </trkpt>
      <trkpt lat="45.28251" lon="6.16033">
        <ele>1957.86</ele>
        <time>2019-03-28T11:34:49Z</time>
      </trkpt>
      <trkpt lat="45.28245" lon="6.16039">
        <ele>1956.9</ele>
        <time>2019-03-28T11:34:51Z</time>
      </trkpt>
      <trkpt lat="45.28239" lon="6.1604">
        <ele>1955.94</ele>
        <time>2019-03-28T11:35:04Z</time>
      </trkpt>
      <trkpt lat="45.28238" lon="6.1604">
        <ele>1955.46</ele>
        <time>2019-03-28T11:35:06Z</time>
      </trkpt>
      <trkpt lat="45.28236" lon="6.16039">
        <ele>1954.98</ele>
        <time>2019-03-28T11:35:08Z</time>
      </trkpt>
      <trkpt lat="45.28233" lon="6.1605">
        <ele>1951.13</ele>
        <time>2019-03-28T11:35:12Z</time>
      </trkpt>
      <trkpt lat="45.28231" lon="6.16053">
        <ele>1949.21</ele>
        <time>2019-03-28T11:35:13Z</time>
      </trkpt>
      <trkpt lat="45.28229" lon="6.16062">
        <ele>1940.08</ele>
        <time>2019-03-28T11:35:18Z</time>
      </trkpt>
      <trkpt lat="45.28228" lon="6.16073">
        <ele>1936.23</ele>
        <time>2019-03-28T11:35:20Z</time>
      </trkpt>
      <trkpt lat="45.28225" lon="6.16075">
        <ele>1933.35</ele>
        <time>2019-03-28T11:35:21Z</time>
      </trkpt>
      <trkpt lat="45.28219" lon="6.16083">
        <ele>1928.54</ele>
        <time>2019-03-28T11:35:23Z</time>
      </trkpt>
      <trkpt lat="45.28214" lon="6.16088">
        <ele>1925.66</ele>
        <time>2019-03-28T11:35:24Z</time>
      </trkpt>
      <trkpt lat="45.28201" lon="6.16097">
        <ele>1919.89</ele>
        <time>2019-03-28T11:35:26Z</time>
      </trkpt>
      <trkpt lat="45.28194" lon="6.16106">
        <ele>1915.56</ele>
        <time>2019-03-28T11:35:28Z</time>
      </trkpt>
      <trkpt lat="45.28188" lon="6.16117">
        <ele>1910.28</ele>
        <time>2019-03-28T11:35:30Z</time>
      </trkpt>
      <trkpt lat="45.28181" lon="6.16125">
        <ele>1906.43</ele>
        <time>2019-03-28T11:35:32Z</time>
      </trkpt>
      <trkpt lat="45.28175" lon="6.16131">
        <ele>1904.99</ele>
        <time>2019-03-28T11:35:33Z</time>
      </trkpt>
      <trkpt lat="45.28169" lon="6.16139">
        <ele>1902.11</ele>
        <time>2019-03-28T11:35:34Z</time>
      </trkpt>
      <trkpt lat="45.28147" lon="6.16162">
        <ele>1896.34</ele>
        <time>2019-03-28T11:35:37Z</time>
      </trkpt>
      <trkpt lat="45.2814" lon="6.16162">
        <ele>1895.38</ele>
        <time>2019-03-28T11:35:38Z</time>
      </trkpt>
      <trkpt lat="45.28116" lon="6.16161">
        <ele>1892.49</ele>
        <time>2019-03-28T11:35:42Z</time>
      </trkpt>
      <trkpt lat="45.28096" lon="6.16167">
        <ele>1890.57</ele>
        <time>2019-03-28T11:35:46Z</time>
      </trkpt>
      <trkpt lat="45.28086" lon="6.16171">
        <ele>1888.17</ele>
        <time>2019-03-28T11:35:48Z</time>
      </trkpt>
      <trkpt lat="45.28079" lon="6.16177">
        <ele>1885.28</ele>
        <time>2019-03-28T11:35:49Z</time>
      </trkpt>
      <trkpt lat="45.28076" lon="6.16183">
        <ele>1883.84</ele>
        <time>2019-03-28T11:35:50Z</time>
      </trkpt>
      <trkpt lat="45.28075" lon="6.16203">
        <ele>1876.63</ele>
        <time>2019-03-28T11:35:53Z</time>
      </trkpt>
      <trkpt lat="45.28069" lon="6.16214">
        <ele>1871.34</ele>
        <time>2019-03-28T11:35:55Z</time>
      </trkpt>
      <trkpt lat="45.28063" lon="6.16217">
        <ele>1868.46</ele>
        <time>2019-03-28T11:35:56Z</time>
      </trkpt>
      <trkpt lat="45.28054" lon="6.16222">
        <ele>1867.02</ele>
        <time>2019-03-28T11:35:57Z</time>
      </trkpt>
      <trkpt lat="45.28039" lon="6.16232">
        <ele>1864.13</ele>
        <time>2019-03-28T11:35:59Z</time>
      </trkpt>
      <trkpt lat="45.28024" lon="6.16251">
        <ele>1859.81</ele>
        <time>2019-03-28T11:36:02Z</time>
      </trkpt>
      <trkpt lat="45.28018" lon="6.16257">
        <ele>1858.37</ele>
        <time>2019-03-28T11:36:03Z</time>
      </trkpt>
      <trkpt lat="45.28008" lon="6.16271">
        <ele>1855</ele>
        <time>2019-03-28T11:36:05Z</time>
      </trkpt>
      <trkpt lat="45.28004" lon="6.16277">
        <ele>1853.56</ele>
        <time>2019-03-28T11:36:06Z</time>
      </trkpt>
      <trkpt lat="45.27993" lon="6.16288">
        <ele>1850.68</ele>
        <time>2019-03-28T11:36:08Z</time>
      </trkpt>
      <trkpt lat="45.27976" lon="6.16309">
        <ele>1846.35</ele>
        <time>2019-03-28T11:36:11Z</time>
      </trkpt>
      <trkpt lat="45.27974" lon="6.16314">
        <ele>1844.91</ele>
        <time>2019-03-28T11:36:12Z</time>
      </trkpt>
      <trkpt lat="45.27969" lon="6.16323">
        <ele>1843.47</ele>
        <time>2019-03-28T11:36:13Z</time>
      </trkpt>
      <trkpt lat="45.27957" lon="6.16343">
        <ele>1839.62</ele>
        <time>2019-03-28T11:36:15Z</time>
      </trkpt>
      <trkpt lat="45.27954" lon="6.16351">
        <ele>1838.18</ele>
        <time>2019-03-28T11:36:16Z</time>
      </trkpt>
      <trkpt lat="45.27963" lon="6.16337">
        <ele>1836.74</ele>
        <time>2019-03-28T11:36:28Z</time>
      </trkpt>
      <trkpt lat="45.27979" lon="6.16355">
        <ele>1833.37</ele>
        <time>2019-03-28T11:36:33Z</time>
      </trkpt>
      <trkpt lat="45.27976" lon="6.16368">
        <ele>1830.49</ele>
        <time>2019-03-28T11:36:36Z</time>
      </trkpt>
      <trkpt lat="45.2797" lon="6.16388">
        <ele>1827.12</ele>
        <time>2019-03-28T11:36:39Z</time>
      </trkpt>
      <trkpt lat="45.27968" lon="6.16397">
        <ele>1826.16</ele>
        <time>2019-03-28T11:36:40Z</time>
      </trkpt>
      <trkpt lat="45.27957" lon="6.1642">
        <ele>1822.32</ele>
        <time>2019-03-28T11:36:44Z</time>
      </trkpt>
      <trkpt lat="45.27953" lon="6.16428">
        <ele>1820.87</ele>
        <time>2019-03-28T11:36:45Z</time>
      </trkpt>
      <trkpt lat="45.27943" lon="6.16443">
        <ele>1816.55</ele>
        <time>2019-03-28T11:36:47Z</time>
      </trkpt>
      <trkpt lat="45.27927" lon="6.16467">
        <ele>1812.22</ele>
        <time>2019-03-28T11:36:50Z</time>
      </trkpt>
      <trkpt lat="45.27916" lon="6.16483">
        <ele>1808.86</ele>
        <time>2019-03-28T11:36:52Z</time>
      </trkpt>
      <trkpt lat="45.27911" lon="6.16495">
        <ele>1806.94</ele>
        <time>2019-03-28T11:36:53Z</time>
      </trkpt>
      <trkpt lat="45.27905" lon="6.16518">
        <ele>1804.05</ele>
        <time>2019-03-28T11:36:55Z</time>
      </trkpt>
      <trkpt lat="45.27903" lon="6.16548">
        <ele>1800.21</ele>
        <time>2019-03-28T11:36:58Z</time>
      </trkpt>
      <trkpt lat="45.2791" lon="6.16551">
        <ele>1798.76</ele>
        <time>2019-03-28T11:37:01Z</time>
      </trkpt>
      <trkpt lat="45.27917" lon="6.16563">
        <ele>1800.21</ele>
        <time>2019-03-28T11:37:21Z</time>
      </trkpt>
      <trkpt lat="45.27917" lon="6.1655">
        <ele>1800.21</ele>
        <time>2019-03-28T11:37:36Z</time>
      </trkpt>
      <trkpt lat="45.27917" lon="6.16573">
        <ele>1797.32</ele>
        <time>2019-03-28T11:37:43Z</time>
      </trkpt>
      <trkpt lat="45.27918" lon="6.1658">
        <ele>1797.32</ele>
        <time>2019-03-28T11:37:44Z</time>
      </trkpt>
      <trkpt lat="45.27914" lon="6.166">
        <ele>1794.44</ele>
        <time>2019-03-28T11:37:47Z</time>
      </trkpt>
      <trkpt lat="45.27919" lon="6.16629">
        <ele>1791.07</ele>
        <time>2019-03-28T11:37:51Z</time>
      </trkpt>
      <trkpt lat="45.27925" lon="6.16651">
        <ele>1789.15</ele>
        <time>2019-03-28T11:37:55Z</time>
      </trkpt>
      <trkpt lat="45.27929" lon="6.16669">
        <ele>1787.23</ele>
        <time>2019-03-28T11:37:58Z</time>
      </trkpt>
      <trkpt lat="45.27935" lon="6.16701">
        <ele>1781.46</ele>
        <time>2019-03-28T11:38:02Z</time>
      </trkpt>
      <trkpt lat="45.27946" lon="6.16742">
        <ele>1774.25</ele>
        <time>2019-03-28T11:38:07Z</time>
      </trkpt>
      <trkpt lat="45.2795" lon="6.16749">
        <ele>1774.25</ele>
        <time>2019-03-28T11:38:08Z</time>
      </trkpt>
      <trkpt lat="45.27963" lon="6.16775">
        <ele>1771.85</ele>
        <time>2019-03-28T11:38:12Z</time>
      </trkpt>
      <trkpt lat="45.27976" lon="6.16797">
        <ele>1771.37</ele>
        <time>2019-03-28T11:38:18Z</time>
      </trkpt>
      <trkpt lat="45.27978" lon="6.16809">
        <ele>1770.89</ele>
        <time>2019-03-28T11:38:22Z</time>
      </trkpt>
      <trkpt lat="45.27976" lon="6.16833">
        <ele>1769.44</ele>
        <time>2019-03-28T11:38:26Z</time>
      </trkpt>
      <trkpt lat="45.27977" lon="6.16878">
        <ele>1766.56</ele>
        <time>2019-03-28T11:38:37Z</time>
      </trkpt>
      <trkpt lat="45.2798" lon="6.16928">
        <ele>1764.64</ele>
        <time>2019-03-28T11:38:49Z</time>
      </trkpt>
      <trkpt lat="45.27984" lon="6.16975">
        <ele>1761.75</ele>
        <time>2019-03-28T11:39:00Z</time>
      </trkpt>
      <trkpt lat="45.27994" lon="6.17015">
        <ele>1758.39</ele>
        <time>2019-03-28T11:39:08Z</time>
      </trkpt>
      <trkpt lat="45.27997" lon="6.17056">
        <ele>1755.99</ele>
        <time>2019-03-28T11:39:15Z</time>
      </trkpt>
      <trkpt lat="45.28" lon="6.17098">
        <ele>1752.62</ele>
        <time>2019-03-28T11:39:21Z</time>
      </trkpt>
      <trkpt lat="45.27999" lon="6.17104">
        <ele>1752.62</ele>
        <time>2019-03-28T11:39:22Z</time>
      </trkpt>
      <trkpt lat="45.27998" lon="6.17122">
        <ele>1751.66</ele>
        <time>2019-03-28T11:39:25Z</time>
      </trkpt>
      <trkpt lat="45.27998" lon="6.17126">
        <ele>1751.18</ele>
        <time>2019-03-28T11:39:26Z</time>
      </trkpt>
      <trkpt lat="45.27998" lon="6.17165">
        <ele>1748.29</ele>
        <time>2019-03-28T11:39:33Z</time>
      </trkpt>
      <trkpt lat="45.27997" lon="6.17197">
        <ele>1746.37</ele>
        <time>2019-03-28T11:39:37Z</time>
      </trkpt>
      <trkpt lat="45.27999" lon="6.17218">
        <ele>1744.93</ele>
        <time>2019-03-28T11:39:40Z</time>
      </trkpt>
      <trkpt lat="45.28008" lon="6.17242">
        <ele>1743.01</ele>
        <time>2019-03-28T11:39:44Z</time>
      </trkpt>
      <trkpt lat="45.2801" lon="6.17248">
        <ele>1742.53</ele>
        <time>2019-03-28T11:39:45Z</time>
      </trkpt>
      <trkpt lat="45.28013" lon="6.17259">
        <ele>1742.05</ele>
        <time>2019-03-28T11:39:47Z</time>
      </trkpt>
      <trkpt lat="45.28013" lon="6.17265">
        <ele>1740.6</ele>
        <time>2019-03-28T11:39:48Z</time>
      </trkpt>
      <trkpt lat="45.28012" lon="6.17268">
        <ele>1740.12</ele>
        <time>2019-03-28T11:39:49Z</time>
      </trkpt>
      <trkpt lat="45.28009" lon="6.17273">
        <ele>1738.2</ele>
        <time>2019-03-28T11:39:50Z</time>
      </trkpt>
      <trkpt lat="45.28006" lon="6.17279">
        <ele>1737.24</ele>
        <time>2019-03-28T11:39:51Z</time>
      </trkpt>
      <trkpt lat="45.28002" lon="6.17287">
        <ele>1734.84</ele>
        <time>2019-03-28T11:39:52Z</time>
      </trkpt>
      <trkpt lat="45.27999" lon="6.17297">
        <ele>1733.39</ele>
        <time>2019-03-28T11:39:53Z</time>
      </trkpt>
      <trkpt lat="45.27996" lon="6.17306">
        <ele>1732.43</ele>
        <time>2019-03-28T11:39:54Z</time>
      </trkpt>
      <trkpt lat="45.27993" lon="6.17314">
        <ele>1730.51</ele>
        <time>2019-03-28T11:39:55Z</time>
      </trkpt>
      <trkpt lat="45.27992" lon="6.17322">
        <ele>1729.07</ele>
        <time>2019-03-28T11:39:56Z</time>
      </trkpt>
      <trkpt lat="45.27992" lon="6.1733">
        <ele>1728.11</ele>
        <time>2019-03-28T11:39:57Z</time>
      </trkpt>
      <trkpt lat="45.2799" lon="6.17339">
        <ele>1727.15</ele>
        <time>2019-03-28T11:39:58Z</time>
      </trkpt>
      <trkpt lat="45.27991" lon="6.17348">
        <ele>1724.74</ele>
        <time>2019-03-28T11:39:59Z</time>
      </trkpt>
      <trkpt lat="45.27993" lon="6.17356">
        <ele>1723.3</ele>
        <time>2019-03-28T11:40:00Z</time>
      </trkpt>
      <trkpt lat="45.27992" lon="6.17366">
        <ele>1721.86</ele>
        <time>2019-03-28T11:40:01Z</time>
      </trkpt>
      <trkpt lat="45.27994" lon="6.17376">
        <ele>1718.97</ele>
        <time>2019-03-28T11:40:02Z</time>
      </trkpt>
      <trkpt lat="45.27993" lon="6.17389">
        <ele>1718.01</ele>
        <time>2019-03-28T11:40:03Z</time>
      </trkpt>
      <trkpt lat="45.27996" lon="6.17412">
        <ele>1714.65</ele>
        <time>2019-03-28T11:40:05Z</time>
      </trkpt>
      <trkpt lat="45.28001" lon="6.17442">
        <ele>1713.21</ele>
        <time>2019-03-28T11:40:08Z</time>
      </trkpt>
      <trkpt lat="45.28004" lon="6.17478">
        <ele>1710.8</ele>
        <time>2019-03-28T11:40:12Z</time>
      </trkpt>
      <trkpt lat="45.28005" lon="6.17495">
        <ele>1709.36</ele>
        <time>2019-03-28T11:40:15Z</time>
      </trkpt>
      <trkpt lat="45.28004" lon="6.17527">
        <ele>1705.52</ele>
        <time>2019-03-28T11:40:20Z</time>
      </trkpt>
      <trkpt lat="45.28002" lon="6.17548">
        <ele>1704.07</ele>
        <time>2019-03-28T11:40:22Z</time>
      </trkpt>
      <trkpt lat="45.28001" lon="6.17571">
        <ele>1703.11</ele>
        <time>2019-03-28T11:40:25Z</time>
      </trkpt>
      <trkpt lat="45.28002" lon="6.17578">
        <ele>1702.63</ele>
        <time>2019-03-28T11:40:26Z</time>
      </trkpt>
      <trkpt lat="45.28002" lon="6.17585">
        <ele>1702.15</ele>
        <time>2019-03-28T11:40:27Z</time>
      </trkpt>
      <trkpt lat="45.28002" lon="6.17613">
        <ele>1700.23</ele>
        <time>2019-03-28T11:40:31Z</time>
      </trkpt>
      <trkpt lat="45.28002" lon="6.17621">
        <ele>1699.27</ele>
        <time>2019-03-28T11:40:32Z</time>
      </trkpt>
      <trkpt lat="45.28002" lon="6.17629">
        <ele>1698.79</ele>
        <time>2019-03-28T11:40:33Z</time>
      </trkpt>
      <trkpt lat="45.28002" lon="6.17643">
        <ele>1697.34</ele>
        <time>2019-03-28T11:40:36Z</time>
      </trkpt>
      <trkpt lat="45.28004" lon="6.17654">
        <ele>1696.38</ele>
        <time>2019-03-28T11:40:45Z</time>
      </trkpt>
      <trkpt lat="45.28007" lon="6.17657">
        <ele>1696.38</ele>
        <time>2019-03-28T11:41:08Z</time>
      </trkpt>
      <trkpt lat="45.28013" lon="6.17683">
        <ele>1694.94</ele>
        <time>2019-03-28T11:41:29Z</time>
      </trkpt>
      <trkpt lat="45.28014" lon="6.1769">
        <ele>1694.46</ele>
        <time>2019-03-28T11:41:30Z</time>
      </trkpt>
      <trkpt lat="45.28019" lon="6.17717">
        <ele>1693.02</ele>
        <time>2019-03-28T11:41:34Z</time>
      </trkpt>
      <trkpt lat="45.28017" lon="6.17721">
        <ele>1691.58</ele>
        <time>2019-03-28T11:41:35Z</time>
      </trkpt>
      <trkpt lat="45.28013" lon="6.17725">
        <ele>1691.1</ele>
        <time>2019-03-28T11:41:36Z</time>
      </trkpt>
      <trkpt lat="45.28011" lon="6.17731">
        <ele>1689.17</ele>
        <time>2019-03-28T11:41:37Z</time>
      </trkpt>
      <trkpt lat="45.28007" lon="6.17737">
        <ele>1688.21</ele>
        <time>2019-03-28T11:41:38Z</time>
      </trkpt>
      <trkpt lat="45.28003" lon="6.17743">
        <ele>1686.77</ele>
        <time>2019-03-28T11:41:39Z</time>
      </trkpt>
      <trkpt lat="45.27999" lon="6.17749">
        <ele>1684.85</ele>
        <time>2019-03-28T11:41:40Z</time>
      </trkpt>
      <trkpt lat="45.27997" lon="6.17758">
        <ele>1682.93</ele>
        <time>2019-03-28T11:41:41Z</time>
      </trkpt>
      <trkpt lat="45.27995" lon="6.17767">
        <ele>1682.44</ele>
        <time>2019-03-28T11:41:42Z</time>
      </trkpt>
      <trkpt lat="45.27991" lon="6.17775">
        <ele>1681.48</ele>
        <time>2019-03-28T11:41:43Z</time>
      </trkpt>
      <trkpt lat="45.27989" lon="6.17785">
        <ele>1679.56</ele>
        <time>2019-03-28T11:41:44Z</time>
      </trkpt>
      <trkpt lat="45.27986" lon="6.17818">
        <ele>1675.72</ele>
        <time>2019-03-28T11:41:47Z</time>
      </trkpt>
      <trkpt lat="45.27983" lon="6.17847">
        <ele>1673.31</ele>
        <time>2019-03-28T11:41:50Z</time>
      </trkpt>
      <trkpt lat="45.27981" lon="6.1788">
        <ele>1669.95</ele>
        <time>2019-03-28T11:41:54Z</time>
      </trkpt>
      <trkpt lat="45.27979" lon="6.17888">
        <ele>1669.47</ele>
        <time>2019-03-28T11:41:55Z</time>
      </trkpt>
      <trkpt lat="45.27975" lon="6.17895">
        <ele>1668.51</ele>
        <time>2019-03-28T11:41:56Z</time>
      </trkpt>
      <trkpt lat="45.27972" lon="6.17903">
        <ele>1667.54</ele>
        <time>2019-03-28T11:41:57Z</time>
      </trkpt>
      <trkpt lat="45.2797" lon="6.17913">
        <ele>1666.1</ele>
        <time>2019-03-28T11:41:58Z</time>
      </trkpt>
      <trkpt lat="45.27969" lon="6.17923">
        <ele>1665.14</ele>
        <time>2019-03-28T11:41:59Z</time>
      </trkpt>
      <trkpt lat="45.27969" lon="6.17932">
        <ele>1664.18</ele>
        <time>2019-03-28T11:42:00Z</time>
      </trkpt>
      <trkpt lat="45.27969" lon="6.17942">
        <ele>1663.22</ele>
        <time>2019-03-28T11:42:01Z</time>
      </trkpt>
      <trkpt lat="45.27971" lon="6.17958">
        <ele>1661.78</ele>
        <time>2019-03-28T11:42:03Z</time>
      </trkpt>
      <trkpt lat="45.27973" lon="6.17973">
        <ele>1660.33</ele>
        <time>2019-03-28T11:42:06Z</time>
      </trkpt>
      <trkpt lat="45.27973" lon="6.17977">
        <ele>1660.33</ele>
        <time>2019-03-28T11:42:07Z</time>
      </trkpt>
      <trkpt lat="45.2797" lon="6.1798">
        <ele>1659.37</ele>
        <time>2019-03-28T11:42:08Z</time>
      </trkpt>
      <trkpt lat="45.27967" lon="6.17985">
        <ele>1657.93</ele>
        <time>2019-03-28T11:42:09Z</time>
      </trkpt>
      <trkpt lat="45.27965" lon="6.17991">
        <ele>1656.97</ele>
        <time>2019-03-28T11:42:10Z</time>
      </trkpt>
      <trkpt lat="45.27965" lon="6.17998">
        <ele>1655.53</ele>
        <time>2019-03-28T11:42:11Z</time>
      </trkpt>
      <trkpt lat="45.27965" lon="6.1801">
        <ele>1654.09</ele>
        <time>2019-03-28T11:42:13Z</time>
      </trkpt>
      <trkpt lat="45.2797" lon="6.1804">
        <ele>1651.2</ele>
        <time>2019-03-28T11:42:18Z</time>
      </trkpt>
      <trkpt lat="45.2797" lon="6.18047">
        <ele>1650.24</ele>
        <time>2019-03-28T11:42:19Z</time>
      </trkpt>
      <trkpt lat="45.27974" lon="6.1807">
        <ele>1648.32</ele>
        <time>2019-03-28T11:42:22Z</time>
      </trkpt>
      <trkpt lat="45.27976" lon="6.18084">
        <ele>1646.88</ele>
        <time>2019-03-28T11:42:24Z</time>
      </trkpt>
      <trkpt lat="45.27976" lon="6.18088">
        <ele>1646.88</ele>
        <time>2019-03-28T11:42:25Z</time>
      </trkpt>
      <trkpt lat="45.27972" lon="6.18125">
        <ele>1643.51</ele>
        <time>2019-03-28T11:42:30Z</time>
      </trkpt>
      <trkpt lat="45.27974" lon="6.18153">
        <ele>1639.67</ele>
        <time>2019-03-28T11:42:36Z</time>
      </trkpt>
      <trkpt lat="45.27975" lon="6.18169">
        <ele>1635.82</ele>
        <time>2019-03-28T11:42:39Z</time>
      </trkpt>
      <trkpt lat="45.27975" lon="6.18174">
        <ele>1635.34</ele>
        <time>2019-03-28T11:42:40Z</time>
      </trkpt>
      <trkpt lat="45.27977" lon="6.18185">
        <ele>1633.42</ele>
        <time>2019-03-28T11:42:44Z</time>
      </trkpt>
      <trkpt lat="45.27976" lon="6.18188">
        <ele>1632.46</ele>
        <time>2019-03-28T11:42:45Z</time>
      </trkpt>
      <trkpt lat="45.27981" lon="6.18222">
        <ele>1629.09</ele>
        <time>2019-03-28T11:42:50Z</time>
      </trkpt>
      <trkpt lat="45.2798" lon="6.18243">
        <ele>1626.69</ele>
        <time>2019-03-28T11:42:53Z</time>
      </trkpt>
      <trkpt lat="45.27978" lon="6.18252">
        <ele>1625.25</ele>
        <time>2019-03-28T11:42:54Z</time>
      </trkpt>
      <trkpt lat="45.27975" lon="6.18259">
        <ele>1625.25</ele>
        <time>2019-03-28T11:42:55Z</time>
      </trkpt>
      <trkpt lat="45.27952" lon="6.18321">
        <ele>1622.36</ele>
        <time>2019-03-28T11:43:06Z</time>
      </trkpt>
      <trkpt lat="45.27947" lon="6.18373">
        <ele>1619.96</ele>
        <time>2019-03-28T11:43:17Z</time>
      </trkpt>
      <trkpt lat="45.27945" lon="6.18377">
        <ele>1619</ele>
        <time>2019-03-28T11:43:18Z</time>
      </trkpt>
      <trkpt lat="45.27942" lon="6.18379">
        <ele>1618.04</ele>
        <time>2019-03-28T11:43:19Z</time>
      </trkpt>
      <trkpt lat="45.27938" lon="6.18381">
        <ele>1617.07</ele>
        <time>2019-03-28T11:43:20Z</time>
      </trkpt>
      <trkpt lat="45.27937" lon="6.18386">
        <ele>1615.15</ele>
        <time>2019-03-28T11:43:21Z</time>
      </trkpt>
      <trkpt lat="45.27933" lon="6.1839">
        <ele>1614.19</ele>
        <time>2019-03-28T11:43:22Z</time>
      </trkpt>
      <trkpt lat="45.27928" lon="6.18394">
        <ele>1613.23</ele>
        <time>2019-03-28T11:43:23Z</time>
      </trkpt>
      <trkpt lat="45.27925" lon="6.18401">
        <ele>1611.79</ele>
        <time>2019-03-28T11:43:24Z</time>
      </trkpt>
      <trkpt lat="45.2792" lon="6.18409">
        <ele>1610.35</ele>
        <time>2019-03-28T11:43:26Z</time>
      </trkpt>
      <trkpt lat="45.27914" lon="6.18411">
        <ele>1607.94</ele>
        <time>2019-03-28T11:43:28Z</time>
      </trkpt>
      <trkpt lat="45.27912" lon="6.18414">
        <ele>1606.5</ele>
        <time>2019-03-28T11:43:29Z</time>
      </trkpt>
      <trkpt lat="45.27909" lon="6.18414">
        <ele>1605.06</ele>
        <time>2019-03-28T11:43:30Z</time>
      </trkpt>
      <trkpt lat="45.27907" lon="6.18414">
        <ele>1603.62</ele>
        <time>2019-03-28T11:43:31Z</time>
      </trkpt>
      <trkpt lat="45.27905" lon="6.18417">
        <ele>1603.62</ele>
        <time>2019-03-28T11:43:32Z</time>
      </trkpt>
      <trkpt lat="45.27902" lon="6.1842">
        <ele>1601.69</ele>
        <time>2019-03-28T11:43:33Z</time>
      </trkpt>
      <trkpt lat="45.27899" lon="6.18421">
        <ele>1600.25</ele>
        <time>2019-03-28T11:43:34Z</time>
      </trkpt>
      <trkpt lat="45.27896" lon="6.18424">
        <ele>1599.29</ele>
        <time>2019-03-28T11:43:35Z</time>
      </trkpt>
      <trkpt lat="45.27894" lon="6.1843">
        <ele>1598.33</ele>
        <time>2019-03-28T11:43:36Z</time>
      </trkpt>
      <trkpt lat="45.27892" lon="6.18445">
        <ele>1595.45</ele>
        <time>2019-03-28T11:43:38Z</time>
      </trkpt>
      <trkpt lat="45.27891" lon="6.18452">
        <ele>1594</ele>
        <time>2019-03-28T11:43:39Z</time>
      </trkpt>
      <trkpt lat="45.27897" lon="6.18486">
        <ele>1591.12</ele>
        <time>2019-03-28T11:43:45Z</time>
      </trkpt>
      <trkpt lat="45.27899" lon="6.18495">
        <ele>1588.72</ele>
        <time>2019-03-28T11:43:48Z</time>
      </trkpt>
      <trkpt lat="45.27898" lon="6.185">
        <ele>1587.75</ele>
        <time>2019-03-28T11:43:49Z</time>
      </trkpt>
      <trkpt lat="45.27896" lon="6.18509">
        <ele>1586.79</ele>
        <time>2019-03-28T11:43:51Z</time>
      </trkpt>
      <trkpt lat="45.27892" lon="6.18517">
        <ele>1584.87</ele>
        <time>2019-03-28T11:43:53Z</time>
      </trkpt>
      <trkpt lat="45.2789" lon="6.18523">
        <ele>1583.43</ele>
        <time>2019-03-28T11:43:54Z</time>
      </trkpt>
      <trkpt lat="45.27883" lon="6.18526">
        <ele>1581.99</ele>
        <time>2019-03-28T11:43:56Z</time>
      </trkpt>
      <trkpt lat="45.2788" lon="6.18527">
        <ele>1581.03</ele>
        <time>2019-03-28T11:43:57Z</time>
      </trkpt>
      <trkpt lat="45.27878" lon="6.18531">
        <ele>1579.1</ele>
        <time>2019-03-28T11:43:58Z</time>
      </trkpt>
      <trkpt lat="45.27878" lon="6.18538">
        <ele>1578.62</ele>
        <time>2019-03-28T11:43:59Z</time>
      </trkpt>
      <trkpt lat="45.27878" lon="6.18544">
        <ele>1577.18</ele>
        <time>2019-03-28T11:44:00Z</time>
      </trkpt>
      <trkpt lat="45.27878" lon="6.18551">
        <ele>1576.22</ele>
        <time>2019-03-28T11:44:01Z</time>
      </trkpt>
      <trkpt lat="45.27878" lon="6.18556">
        <ele>1574.78</ele>
        <time>2019-03-28T11:44:02Z</time>
      </trkpt>
      <trkpt lat="45.27879" lon="6.18558">
        <ele>1574.3</ele>
        <time>2019-03-28T11:44:03Z</time>
      </trkpt>
      <trkpt lat="45.27867" lon="6.18564">
        <ele>1574.3</ele>
        <time>2019-03-28T11:44:18Z</time>
      </trkpt>
      <trkpt lat="45.27867" lon="6.18569">
        <ele>1574.3</ele>
        <time>2019-03-28T11:44:22Z</time>
      </trkpt>
      <trkpt lat="45.27874" lon="6.18585">
        <ele>1572.85</ele>
        <time>2019-03-28T11:44:26Z</time>
      </trkpt>
      <trkpt lat="45.27878" lon="6.18597">
        <ele>1570.93</ele>
        <time>2019-03-28T11:44:28Z</time>
      </trkpt>
      <trkpt lat="45.27876" lon="6.18628">
        <ele>1568.05</ele>
        <time>2019-03-28T11:44:31Z</time>
      </trkpt>
      <trkpt lat="45.27867" lon="6.18664">
        <ele>1564.68</ele>
        <time>2019-03-28T11:44:35Z</time>
      </trkpt>
      <trkpt lat="45.27866" lon="6.18681">
        <ele>1562.76</ele>
        <time>2019-03-28T11:44:37Z</time>
      </trkpt>
      <trkpt lat="45.27869" lon="6.18696">
        <ele>1561.8</ele>
        <time>2019-03-28T11:44:39Z</time>
      </trkpt>
      <trkpt lat="45.27872" lon="6.18717">
        <ele>1560.36</ele>
        <time>2019-03-28T11:44:42Z</time>
      </trkpt>
      <trkpt lat="45.27873" lon="6.18733">
        <ele>1558.92</ele>
        <time>2019-03-28T11:44:45Z</time>
      </trkpt>
      <trkpt lat="45.27878" lon="6.18769">
        <ele>1556.99</ele>
        <time>2019-03-28T11:44:53Z</time>
      </trkpt>
      <trkpt lat="45.27883" lon="6.18788">
        <ele>1556.51</ele>
        <time>2019-03-28T11:44:57Z</time>
      </trkpt>
      <trkpt lat="45.27881" lon="6.18843">
        <ele>1555.55</ele>
        <time>2019-03-28T11:45:10Z</time>
      </trkpt>
      <trkpt lat="45.2787" lon="6.1888">
        <ele>1553.15</ele>
        <time>2019-03-28T11:45:22Z</time>
      </trkpt>
      <trkpt lat="45.27863" lon="6.18912">
        <ele>1550.74</ele>
        <time>2019-03-28T11:45:30Z</time>
      </trkpt>
      <trkpt lat="45.27864" lon="6.1892">
        <ele>1549.78</ele>
        <time>2019-03-28T11:45:46Z</time>
      </trkpt>
      <trkpt lat="45.27891" lon="6.18901">
        <ele>1551.22</ele>
        <time>2019-03-28T11:46:23Z</time>
      </trkpt>
      <trkpt lat="45.27904" lon="6.18876">
        <ele>1550.26</ele>
        <time>2019-03-28T11:46:53Z</time>
      </trkpt>
      <trkpt lat="45.27901" lon="6.18876">
        <ele>1551.22</ele>
        <time>2019-03-28T11:46:54Z</time>
      </trkpt>
      <trkpt lat="45.27887" lon="6.18887">
        <ele>1551.22</ele>
        <time>2019-03-28T11:47:07Z</time>
      </trkpt>
      <trkpt lat="45.27887" lon="6.18891">
        <ele>1551.22</ele>
        <time>2019-03-28T11:47:17Z</time>
      </trkpt>
      <trkpt lat="45.27883" lon="6.18907">
        <ele>1549.3</ele>
        <time>2019-03-28T11:47:26Z</time>
      </trkpt>
      <trkpt lat="45.27886" lon="6.189">
        <ele>1548.82</ele>
        <time>2019-03-28T11:47:50Z</time>
      </trkpt>
      <trkpt lat="45.27885" lon="6.18906">
        <ele>1548.34</ele>
        <time>2019-03-28T11:48:05Z</time>
      </trkpt>
      <trkpt lat="45.27882" lon="6.1892">
        <ele>1546.9</ele>
        <time>2019-03-28T11:48:14Z</time>
      </trkpt>
      <trkpt lat="45.27885" lon="6.1893">
        <ele>1544.5</ele>
        <time>2019-03-28T11:48:19Z</time>
      </trkpt>
      <trkpt lat="45.27884" lon="6.18933">
        <ele>1544.01</ele>
        <time>2019-03-28T11:48:40Z</time>
      </trkpt>
      <trkpt lat="45.27886" lon="6.18931">
        <ele>1543.53</ele>
        <time>2019-03-28T11:48:57Z</time>
      </trkpt>
      <trkpt lat="45.2789" lon="6.18937">
        <ele>1543.05</ele>
        <time>2019-03-28T11:49:11Z</time>
      </trkpt>
      <trkpt lat="45.27893" lon="6.18937">
        <ele>1543.05</ele>
        <time>2019-03-28T11:49:24Z</time>
      </trkpt>
      <trkpt lat="45.27895" lon="6.18943">
        <ele>1542.09</ele>
        <time>2019-03-28T11:49:42Z</time>
      </trkpt>
      <trkpt lat="45.27895" lon="6.18939">
        <ele>1541.61</ele>
        <time>2019-03-28T11:50:02Z</time>
      </trkpt>
      <trkpt lat="45.27895" lon="6.18939">
        <ele>1541.61</ele>
        <time>2019-03-28T11:50:17Z</time>
      </trkpt>
      <trkpt lat="45.27894" lon="6.18938">
        <ele>1541.13</ele>
        <time>2019-03-28T11:50:39Z</time>
      </trkpt>
      <trkpt lat="45.27896" lon="6.18938">
        <ele>1540.65</ele>
        <time>2019-03-28T11:50:59Z</time>
      </trkpt>
      <trkpt lat="45.27896" lon="6.18937">
        <ele>1540.65</ele>
        <time>2019-03-28T11:51:01Z</time>
      </trkpt>
      <trkpt lat="45.27894" lon="6.18939">
        <ele>1540.17</ele>
        <time>2019-03-28T11:51:03Z</time>
      </trkpt>
      <trkpt lat="45.27886" lon="6.18978">
        <ele>1536.8</ele>
        <time>2019-03-28T11:51:12Z</time>
      </trkpt>
      <trkpt lat="45.27885" lon="6.18985">
        <ele>1535.84</ele>
        <time>2019-03-28T11:51:14Z</time>
      </trkpt>
      <trkpt lat="45.27884" lon="6.19001">
        <ele>1534.88</ele>
        <time>2019-03-28T11:51:17Z</time>
      </trkpt>
      <trkpt lat="45.2788" lon="6.1902">
        <ele>1530.56</ele>
        <time>2019-03-28T11:51:21Z</time>
      </trkpt>
      <trkpt lat="45.27876" lon="6.19027">
        <ele>1527.19</ele>
        <time>2019-03-28T11:51:23Z</time>
      </trkpt>
      <trkpt lat="45.27872" lon="6.19046">
        <ele>1522.87</ele>
        <time>2019-03-28T11:51:26Z</time>
      </trkpt>
      <trkpt lat="45.27871" lon="6.19065">
        <ele>1519.98</ele>
        <time>2019-03-28T11:51:28Z</time>
      </trkpt>
      <trkpt lat="45.27872" lon="6.19083">
        <ele>1518.54</ele>
        <time>2019-03-28T11:51:30Z</time>
      </trkpt>
      <trkpt lat="45.27875" lon="6.1911">
        <ele>1515.18</ele>
        <time>2019-03-28T11:51:34Z</time>
      </trkpt>
      <trkpt lat="45.27875" lon="6.19114">
        <ele>1514.21</ele>
        <time>2019-03-28T11:51:35Z</time>
      </trkpt>
      <trkpt lat="45.27875" lon="6.1912">
        <ele>1513.73</ele>
        <time>2019-03-28T11:51:36Z</time>
      </trkpt>
      <trkpt lat="45.27875" lon="6.19126">
        <ele>1512.77</ele>
        <time>2019-03-28T11:51:37Z</time>
      </trkpt>
      <trkpt lat="45.27875" lon="6.19141">
        <ele>1509.41</ele>
        <time>2019-03-28T11:51:45Z</time>
      </trkpt>
      <trkpt lat="45.27871" lon="6.19143">
        <ele>1509.41</ele>
        <time>2019-03-28T11:51:49Z</time>
      </trkpt>
      <trkpt lat="45.27873" lon="6.19145">
        <ele>1508.93</ele>
        <time>2019-03-28T11:51:50Z</time>
      </trkpt>
      <trkpt lat="45.27875" lon="6.19148">
        <ele>1508.93</ele>
        <time>2019-03-28T11:51:51Z</time>
      </trkpt>
      <trkpt lat="45.27877" lon="6.19152">
        <ele>1507.97</ele>
        <time>2019-03-28T11:51:52Z</time>
      </trkpt>
      <trkpt lat="45.27878" lon="6.19157">
        <ele>1506.52</ele>
        <time>2019-03-28T11:51:53Z</time>
      </trkpt>
      <trkpt lat="45.27879" lon="6.19172">
        <ele>1505.08</ele>
        <time>2019-03-28T11:51:55Z</time>
      </trkpt>
      <trkpt lat="45.27878" lon="6.1918">
        <ele>1504.6</ele>
        <time>2019-03-28T11:51:56Z</time>
      </trkpt>
      <trkpt lat="45.27878" lon="6.19187">
        <ele>1503.64</ele>
        <time>2019-03-28T11:51:57Z</time>
      </trkpt>
      <trkpt lat="45.27878" lon="6.19194">
        <ele>1503.16</ele>
        <time>2019-03-28T11:51:58Z</time>
      </trkpt>
      <trkpt lat="45.27878" lon="6.192">
        <ele>1503.16</ele>
        <time>2019-03-28T11:51:59Z</time>
      </trkpt>
      <trkpt lat="45.27879" lon="6.19205">
        <ele>1502.68</ele>
        <time>2019-03-28T11:52:00Z</time>
      </trkpt>
      <trkpt lat="45.2788" lon="6.19211">
        <ele>1502.2</ele>
        <time>2019-03-28T11:52:01Z</time>
      </trkpt>
      <trkpt lat="45.27886" lon="6.19234">
        <ele>1499.79</ele>
        <time>2019-03-28T11:52:05Z</time>
      </trkpt>
      <trkpt lat="45.27888" lon="6.1924">
        <ele>1499.79</ele>
        <time>2019-03-28T11:52:06Z</time>
      </trkpt>
      <trkpt lat="45.2789" lon="6.19254">
        <ele>1498.35</ele>
        <time>2019-03-28T11:52:08Z</time>
      </trkpt>
      <trkpt lat="45.27892" lon="6.19261">
        <ele>1497.87</ele>
        <time>2019-03-28T11:52:09Z</time>
      </trkpt>
      <trkpt lat="45.27894" lon="6.19268">
        <ele>1496.43</ele>
        <time>2019-03-28T11:52:10Z</time>
      </trkpt>
      <trkpt lat="45.27896" lon="6.19275">
        <ele>1495.95</ele>
        <time>2019-03-28T11:52:11Z</time>
      </trkpt>
      <trkpt lat="45.27897" lon="6.19282">
        <ele>1495.47</ele>
        <time>2019-03-28T11:52:12Z</time>
      </trkpt>
      <trkpt lat="45.27897" lon="6.19288">
        <ele>1494.51</ele>
        <time>2019-03-28T11:52:13Z</time>
      </trkpt>
      <trkpt lat="45.27899" lon="6.19295">
        <ele>1493.06</ele>
        <time>2019-03-28T11:52:14Z</time>
      </trkpt>
      <trkpt lat="45.279" lon="6.19302">
        <ele>1492.1</ele>
        <time>2019-03-28T11:52:15Z</time>
      </trkpt>
      <trkpt lat="45.27901" lon="6.1931">
        <ele>1491.62</ele>
        <time>2019-03-28T11:52:16Z</time>
      </trkpt>
      <trkpt lat="45.27902" lon="6.19317">
        <ele>1490.18</ele>
        <time>2019-03-28T11:52:17Z</time>
      </trkpt>
      <trkpt lat="45.27903" lon="6.19324">
        <ele>1489.22</ele>
        <time>2019-03-28T11:52:18Z</time>
      </trkpt>
      <trkpt lat="45.27904" lon="6.19331">
        <ele>1487.78</ele>
        <time>2019-03-28T11:52:19Z</time>
      </trkpt>
      <trkpt lat="45.27904" lon="6.19339">
        <ele>1486.82</ele>
        <time>2019-03-28T11:52:20Z</time>
      </trkpt>
      <trkpt lat="45.27906" lon="6.19345">
        <ele>1485.85</ele>
        <time>2019-03-28T11:52:21Z</time>
      </trkpt>
      <trkpt lat="45.27907" lon="6.19352">
        <ele>1484.41</ele>
        <time>2019-03-28T11:52:22Z</time>
      </trkpt>
      <trkpt lat="45.27907" lon="6.19358">
        <ele>1483.45</ele>
        <time>2019-03-28T11:52:23Z</time>
      </trkpt>
      <trkpt lat="45.27907" lon="6.19365">
        <ele>1482.49</ele>
        <time>2019-03-28T11:52:24Z</time>
      </trkpt>
      <trkpt lat="45.27908" lon="6.1937">
        <ele>1481.53</ele>
        <time>2019-03-28T11:52:25Z</time>
      </trkpt>
      <trkpt lat="45.2791" lon="6.19374">
        <ele>1480.57</ele>
        <time>2019-03-28T11:52:26Z</time>
      </trkpt>
      <trkpt lat="45.27911" lon="6.19379">
        <ele>1479.61</ele>
        <time>2019-03-28T11:52:27Z</time>
      </trkpt>
      <trkpt lat="45.27913" lon="6.19383">
        <ele>1478.65</ele>
        <time>2019-03-28T11:52:28Z</time>
      </trkpt>
      <trkpt lat="45.27915" lon="6.19385">
        <ele>1477.2</ele>
        <time>2019-03-28T11:52:29Z</time>
      </trkpt>
      <trkpt lat="45.27919" lon="6.19389">
        <ele>1476.72</ele>
        <time>2019-03-28T11:52:30Z</time>
      </trkpt>
      <trkpt lat="45.27921" lon="6.19393">
        <ele>1476.24</ele>
        <time>2019-03-28T11:52:31Z</time>
      </trkpt>
      <trkpt lat="45.27923" lon="6.19398">
        <ele>1475.28</ele>
        <time>2019-03-28T11:52:32Z</time>
      </trkpt>
      <trkpt lat="45.27924" lon="6.19402">
        <ele>1474.8</ele>
        <time>2019-03-28T11:52:33Z</time>
      </trkpt>
      <trkpt lat="45.27926" lon="6.19404">
        <ele>1474.32</ele>
        <time>2019-03-28T11:52:34Z</time>
      </trkpt>
      <trkpt lat="45.27928" lon="6.19406">
        <ele>1474.32</ele>
        <time>2019-03-28T11:52:35Z</time>
      </trkpt>
      <trkpt lat="45.2793" lon="6.19409">
        <ele>1473.84</ele>
        <time>2019-03-28T11:52:36Z</time>
      </trkpt>
      <trkpt lat="45.27932" lon="6.19413">
        <ele>1473.36</ele>
        <time>2019-03-28T11:52:37Z</time>
      </trkpt>
      <trkpt lat="45.2795" lon="6.19439">
        <ele>1470.47</ele>
        <time>2019-03-28T11:52:47Z</time>
      </trkpt>
      <trkpt lat="45.27968" lon="6.19477">
        <ele>1469.03</ele>
        <time>2019-03-28T11:52:57Z</time>
      </trkpt>
      <trkpt lat="45.2798" lon="6.19509">
        <ele>1468.07</ele>
        <time>2019-03-28T11:53:10Z</time>
      </trkpt>
      <trkpt lat="45.27984" lon="6.19515">
        <ele>1468.07</ele>
        <time>2019-03-28T11:53:22Z</time>
      </trkpt>
      <trkpt lat="45.27986" lon="6.19519">
        <ele>1467.59</ele>
        <time>2019-03-28T11:53:35Z</time>
      </trkpt>
      <trkpt lat="45.27983" lon="6.19518">
        <ele>1465.67</ele>
        <time>2019-03-28T11:53:46Z</time>
      </trkpt>
      <trkpt lat="45.27983" lon="6.19516">
        <ele>1465.67</ele>
        <time>2019-03-28T11:53:48Z</time>
      </trkpt>
      <trkpt lat="45.27975" lon="6.19508">
        <ele>1464.71</ele>
        <time>2019-03-28T11:53:53Z</time>
      </trkpt>
      <trkpt lat="45.27969" lon="6.195">
        <ele>1464.23</ele>
        <time>2019-03-28T11:53:58Z</time>
      </trkpt>
      <trkpt lat="45.27968" lon="6.19517">
        <ele>1461.82</ele>
        <time>2019-03-28T11:54:03Z</time>
      </trkpt>
      <trkpt lat="45.2797" lon="6.19521">
        <ele>1461.34</ele>
        <time>2019-03-28T11:54:04Z</time>
      </trkpt>
      <trkpt lat="45.27971" lon="6.19527">
        <ele>1460.38</ele>
        <time>2019-03-28T11:54:14Z</time>
      </trkpt>
      <trkpt lat="45.27969" lon="6.19527">
        <ele>1460.38</ele>
        <time>2019-03-28T11:54:27Z</time>
      </trkpt>
      <trkpt lat="45.27969" lon="6.1953">
        <ele>1459.9</ele>
        <time>2019-03-28T11:54:28Z</time>
      </trkpt>
      <trkpt lat="45.27969" lon="6.19533">
        <ele>1459.9</ele>
        <time>2019-03-28T11:54:29Z</time>
      </trkpt>
      <trkpt lat="45.27975" lon="6.19555">
        <ele>1457.02</ele>
        <time>2019-03-28T11:54:35Z</time>
      </trkpt>
      <trkpt lat="45.27987" lon="6.19584">
        <ele>1455.57</ele>
        <time>2019-03-28T11:54:48Z</time>
      </trkpt>
      <trkpt lat="45.27996" lon="6.19598">
        <ele>1452.21</ele>
        <time>2019-03-28T11:54:58Z</time>
      </trkpt>
      <trkpt lat="45.27996" lon="6.196">
        <ele>1452.21</ele>
        <time>2019-03-28T11:54:59Z</time>
      </trkpt>
      <trkpt lat="45.27995" lon="6.19602">
        <ele>1449.81</ele>
        <time>2019-03-28T11:55:00Z</time>
      </trkpt>
      <trkpt lat="45.27994" lon="6.19606">
        <ele>1449.32</ele>
        <time>2019-03-28T11:55:01Z</time>
      </trkpt>
      <trkpt lat="45.27995" lon="6.19612">
        <ele>1448.36</ele>
        <time>2019-03-28T11:55:07Z</time>
      </trkpt>
      <trkpt lat="45.27992" lon="6.19624">
        <ele>1445</ele>
        <time>2019-03-28T11:55:11Z</time>
      </trkpt>
      <trkpt lat="45.27992" lon="6.19629">
        <ele>1443.56</ele>
        <time>2019-03-28T11:55:12Z</time>
      </trkpt>
      <trkpt lat="45.27994" lon="6.19635">
        <ele>1442.11</ele>
        <time>2019-03-28T11:55:13Z</time>
      </trkpt>
      <trkpt lat="45.27997" lon="6.1964">
        <ele>1441.63</ele>
        <time>2019-03-28T11:55:14Z</time>
      </trkpt>
      <trkpt lat="45.27999" lon="6.19644">
        <ele>1439.71</ele>
        <time>2019-03-28T11:55:15Z</time>
      </trkpt>
      <trkpt lat="45.27999" lon="6.19647">
        <ele>1438.75</ele>
        <time>2019-03-28T11:55:16Z</time>
      </trkpt>
      <trkpt lat="45.27998" lon="6.19651">
        <ele>1436.83</ele>
        <time>2019-03-28T11:55:17Z</time>
      </trkpt>
      <trkpt lat="45.28" lon="6.19657">
        <ele>1435.87</ele>
        <time>2019-03-28T11:55:18Z</time>
      </trkpt>
      <trkpt lat="45.28001" lon="6.19662">
        <ele>1435.39</ele>
        <time>2019-03-28T11:55:19Z</time>
      </trkpt>
      <trkpt lat="45.28005" lon="6.19672">
        <ele>1433.94</ele>
        <time>2019-03-28T11:55:21Z</time>
      </trkpt>
      <trkpt lat="45.28006" lon="6.19678">
        <ele>1432.98</ele>
        <time>2019-03-28T11:55:22Z</time>
      </trkpt>
      <trkpt lat="45.28008" lon="6.19689">
        <ele>1431.54</ele>
        <time>2019-03-28T11:55:24Z</time>
      </trkpt>
      <trkpt lat="45.28008" lon="6.19695">
        <ele>1430.58</ele>
        <time>2019-03-28T11:55:25Z</time>
      </trkpt>
      <trkpt lat="45.28009" lon="6.19701">
        <ele>1430.1</ele>
        <time>2019-03-28T11:55:26Z</time>
      </trkpt>
      <trkpt lat="45.2801" lon="6.19707">
        <ele>1428.66</ele>
        <time>2019-03-28T11:55:27Z</time>
      </trkpt>
      <trkpt lat="45.28017" lon="6.19727">
        <ele>1425.29</ele>
        <time>2019-03-28T11:55:32Z</time>
      </trkpt>
      <trkpt lat="45.28018" lon="6.19729">
        <ele>1425.29</ele>
        <time>2019-03-28T11:55:33Z</time>
      </trkpt>
      <trkpt lat="45.28024" lon="6.19756">
        <ele>1423.37</ele>
        <time>2019-03-28T11:55:39Z</time>
      </trkpt>
      <trkpt lat="45.28029" lon="6.19783">
        <ele>1420.97</ele>
        <time>2019-03-28T11:55:44Z</time>
      </trkpt>
      <trkpt lat="45.28029" lon="6.19829">
        <ele>1417.12</ele>
        <time>2019-03-28T11:55:52Z</time>
      </trkpt>
      <trkpt lat="45.28028" lon="6.19834">
        <ele>1417.12</ele>
        <time>2019-03-28T11:55:53Z</time>
      </trkpt>
      <trkpt lat="45.28025" lon="6.1988">
        <ele>1415.2</ele>
        <time>2019-03-28T11:56:05Z</time>
      </trkpt>
      <trkpt lat="45.28029" lon="6.19912">
        <ele>1413.76</ele>
        <time>2019-03-28T11:56:17Z</time>
      </trkpt>
      <trkpt lat="45.2803" lon="6.19915">
        <ele>1413.28</ele>
        <time>2019-03-28T11:56:19Z</time>
      </trkpt>
      <trkpt lat="45.28032" lon="6.19915">
        <ele>1412.79</ele>
        <time>2019-03-28T11:56:20Z</time>
      </trkpt>
      <trkpt lat="45.28033" lon="6.19919">
        <ele>1412.31</ele>
        <time>2019-03-28T11:56:27Z</time>
      </trkpt>
      <trkpt lat="45.28034" lon="6.1992">
        <ele>1412.31</ele>
        <time>2019-03-28T11:56:28Z</time>
      </trkpt>
      <trkpt lat="45.28039" lon="6.19927">
        <ele>1411.35</ele>
        <time>2019-03-28T11:56:40Z</time>
      </trkpt>
      <trkpt lat="45.28045" lon="6.19928">
        <ele>1411.35</ele>
        <time>2019-03-28T11:56:59Z</time>
      </trkpt>
      <trkpt lat="45.2805" lon="6.19933">
        <ele>1410.87</ele>
        <time>2019-03-28T11:57:19Z</time>
      </trkpt>
      <trkpt lat="45.28053" lon="6.19932">
        <ele>1409.91</ele>
        <time>2019-03-28T11:57:37Z</time>
      </trkpt>
      <trkpt lat="45.28061" lon="6.19938">
        <ele>1409.91</ele>
        <time>2019-03-28T11:58:27Z</time>
      </trkpt>
      <trkpt lat="45.2806" lon="6.19938">
        <ele>1407.03</ele>
        <time>2019-03-28T11:58:53Z</time>
      </trkpt>
      <trkpt lat="45.2806" lon="6.19937">
        <ele>1411.83</ele>
        <time>2019-03-28T11:58:54Z</time>
      </trkpt>
      <trkpt lat="45.2806" lon="6.19937">
        <ele>1408.47</ele>
        <time>2019-03-28T11:58:57Z</time>
      </trkpt>
      <trkpt lat="45.28059" lon="6.19937">
        <ele>1407.99</ele>
        <time>2019-03-28T11:59:29Z</time>
      </trkpt>
      <trkpt lat="45.28061" lon="6.19937">
        <ele>1407.03</ele>
        <time>2019-03-28T11:59:52Z</time>
      </trkpt>
      <trkpt lat="45.28057" lon="6.19937">
        <ele>1407.03</ele>
        <time>2019-03-28T12:00:20Z</time>
      </trkpt>
      <trkpt lat="45.28056" lon="6.19933">
        <ele>1407.03</ele>
        <time>2019-03-28T12:00:44Z</time>
      </trkpt>
      <trkpt lat="45.28057" lon="6.19937">
        <ele>1408.47</ele>
        <time>2019-03-28T12:00:59Z</time>
      </trkpt>
      <trkpt lat="45.28058" lon="6.19941">
        <ele>1407.03</ele>
        <time>2019-03-28T12:01:13Z</time>
      </trkpt>
      <trkpt lat="45.28056" lon="6.19946">
        <ele>1406.07</ele>
        <time>2019-03-28T12:01:33Z</time>
      </trkpt>
      <trkpt lat="45.28061" lon="6.19956">
        <ele>1405.1</ele>
        <time>2019-03-28T12:01:48Z</time>
      </trkpt>
      <trkpt lat="45.28064" lon="6.19966">
        <ele>1405.1</ele>
        <time>2019-03-28T12:02:02Z</time>
      </trkpt>
      <trkpt lat="45.28071" lon="6.19981">
        <ele>1406.07</ele>
        <time>2019-03-28T12:02:16Z</time>
      </trkpt>
      <trkpt lat="45.28074" lon="6.19991">
        <ele>1406.55</ele>
        <time>2019-03-28T12:02:28Z</time>
      </trkpt>
      <trkpt lat="45.2808" lon="6.2">
        <ele>1406.55</ele>
        <time>2019-03-28T12:02:40Z</time>
      </trkpt>
      <trkpt lat="45.28084" lon="6.20006">
        <ele>1407.99</ele>
        <time>2019-03-28T12:02:54Z</time>
      </trkpt>
      <trkpt lat="45.28086" lon="6.20014">
        <ele>1408.47</ele>
        <time>2019-03-28T12:03:07Z</time>
      </trkpt>
      <trkpt lat="45.28091" lon="6.20019">
        <ele>1409.43</ele>
        <time>2019-03-28T12:03:19Z</time>
      </trkpt>
      <trkpt lat="45.281" lon="6.20029">
        <ele>1410.87</ele>
        <time>2019-03-28T12:03:34Z</time>
      </trkpt>
      <trkpt lat="45.28105" lon="6.20038">
        <ele>1409.91</ele>
        <time>2019-03-28T12:03:46Z</time>
      </trkpt>
      <trkpt lat="45.28108" lon="6.20046">
        <ele>1407.99</ele>
        <time>2019-03-28T12:04:01Z</time>
      </trkpt>
      <trkpt lat="45.28117" lon="6.20061">
        <ele>1405.1</ele>
        <time>2019-03-28T12:04:14Z</time>
      </trkpt>
      <trkpt lat="45.28127" lon="6.20076">
        <ele>1401.74</ele>
        <time>2019-03-28T12:04:27Z</time>
      </trkpt>
      <trkpt lat="45.28126" lon="6.20079">
        <ele>1401.74</ele>
        <time>2019-03-28T12:04:29Z</time>
      </trkpt>
      <trkpt lat="45.28126" lon="6.20083">
        <ele>1400.3</ele>
        <time>2019-03-28T12:04:31Z</time>
      </trkpt>
      <trkpt lat="45.28138" lon="6.20101">
        <ele>1397.89</ele>
        <time>2019-03-28T12:04:46Z</time>
      </trkpt>
      <trkpt lat="45.28145" lon="6.2011">
        <ele>1396.45</ele>
        <time>2019-03-28T12:04:54Z</time>
      </trkpt>
      <trkpt lat="45.28156" lon="6.20123">
        <ele>1394.05</ele>
        <time>2019-03-28T12:05:07Z</time>
      </trkpt>
      <trkpt lat="45.28167" lon="6.20123">
        <ele>1391.65</ele>
        <time>2019-03-28T12:05:19Z</time>
      </trkpt>
      <trkpt lat="45.28175" lon="6.20139">
        <ele>1388.76</ele>
        <time>2019-03-28T12:05:32Z</time>
      </trkpt>
      <trkpt lat="45.28182" lon="6.20151">
        <ele>1386.84</ele>
        <time>2019-03-28T12:05:43Z</time>
      </trkpt>
      <trkpt lat="45.28183" lon="6.20152">
        <ele>1386.36</ele>
        <time>2019-03-28T12:05:44Z</time>
      </trkpt>
      <trkpt lat="45.28193" lon="6.20172">
        <ele>1383.47</ele>
        <time>2019-03-28T12:05:57Z</time>
      </trkpt>
      <trkpt lat="45.28203" lon="6.20189">
        <ele>1381.07</ele>
        <time>2019-03-28T12:06:09Z</time>
      </trkpt>
      <trkpt lat="45.28205" lon="6.20191">
        <ele>1380.59</ele>
        <time>2019-03-28T12:06:11Z</time>
      </trkpt>
      <trkpt lat="45.28207" lon="6.20192">
        <ele>1379.63</ele>
        <time>2019-03-28T12:06:13Z</time>
      </trkpt>
      <trkpt lat="45.28209" lon="6.20211">
        <ele>1379.15</ele>
        <time>2019-03-28T12:06:24Z</time>
      </trkpt>
      <trkpt lat="45.28212" lon="6.20216">
        <ele>1378.67</ele>
        <time>2019-03-28T12:06:27Z</time>
      </trkpt>
      <trkpt lat="45.28215" lon="6.20221">
        <ele>1378.19</ele>
        <time>2019-03-28T12:06:30Z</time>
      </trkpt>
      <trkpt lat="45.28219" lon="6.20231">
        <ele>1377.23</ele>
        <time>2019-03-28T12:06:36Z</time>
      </trkpt>
      <trkpt lat="45.2822" lon="6.20238">
        <ele>1375.78</ele>
        <time>2019-03-28T12:06:40Z</time>
      </trkpt>
      <trkpt lat="45.28219" lon="6.20244">
        <ele>1375.78</ele>
        <time>2019-03-28T12:06:42Z</time>
      </trkpt>
      <trkpt lat="45.2822" lon="6.20246">
        <ele>1374.34</ele>
        <time>2019-03-28T12:06:44Z</time>
      </trkpt>
      <trkpt lat="45.28229" lon="6.20262">
        <ele>1371.46</ele>
        <time>2019-03-28T12:06:56Z</time>
      </trkpt>
      <trkpt lat="45.28229" lon="6.20264">
        <ele>1370.98</ele>
        <time>2019-03-28T12:06:57Z</time>
      </trkpt>
      <trkpt lat="45.2824" lon="6.20272">
        <ele>1370.02</ele>
        <time>2019-03-28T12:07:07Z</time>
      </trkpt>
      <trkpt lat="45.28239" lon="6.20275">
        <ele>1370.02</ele>
        <time>2019-03-28T12:07:08Z</time>
      </trkpt>
      <trkpt lat="45.28241" lon="6.20279">
        <ele>1369.54</ele>
        <time>2019-03-28T12:07:11Z</time>
      </trkpt>
      <trkpt lat="45.28251" lon="6.2029">
        <ele>1367.13</ele>
        <time>2019-03-28T12:07:22Z</time>
      </trkpt>
      <trkpt lat="45.28254" lon="6.20292">
        <ele>1366.17</ele>
        <time>2019-03-28T12:07:26Z</time>
      </trkpt>
      <trkpt lat="45.28269" lon="6.20296">
        <ele>1365.69</ele>
        <time>2019-03-28T12:07:37Z</time>
      </trkpt>
      <trkpt lat="45.28278" lon="6.20303">
        <ele>1365.21</ele>
        <time>2019-03-28T12:07:45Z</time>
      </trkpt>
      <trkpt lat="45.28276" lon="6.20306">
        <ele>1365.21</ele>
        <time>2019-03-28T12:07:47Z</time>
      </trkpt>
      <trkpt lat="45.28284" lon="6.20308">
        <ele>1364.25</ele>
        <time>2019-03-28T12:07:54Z</time>
      </trkpt>
      <trkpt lat="45.28284" lon="6.2031">
        <ele>1364.25</ele>
        <time>2019-03-28T12:07:55Z</time>
      </trkpt>
      <trkpt lat="45.28287" lon="6.20313">
        <ele>1362.81</ele>
        <time>2019-03-28T12:07:59Z</time>
      </trkpt>
      <trkpt lat="45.28289" lon="6.20315">
        <ele>1362.33</ele>
        <time>2019-03-28T12:08:01Z</time>
      </trkpt>
      <trkpt lat="45.28292" lon="6.20326">
        <ele>1360.88</ele>
        <time>2019-03-28T12:08:08Z</time>
      </trkpt>
      <trkpt lat="45.28292" lon="6.20327">
        <ele>1359.92</ele>
        <time>2019-03-28T12:08:09Z</time>
      </trkpt>
      <trkpt lat="45.28294" lon="6.20328">
        <ele>1360.4</ele>
        <time>2019-03-28T12:08:10Z</time>
      </trkpt>
      <trkpt lat="45.28316" lon="6.20332">
        <ele>1358.96</ele>
        <time>2019-03-28T12:08:18Z</time>
      </trkpt>
      <trkpt lat="45.28316" lon="6.20345">
        <ele>1358</ele>
        <time>2019-03-28T12:08:30Z</time>
      </trkpt>
      <trkpt lat="45.28315" lon="6.20347">
        <ele>1358.48</ele>
        <time>2019-03-28T12:08:31Z</time>
      </trkpt>
      <trkpt lat="45.28315" lon="6.20352">
        <ele>1357.52</ele>
        <time>2019-03-28T12:08:41Z</time>
      </trkpt>
      <trkpt lat="45.28315" lon="6.20354">
        <ele>1357.52</ele>
        <time>2019-03-28T12:08:42Z</time>
      </trkpt>
      <trkpt lat="45.28322" lon="6.20362">
        <ele>1355.12</ele>
        <time>2019-03-28T12:08:54Z</time>
      </trkpt>
      <trkpt lat="45.28322" lon="6.2037">
        <ele>1352.71</ele>
        <time>2019-03-28T12:09:01Z</time>
      </trkpt>
      <trkpt lat="45.28319" lon="6.20377">
        <ele>1351.27</ele>
        <time>2019-03-28T12:09:07Z</time>
      </trkpt>
      <trkpt lat="45.28316" lon="6.20374">
        <ele>1350.31</ele>
        <time>2019-03-28T12:09:11Z</time>
      </trkpt>
      <trkpt lat="45.28315" lon="6.20374">
        <ele>1349.35</ele>
        <time>2019-03-28T12:09:14Z</time>
      </trkpt>
      <trkpt lat="45.28313" lon="6.20378">
        <ele>1349.35</ele>
        <time>2019-03-28T12:09:18Z</time>
      </trkpt>
      <trkpt lat="45.28319" lon="6.20395">
        <ele>1346.46</ele>
        <time>2019-03-28T12:09:31Z</time>
      </trkpt>
      <trkpt lat="45.28326" lon="6.20412">
        <ele>1345.5</ele>
        <time>2019-03-28T12:09:42Z</time>
      </trkpt>
      <trkpt lat="45.28326" lon="6.20416">
        <ele>1344.06</ele>
        <time>2019-03-28T12:09:45Z</time>
      </trkpt>
      <trkpt lat="45.28336" lon="6.20429">
        <ele>1341.66</ele>
        <time>2019-03-28T12:09:58Z</time>
      </trkpt>
      <trkpt lat="45.28345" lon="6.20445">
        <ele>1338.77</ele>
        <time>2019-03-28T12:10:11Z</time>
      </trkpt>
      <trkpt lat="45.28346" lon="6.20457">
        <ele>1337.33</ele>
        <time>2019-03-28T12:10:18Z</time>
      </trkpt>
      <trkpt lat="45.28347" lon="6.20472">
        <ele>1335.41</ele>
        <time>2019-03-28T12:10:27Z</time>
      </trkpt>
      <trkpt lat="45.28343" lon="6.20488">
        <ele>1333.97</ele>
        <time>2019-03-28T12:10:36Z</time>
      </trkpt>
      <trkpt lat="45.2834" lon="6.20504">
        <ele>1333.01</ele>
        <time>2019-03-28T12:10:47Z</time>
      </trkpt>
      <trkpt lat="45.28323" lon="6.20536">
        <ele>1332.52</ele>
        <time>2019-03-28T12:10:58Z</time>
      </trkpt>
      <trkpt lat="45.28318" lon="6.20545">
        <ele>1332.04</ele>
        <time>2019-03-28T12:11:01Z</time>
      </trkpt>
      <trkpt lat="45.28313" lon="6.20566">
        <ele>1330.12</ele>
        <time>2019-03-28T12:11:13Z</time>
      </trkpt>
      <trkpt lat="45.28319" lon="6.20571">
        <ele>1329.64</ele>
        <time>2019-03-28T12:11:17Z</time>
      </trkpt>
      <trkpt lat="45.28323" lon="6.20575">
        <ele>1329.16</ele>
        <time>2019-03-28T12:11:19Z</time>
      </trkpt>
      <trkpt lat="45.28319" lon="6.20584">
        <ele>1327.24</ele>
        <time>2019-03-28T12:11:29Z</time>
      </trkpt>
      <trkpt lat="45.28313" lon="6.20605">
        <ele>1324.35</ele>
        <time>2019-03-28T12:11:38Z</time>
      </trkpt>
      <trkpt lat="45.28316" lon="6.20615">
        <ele>1322.43</ele>
        <time>2019-03-28T12:11:44Z</time>
      </trkpt>
      <trkpt lat="45.2833" lon="6.20624">
        <ele>1320.51</ele>
        <time>2019-03-28T12:11:56Z</time>
      </trkpt>
      <trkpt lat="45.28342" lon="6.20628">
        <ele>1318.59</ele>
        <time>2019-03-28T12:12:01Z</time>
      </trkpt>
      <trkpt lat="45.28353" lon="6.20639">
        <ele>1317.14</ele>
        <time>2019-03-28T12:12:10Z</time>
      </trkpt>
      <trkpt lat="45.28351" lon="6.20645">
        <ele>1315.7</ele>
        <time>2019-03-28T12:12:17Z</time>
      </trkpt>
      <trkpt lat="45.28341" lon="6.20641">
        <ele>1314.26</ele>
        <time>2019-03-28T12:12:26Z</time>
      </trkpt>
      <trkpt lat="45.28333" lon="6.20651">
        <ele>1313.3</ele>
        <time>2019-03-28T12:12:30Z</time>
      </trkpt>
      <trkpt lat="45.28327" lon="6.20661">
        <ele>1312.34</ele>
        <time>2019-03-28T12:12:37Z</time>
      </trkpt>
      <trkpt lat="45.28318" lon="6.20677">
        <ele>1308.97</ele>
        <time>2019-03-28T12:12:47Z</time>
      </trkpt>
      <trkpt lat="45.28323" lon="6.2069">
        <ele>1305.61</ele>
        <time>2019-03-28T12:12:58Z</time>
      </trkpt>
      <trkpt lat="45.28324" lon="6.20692">
        <ele>1305.61</ele>
        <time>2019-03-28T12:12:59Z</time>
      </trkpt>
      <trkpt lat="45.28326" lon="6.20693">
        <ele>1305.61</ele>
        <time>2019-03-28T12:13:00Z</time>
      </trkpt>
      <trkpt lat="45.28333" lon="6.20704">
        <ele>1305.13</ele>
        <time>2019-03-28T12:13:06Z</time>
      </trkpt>
      <trkpt lat="45.28335" lon="6.20707">
        <ele>1302.72</ele>
        <time>2019-03-28T12:13:14Z</time>
      </trkpt>
      <trkpt lat="45.28341" lon="6.2071">
        <ele>1300.32</ele>
        <time>2019-03-28T12:13:25Z</time>
      </trkpt>
      <trkpt lat="45.28335" lon="6.20705">
        <ele>1297.92</ele>
        <time>2019-03-28T12:13:35Z</time>
      </trkpt>
      <trkpt lat="45.28318" lon="6.20718">
        <ele>1294.55</ele>
        <time>2019-03-28T12:13:44Z</time>
      </trkpt>
      <trkpt lat="45.28309" lon="6.20725">
        <ele>1292.63</ele>
        <time>2019-03-28T12:13:49Z</time>
      </trkpt>
      <trkpt lat="45.28302" lon="6.20732">
        <ele>1289.27</ele>
        <time>2019-03-28T12:14:01Z</time>
      </trkpt>
      <trkpt lat="45.28301" lon="6.20736">
        <ele>1288.3</ele>
        <time>2019-03-28T12:14:07Z</time>
      </trkpt>
      <trkpt lat="45.28294" lon="6.20753">
        <ele>1285.42</ele>
        <time>2019-03-28T12:14:17Z</time>
      </trkpt>
      <trkpt lat="45.28292" lon="6.20756">
        <ele>1284.94</ele>
        <time>2019-03-28T12:14:19Z</time>
      </trkpt>
      <trkpt lat="45.28293" lon="6.20763">
        <ele>1283.98</ele>
        <time>2019-03-28T12:14:24Z</time>
      </trkpt>
      <trkpt lat="45.28291" lon="6.20777">
        <ele>1281.57</ele>
        <time>2019-03-28T12:14:34Z</time>
      </trkpt>
      <trkpt lat="45.28288" lon="6.20793">
        <ele>1278.21</ele>
        <time>2019-03-28T12:14:46Z</time>
      </trkpt>
      <trkpt lat="45.28289" lon="6.20803">
        <ele>1277.73</ele>
        <time>2019-03-28T12:14:50Z</time>
      </trkpt>
      <trkpt lat="45.28292" lon="6.20812">
        <ele>1277.25</ele>
        <time>2019-03-28T12:14:54Z</time>
      </trkpt>
      <trkpt lat="45.28298" lon="6.20822">
        <ele>1275.33</ele>
        <time>2019-03-28T12:15:02Z</time>
      </trkpt>
      <trkpt lat="45.28295" lon="6.20839">
        <ele>1271.96</ele>
        <time>2019-03-28T12:15:13Z</time>
      </trkpt>
      <trkpt lat="45.28302" lon="6.20863">
        <ele>1268.6</ele>
        <time>2019-03-28T12:15:26Z</time>
      </trkpt>
      <trkpt lat="45.28306" lon="6.20877">
        <ele>1267.64</ele>
        <time>2019-03-28T12:15:34Z</time>
      </trkpt>
      <trkpt lat="45.28307" lon="6.20878">
        <ele>1267.16</ele>
        <time>2019-03-28T12:15:35Z</time>
      </trkpt>
      <trkpt lat="45.28308" lon="6.2088">
        <ele>1266.67</ele>
        <time>2019-03-28T12:15:36Z</time>
      </trkpt>
      <trkpt lat="45.28319" lon="6.20903">
        <ele>1264.75</ele>
        <time>2019-03-28T12:15:50Z</time>
      </trkpt>
      <trkpt lat="45.28322" lon="6.20905">
        <ele>1264.27</ele>
        <time>2019-03-28T12:15:52Z</time>
      </trkpt>
      <trkpt lat="45.28323" lon="6.20911">
        <ele>1264.27</ele>
        <time>2019-03-28T12:15:55Z</time>
      </trkpt>
      <trkpt lat="45.28328" lon="6.20929">
        <ele>1261.87</ele>
        <time>2019-03-28T12:16:05Z</time>
      </trkpt>
      <trkpt lat="45.28335" lon="6.20941">
        <ele>1259.46</ele>
        <time>2019-03-28T12:16:18Z</time>
      </trkpt>
      <trkpt lat="45.2834" lon="6.20958">
        <ele>1258.02</ele>
        <time>2019-03-28T12:16:30Z</time>
      </trkpt>
      <trkpt lat="45.28386" lon="6.21005">
        <ele>1257.06</ele>
        <time>2019-03-28T12:16:41Z</time>
      </trkpt>
      <trkpt lat="45.28385" lon="6.21017">
        <ele>1254.18</ele>
        <time>2019-03-28T12:16:55Z</time>
      </trkpt>
      <trkpt lat="45.28382" lon="6.21024">
        <ele>1253.7</ele>
        <time>2019-03-28T12:16:58Z</time>
      </trkpt>
      <trkpt lat="45.28382" lon="6.21039">
        <ele>1249.85</ele>
        <time>2019-03-28T12:17:11Z</time>
      </trkpt>
      <trkpt lat="45.28391" lon="6.21048">
        <ele>1250.81</ele>
        <time>2019-03-28T12:17:23Z</time>
      </trkpt>
      <trkpt lat="45.28393" lon="6.21052">
        <ele>1250.81</ele>
        <time>2019-03-28T12:17:37Z</time>
      </trkpt>
      <trkpt lat="45.28398" lon="6.21036">
        <ele>1250.81</ele>
        <time>2019-03-28T12:17:54Z</time>
      </trkpt>
      <trkpt lat="45.28394" lon="6.21033">
        <ele>1250.33</ele>
        <time>2019-03-28T12:18:14Z</time>
      </trkpt>
      <trkpt lat="45.2839" lon="6.21039">
        <ele>1249.85</ele>
        <time>2019-03-28T12:18:29Z</time>
      </trkpt>
      <trkpt lat="45.28385" lon="6.21043">
        <ele>1250.33</ele>
        <time>2019-03-28T12:19:02Z</time>
      </trkpt>
      <trkpt lat="45.28379" lon="6.21059">
        <ele>1250.33</ele>
        <time>2019-03-28T12:19:17Z</time>
      </trkpt>
    </trkseg>
  </trk>
</gpx>